GFSCGP_sfc_wetblb_069.txt.gz
Wetbulb
45.91 41.45 38.76 40.93 42.93 41.39 40.86 38.90 38.76 40.93 43.34 42.36 42.26 43.45 46.56 48.20 49.78 50.34 51.38 52.97 54.94 54.26 56.30 54.98 55.61 56.31 55.51 56.13 57.18 57.84 57.07 57.63 57.68 57.76 58.80 56.91 56.59 57.52 59.19 59.17 59.20 58.11 58.85 59.16
41.04 38.77 43.22 43.79 42.60 41.67 40.44 38.96 39.07 41.93 43.27 42.44 42.64 42.58 46.54 47.23 49.04 50.83 51.62 52.44 54.34 54.64 54.08 53.88 54.93 55.06 55.29 54.84 56.59 56.94 56.99 56.72 57.35 57.98 57.97 58.05 58.13 57.96 57.88 58.97 58.85 58.44 58.88 59.37
38.03 41.59 44.76 42.80 40.91 39.69 39.96 39.05 39.32 39.05 41.16 43.08 41.88 41.38 44.36 47.52 48.62 50.03 51.96 53.44 54.76 54.90 53.22 52.55 53.39 54.34 54.65 54.46 54.46 56.16 57.13 56.50 56.92 57.24 56.31 56.82 55.93 56.09 56.43 56.87 57.27 58.13 58.52 59.40
40.21 43.14 42.20 41.34 40.52 41.59 36.74 41.99 41.38 39.66 38.51 34.50 42.32 35.06 41.04 46.29 45.58 47.27 50.39 51.76 53.42 54.93 55.28 54.19 53.19 53.08 53.39 54.37 55.22 56.97 56.99 56.82 57.97 57.23 55.26 56.06 55.19 53.58 55.44 56.20 57.13 57.48 58.60 59.32
39.12 40.53 40.66 39.08 40.46 42.27 40.16 43.05 41.28 40.79 38.11 37.52 38.39 36.54 40.00 42.86 44.38 47.25 49.71 51.17 52.93 54.35 55.47 54.60 53.71 53.70 53.93 54.46 54.78 57.03 57.22 57.07 57.19 57.31 57.14 56.32 55.87 56.15 55.58 54.94 55.55 56.74 57.09 58.00
41.58 45.06 43.63 42.71 43.64 43.57 44.73 42.14 41.26 40.17 38.49 32.46 37.51 38.04 38.40 41.93 45.19 47.48 49.60 50.89 52.37 53.66 55.10 55.59 55.67 54.87 53.74 54.39 54.08 56.26 55.82 55.98 57.02 56.32 56.66 56.66 56.93 57.06 54.28 54.30 55.36 54.88 55.74 57.13
39.77 40.88 44.08 45.09 41.43 43.15 42.55 39.69 32.70 31.43 31.42 31.13 39.09 36.83 40.71 44.85 46.73 47.84 49.24 50.43 51.80 53.51 54.64 55.03 54.33 53.50 53.35 53.15 52.85 54.73 54.77 54.59 55.88 56.22 55.62 55.83 56.18 57.08 56.76 55.22 56.00 54.31 54.47 55.24
33.20 31.52 41.16 44.62 42.84 40.31 39.99 39.70 34.08 27.45 29.69 33.54 37.38 34.55 40.27 46.42 48.10 48.34 48.73 50.06 50.74 52.32 54.60 55.13 54.90 54.36 53.51 52.81 53.04 54.18 53.26 53.31 54.61 56.12 55.96 55.84 56.34 56.57 57.23 57.38 56.40 56.27 57.03 57.23
32.64 33.17 42.52 44.03 45.86 45.17 39.56 36.46 42.56 35.40 35.32 33.44 36.79 40.21 45.00 46.98 47.96 48.01 49.22 49.13 51.06 51.32 53.83 55.03 55.57 55.13 54.64 53.92 54.05 54.24 53.07 52.96 54.02 55.65 55.84 55.98 55.84 56.11 56.13 56.80 57.08 57.70 57.53 57.53
39.56 33.86 41.06 43.10 45.18 45.27 43.40 43.97 35.97 35.86 29.01 27.95 33.86 35.61 38.94 42.87 46.11 48.29 47.91 48.94 50.57 51.22 52.83 54.76 55.62 55.30 55.55 55.21 55.02 55.01 54.72 54.03 55.00 55.77 56.06 55.69 55.77 56.09 56.64 56.93 56.47 57.10 57.75 57.25
40.62 38.38 37.53 41.79 39.62 38.87 40.10 39.14 39.61 39.50 36.48 31.55 30.09 35.21 44.03 45.63 47.34 47.48 48.71 49.57 49.86 50.31 52.52 54.44 55.80 56.61 56.32 56.21 55.44 54.81 54.74 54.84 55.50 55.77 55.92 55.88 55.70 55.73 56.01 56.20 56.61 56.38 57.10 57.31
42.78 37.37 33.09 36.05 42.33 43.89 42.91 40.49 40.83 35.18 33.89 35.56 34.60 36.11 46.49 46.51 47.09 48.03 49.30 49.20 50.03 50.20 51.96 53.94 55.62 56.23 56.38 55.73 55.53 55.11 55.07 55.07 56.00 56.38 56.03 55.93 55.89 55.45 55.42 55.39 55.44 55.98 56.01 57.06
42.67 37.41 32.61 34.12 38.83 42.19 38.97 39.82 40.28 40.00 38.99 34.88 32.66 35.84 46.74 45.94 45.57 48.06 48.56 50.17 50.47 49.27 50.02 52.50 54.18 55.21 56.13 56.25 55.90 55.72 55.26 55.36 56.36 56.04 56.17 55.85 55.31 54.62 55.00 55.28 56.22 57.00 57.25 57.86
44.95 39.64 35.49 31.58 34.78 38.59 35.99 37.86 39.18 37.92 33.84 34.35 35.65 38.01 43.13 45.40 45.52 47.64 50.22 51.21 51.03 50.66 49.35 51.02 52.69 54.92 56.06 56.34 56.39 55.92 55.94 56.45 56.07 55.69 55.75 55.72 55.71 55.31 55.76 56.40 56.55 56.95 57.30 57.12
42.25 35.19 37.84 37.98 38.50 38.96 37.72 37.51 37.96 36.10 37.81 34.71 37.78 38.31 41.87 44.75 46.10 47.98 49.31 49.98 48.81 49.25 49.87 49.65 50.92 52.76 55.38 56.30 56.35 56.61 56.45 55.92 56.34 55.36 55.27 55.37 56.59 56.19 56.11 56.15 56.49 56.78 56.91 57.09
38.91 34.40 37.26 34.41 38.22 37.95 35.46 37.77 38.00 38.00 38.58 38.19 38.45 38.82 45.20 47.11 47.34 46.16 47.53 48.25 48.50 49.46 50.35 51.06 50.64 51.50 52.84 54.99 56.25 56.33 56.41 56.34 56.37 55.63 55.19 55.80 56.22 56.18 55.73 55.86 55.90 56.53 56.93 58.03
34.26 36.08 33.65 29.67 34.83 35.37 30.03 34.88 37.08 39.29 39.79 39.49 35.69 40.28 42.68 42.69 44.64 46.24 48.17 49.31 48.68 49.73 50.39 51.02 51.66 52.25 52.72 54.04 55.91 56.46 57.10 57.14 56.26 55.86 55.86 55.95 56.18 56.09 56.69 56.09 56.22 56.87 57.29 58.33
33.06 33.94 33.54 30.20 31.22 23.53 34.88 39.87 40.60 39.10 40.56 42.16 40.90 41.78 45.01 45.40 46.62 47.56 49.29 49.46 49.69 49.77 50.38 51.68 52.39 52.43 53.27 54.82 55.08 57.11 57.36 57.15 56.49 56.19 56.02 56.38 56.78 56.61 57.04 57.26 56.91 56.90 57.43 56.05
36.40 34.24 31.62 29.09 28.11 31.74 34.89 37.66 37.26 37.41 37.55 42.34 42.29 44.23 45.28 46.04 46.18 46.52 48.26 49.02 48.99 50.20 51.21 51.93 52.66 52.59 52.87 53.82 54.71 54.83 55.69 56.55 56.63 56.26 56.64 56.80 57.14 57.07 57.51 57.25 54.65 49.13 48.95 47.34
36.73 37.40 33.36 30.91 25.77 23.27 33.51 39.58 44.69 43.34 33.08 43.24 43.15 43.48 44.41 45.17 40.51 44.20 48.86 48.78 48.10 49.40 48.82 49.13 49.92 49.74 50.46 52.75 55.15 54.96 54.98 55.26 55.56 56.36 57.01 57.67 57.71 57.19 53.54 50.93 47.56 46.13 46.04 43.80
31.23 32.18 28.74 29.95 28.32 32.20 38.77 41.13 45.55 32.64 35.79 43.92 44.07 44.23 44.73 43.04 45.31 48.04 48.67 48.90 49.18 49.58 50.61 52.73 52.14 50.44 52.25 53.87 55.54 55.53 56.07 55.11 55.33 55.22 53.67 52.03 51.55 49.76 47.96 45.03 44.82 43.40 41.45 39.29
30.46 29.52 29.64 30.66 28.38 25.52 41.12 41.73 37.16 40.82 44.80 44.35 45.30 45.63 45.73 46.54 46.92 47.40 48.22 48.60 48.24 48.97 51.27 51.89 51.73 50.88 51.60 53.59 55.26 54.38 52.65 50.80 50.39 49.20 48.08 46.91 46.39 45.32 44.75 42.88 40.64 38.66 36.26 33.84
30.12 34.73 32.88 34.30 34.21 40.32 42.97 42.68 44.29 44.74 43.62 44.68 45.01 46.68 46.99 46.60 46.75 47.34 47.24 48.29 48.07 48.60 49.89 49.68 49.82 48.74 49.00 51.27 51.73 47.52 47.49 48.23 46.84 45.37 44.53 44.39 43.13 42.15 42.37 40.09 37.60 35.05 34.45 32.35
35.26 38.01 34.86 34.75 37.91 39.69 41.82 43.20 44.40 44.39 43.67 45.14 46.45 46.84 47.60 47.34 46.96 46.79 46.66 47.90 47.00 47.55 47.77 48.17 47.34 45.76 44.67 46.52 46.91 46.82 46.23 45.88 44.28 42.28 41.20 40.48 38.96 37.82 37.78 37.04 36.02 34.95 33.42 32.25
35.62 36.58 35.35 35.61 38.56 39.59 41.78 42.17 42.37 42.40 44.04 42.54 42.06 42.62 44.81 43.02 43.71 43.76 44.77 43.35 44.84 44.45 44.16 44.25 43.35 41.85 41.07 43.10 43.91 44.29 44.10 43.26 40.59 38.84 37.12 35.88 34.80 33.36 31.44 31.54 33.76 33.48 33.43 33.82
37.68 35.85 34.12 33.38 37.70 37.12 38.03 41.76 40.95 39.63 39.26 37.82 36.45 35.64 36.42 35.69 36.34 41.61 36.06 35.80 35.75 36.30 38.10 38.65 36.37 34.73 33.95 33.96 34.54 38.32 39.68 39.75 37.68 34.95 34.16 33.80 33.35 32.19 30.87 29.49 28.10 30.34 30.17 30.57

GFSCGP_sfc_wetblb_072.txt.gz
Wetbulb
49.34 45.49 42.80 45.86 47.24 46.93 46.07 43.90 42.95 45.24 46.80 45.83 46.11 46.78 48.93 52.56 53.20 54.14 55.92 56.84 58.56 59.26 61.12 61.33 60.86 60.07 59.79 59.62 59.70 59.97 58.18 58.90 59.44 59.58 58.79 57.95 59.07 59.71 60.68 60.79 60.36 60.42 60.20 60.70
45.73 42.41 46.40 48.31 47.81 45.98 45.19 42.72 42.67 45.63 46.69 45.76 45.50 45.34 48.12 51.51 52.49 53.81 54.47 56.40 57.41 59.45 59.93 60.13 60.08 59.99 59.39 58.85 58.98 59.09 58.52 58.37 59.44 59.01 59.31 59.55 58.98 60.59 61.08 60.29 59.86 59.47 61.04 60.70
42.00 44.42 46.40 46.34 45.29 43.63 44.27 42.70 42.92 42.88 45.26 46.43 45.06 43.42 45.77 50.11 52.56 53.73 55.37 56.66 57.84 59.05 59.42 59.45 59.23 59.52 59.66 57.75 58.80 58.92 58.56 59.29 59.93 60.68 61.07 59.45 58.18 58.37 58.17 58.91 58.91 58.74 59.50 60.79
43.72 45.94 43.71 44.04 43.61 45.06 41.55 46.13 44.38 43.63 42.45 38.85 44.97 37.58 45.40 48.59 49.67 51.42 52.66 55.97 57.26 58.53 60.19 60.13 59.76 59.51 59.53 59.20 58.33 59.70 58.44 59.66 59.28 59.56 58.32 59.38 58.65 55.80 58.55 57.82 58.32 58.69 58.72 59.20
42.18 42.56 41.46 40.25 43.36 44.91 42.76 46.83 44.66 44.49 43.03 42.29 41.85 39.03 43.48 47.38 47.17 49.72 51.88 53.47 56.79 58.85 60.06 60.10 60.02 60.13 60.29 60.18 58.85 58.48 58.79 60.33 58.84 58.23 58.94 58.26 58.74 56.43 57.61 58.34 57.47 57.61 58.23 59.42
43.12 47.39 45.79 43.47 46.26 46.82 46.60 44.66 44.25 44.15 42.74 35.45 40.15 40.11 41.44 45.79 48.15 49.63 51.67 52.88 54.20 57.98 59.64 60.72 61.35 61.13 60.38 60.36 59.55 59.37 59.74 59.72 59.22 59.32 58.39 57.57 57.22 57.14 56.43 55.97 57.34 56.65 57.41 57.83
39.15 40.53 45.34 46.62 42.73 45.71 45.28 42.41 36.85 35.52 35.43 34.26 42.22 40.12 42.32 48.30 50.27 51.15 51.80 53.03 54.35 57.41 58.91 59.85 60.17 60.01 59.89 59.32 59.02 59.23 59.76 59.27 59.91 59.76 59.35 58.77 59.30 59.19 57.67 56.44 56.66 55.90 56.00 56.68
32.27 32.05 40.97 45.78 44.48 42.32 42.61 42.72 38.62 31.53 34.14 37.59 42.25 38.01 43.19 49.75 51.61 53.00 53.16 53.78 54.56 55.48 58.43 59.62 60.32 60.47 60.32 59.72 59.08 58.47 59.26 59.27 60.02 59.67 60.00 60.35 60.16 59.91 59.26 59.40 59.23 59.59 59.15 58.86
34.73 35.17 43.85 44.30 46.14 45.30 42.77 40.44 45.32 39.60 40.11 37.19 41.35 43.79 47.76 49.92 50.47 52.05 52.88 54.06 54.24 55.32 57.24 59.12 60.26 60.74 60.74 60.20 59.51 58.61 59.04 59.28 59.71 59.97 60.27 60.23 60.32 60.74 61.17 60.75 60.62 60.75 60.68 60.49
40.65 34.18 41.47 44.24 45.69 46.35 45.33 47.02 38.55 40.16 31.94 31.29 38.02 40.08 42.14 45.62 47.16 50.43 51.20 52.37 53.78 55.58 55.76 58.55 60.16 60.52 60.96 60.95 60.68 59.79 60.04 58.85 59.46 59.98 60.26 59.98 59.80 59.97 60.52 61.23 61.29 61.74 61.59 61.43
42.38 39.49 38.74 42.93 41.42 41.31 42.41 41.92 43.07 43.04 40.37 34.57 33.51 38.81 48.17 47.43 48.52 50.06 51.70 53.48 54.46 56.00 55.40 57.74 59.40 60.75 60.93 61.39 60.75 60.12 59.93 58.85 58.74 59.41 60.18 60.05 59.78 59.64 60.58 61.21 61.20 61.31 61.64 61.27
44.32 40.81 36.60 38.82 44.34 45.35 45.48 42.69 43.40 37.72 37.15 39.95 39.42 39.69 49.15 50.10 50.55 50.50 51.89 53.60 55.07 55.94 55.97 57.03 59.50 60.21 60.26 60.62 60.57 60.23 60.24 59.51 59.23 59.58 60.11 60.28 60.02 59.79 59.63 60.12 61.17 62.10 61.54 61.89
43.30 39.40 33.33 35.35 40.04 43.85 42.04 43.09 43.21 43.21 42.53 38.25 35.98 39.25 49.50 49.74 49.58 50.51 51.28 53.76 54.94 55.23 56.12 56.35 58.37 59.24 59.99 60.46 60.35 60.51 60.32 60.20 60.17 59.88 59.54 59.79 59.57 59.67 59.92 59.71 59.72 60.26 60.26 60.50
44.22 40.05 37.20 33.81 36.85 41.06 38.21 40.24 42.50 41.67 37.86 38.42 39.42 41.34 45.43 47.28 47.76 49.18 50.24 52.07 53.83 54.67 55.37 55.69 56.27 58.23 59.77 60.71 60.75 60.43 60.47 60.79 60.72 60.12 59.44 58.88 59.29 59.90 59.60 59.65 59.07 59.74 59.59 58.97
44.29 36.63 38.64 38.82 39.18 39.35 38.92 39.03 39.95 38.90 40.21 37.25 40.68 41.47 45.24 47.77 48.73 50.04 51.21 51.28 51.66 52.92 54.30 55.24 55.83 56.86 59.08 60.30 60.78 61.11 60.92 60.60 60.77 59.84 59.35 59.98 59.93 59.83 59.51 59.19 59.12 59.55 59.67 59.42
41.65 36.09 38.74 35.57 38.51 39.17 37.35 39.48 40.28 40.31 40.58 41.89 42.99 42.07 48.41 49.61 49.74 49.18 50.08 50.89 50.57 51.52 53.45 55.10 55.80 55.80 56.25 58.41 60.21 60.49 60.62 60.67 60.70 59.67 59.15 59.95 60.02 59.88 59.33 59.05 59.00 59.53 59.21 59.21
36.35 37.55 35.36 31.35 36.91 37.05 32.60 37.87 39.79 41.06 42.49 43.36 39.74 43.48 47.03 46.88 47.64 49.42 50.49 51.23 50.93 52.06 53.12 54.25 55.18 56.02 56.58 56.91 58.78 59.96 60.98 61.52 60.08 59.60 59.81 59.46 59.62 59.46 59.56 59.23 58.86 58.63 58.79 59.53
36.01 37.16 36.89 32.82 34.16 25.45 37.82 42.29 42.02 40.84 42.64 44.53 43.77 45.53 47.05 48.16 50.10 51.53 51.53 50.54 51.09 51.96 52.61 53.60 54.83 55.38 56.44 57.83 57.88 59.47 60.56 60.84 60.02 59.61 59.66 59.59 59.14 58.98 59.35 59.13 58.61 58.84 59.23 58.91
39.95 37.01 33.47 30.00 30.52 34.49 36.78 40.19 39.86 38.77 38.75 44.26 43.85 46.06 47.52 49.04 50.07 50.40 52.56 52.06 51.62 52.38 53.27 54.01 54.80 54.52 55.05 55.53 56.64 57.82 58.90 59.85 60.11 59.39 59.35 59.62 59.79 58.92 58.99 58.81 59.28 58.90 58.03 57.58
39.47 39.20 34.85 32.88 27.20 25.57 36.56 42.66 45.93 45.47 35.73 44.93 45.26 45.06 45.53 47.59 43.20 47.30 51.71 52.31 52.37 53.50 53.62 54.99 55.95 56.03 55.56 55.67 55.83 56.04 56.99 58.40 58.88 59.57 59.86 60.23 60.15 59.59 59.25 59.46 57.94 52.53 54.11 50.39
31.27 32.79 31.24 31.55 30.84 34.77 41.81 43.71 46.97 34.34 37.07 45.51 46.17 46.15 46.03 44.91 48.01 50.64 51.89 51.95 53.00 53.53 53.63 55.46 56.40 56.27 56.33 57.04 56.63 55.53 56.80 56.68 58.59 59.99 60.27 60.20 60.22 59.87 58.83 52.41 51.47 48.53 43.59 41.06
31.38 29.47 29.67 32.69 28.79 26.73 44.29 43.97 38.89 43.50 45.94 46.23 47.05 47.52 47.24 48.75 49.74 50.76 50.55 51.63 52.63 52.50 53.51 54.58 54.43 51.84 52.18 54.86 57.20 57.17 57.04 55.93 56.00 56.23 54.83 54.12 53.20 49.74 49.75 47.20 44.76 43.19 39.83 36.17
32.78 37.72 35.95 36.49 36.29 44.12 46.15 45.36 46.93 47.58 45.98 46.83 47.47 48.41 48.98 49.24 49.55 50.51 50.39 51.19 51.10 51.25 51.65 53.26 50.15 46.82 45.68 47.68 52.57 52.64 50.53 51.40 51.31 49.89 48.30 46.29 44.97 44.51 44.70 42.46 40.39 37.75 37.12 34.48
39.15 41.97 38.03 38.21 40.98 42.75 44.01 45.84 46.87 46.89 46.43 46.95 46.81 46.52 47.02 46.63 49.55 49.28 49.36 48.51 48.70 47.73 46.64 46.49 46.58 43.00 39.86 40.23 42.63 45.70 46.47 46.24 45.58 43.40 41.76 41.43 39.81 38.81 39.34 38.65 37.53 35.72 34.35 32.54
39.67 40.58 38.27 38.48 41.59 43.04 43.78 45.32 45.63 45.52 46.61 45.00 44.54 43.71 42.58 42.35 44.35 44.26 45.79 42.35 41.61 40.76 40.36 40.87 39.29 38.41 36.97 36.89 36.39 38.07 40.90 42.45 39.75 38.19 37.15 35.77 34.59 32.91 31.22 31.41 34.13 33.87 33.99 33.64
41.02 38.68 36.95 36.01 42.05 41.27 41.72 44.92 44.89 43.61 43.92 43.21 41.03 40.39 40.53 39.14 39.74 40.72 38.68 36.83 37.97 35.83 34.50 34.41 33.28 33.73 34.36 34.00 32.93 33.60 35.19 37.71 36.76 35.02 34.10 33.34 32.55 31.74 30.68 29.27 28.41 30.51 30.70 31.13

GFSCGP_sfc_wetblb_075.txt.gz
Wetbulb
45.47 43.05 42.13 44.99 46.52 47.86 47.77 46.55 45.99 48.60 50.19 47.88 47.66 48.03 49.80 52.28 53.12 53.96 54.95 56.58 58.60 60.12 62.15 62.79 63.17 62.75 61.96 62.48 61.17 62.31 60.26 60.79 60.20 59.85 59.14 58.82 58.52 59.31 60.78 60.48 59.93 60.88 61.52 61.91
40.90 41.23 46.85 48.29 48.56 47.91 47.12 45.78 46.20 48.09 49.15 47.09 46.99 46.86 49.42 50.66 51.20 53.44 54.20 55.76 57.38 59.50 61.13 62.01 62.75 62.55 61.46 61.75 60.47 60.92 60.26 61.05 60.28 59.37 59.89 59.92 59.61 59.68 60.53 60.55 59.53 59.38 60.35 60.74
40.11 42.87 48.34 47.09 47.04 46.11 46.91 45.60 45.93 45.43 48.12 48.24 46.45 45.19 47.26 50.15 51.57 52.42 54.04 55.35 56.56 58.29 60.18 61.28 61.86 62.39 61.85 61.10 60.76 61.21 60.33 59.65 60.53 61.09 60.96 60.31 60.34 60.04 59.34 59.38 59.89 59.30 59.82 60.21
40.64 46.82 45.26 45.94 45.32 46.99 43.37 48.32 46.98 45.99 44.69 40.98 48.05 39.52 46.41 49.25 49.61 51.61 53.33 54.88 55.71 57.67 59.99 61.79 61.94 61.95 62.22 61.40 61.96 61.08 60.22 60.33 60.09 61.05 59.51 58.44 57.14 56.48 57.74 58.55 58.64 58.51 59.09 60.38
38.55 42.28 44.17 43.17 44.44 47.13 44.42 47.93 47.00 46.56 44.24 44.41 44.30 41.16 44.59 48.86 47.61 49.83 52.68 53.82 55.57 57.67 59.60 61.48 61.93 62.35 62.92 62.29 61.24 62.09 59.70 60.67 60.16 60.68 60.30 58.24 57.68 57.90 59.36 58.72 57.89 57.53 58.02 59.34
43.00 46.85 46.90 45.69 46.50 45.91 47.39 46.29 45.82 46.14 44.16 38.44 43.07 42.84 43.26 46.29 48.60 51.16 52.27 53.54 54.61 56.83 59.33 61.38 62.93 63.09 62.84 62.81 61.54 61.49 60.05 59.86 60.63 60.22 61.53 60.29 61.00 59.13 58.09 57.79 57.23 56.66 57.13 57.74
38.21 40.55 45.42 47.26 43.40 45.08 45.93 43.81 37.25 35.72 36.82 36.21 45.05 42.44 44.20 48.76 50.90 51.67 51.84 53.47 54.78 56.75 58.92 60.44 61.71 62.04 62.34 62.13 61.36 60.74 60.66 60.61 59.93 59.95 60.77 61.03 61.29 60.88 58.51 59.51 57.22 56.92 56.08 57.13
33.13 30.86 40.50 45.66 44.03 41.41 43.32 43.56 38.92 32.29 34.35 38.54 45.48 39.73 44.28 50.43 51.54 53.32 53.28 54.09 55.50 56.32 58.58 59.68 61.50 62.40 62.35 62.16 61.80 60.33 60.34 60.57 61.39 59.98 60.22 60.44 60.70 60.51 60.98 59.84 59.81 60.22 58.38 58.17
35.10 35.95 44.40 45.08 46.03 44.70 41.26 39.80 45.07 39.95 42.08 38.63 42.09 45.34 48.64 50.71 50.85 52.05 52.82 54.19 54.49 55.86 57.51 59.53 60.93 62.28 62.66 62.46 62.05 61.29 60.63 60.95 61.46 61.42 61.55 60.93 61.51 61.33 60.45 61.26 61.50 60.90 60.81 60.90
40.72 34.93 42.40 43.85 45.94 46.08 43.63 46.00 38.60 40.77 32.15 31.50 38.63 41.58 43.04 47.28 48.33 50.60 51.86 53.22 54.60 55.83 56.78 58.17 60.79 61.86 62.64 62.98 62.93 62.53 61.37 60.95 61.66 61.86 61.94 61.73 61.89 62.12 62.22 62.27 61.75 61.51 61.79 61.75
41.82 40.34 38.93 42.44 39.57 40.65 41.95 39.75 41.81 43.13 40.71 35.09 34.12 40.08 49.33 48.85 49.82 49.78 52.53 53.50 54.66 55.87 56.60 57.92 60.53 61.94 62.87 63.20 63.01 62.34 61.62 61.07 61.10 62.16 61.88 61.86 62.30 62.58 63.34 62.71 62.85 62.89 62.66 62.12
44.13 42.04 36.51 37.89 44.06 45.79 44.78 42.13 42.73 37.70 37.12 40.84 39.70 40.37 50.21 51.08 51.47 51.36 51.89 53.05 54.90 55.75 56.67 57.39 59.14 61.11 62.17 62.43 62.56 62.31 62.01 61.52 61.63 62.88 62.67 62.56 62.55 62.07 62.32 62.73 63.44 63.58 63.04 63.04
41.59 40.19 34.62 36.18 40.89 44.63 42.62 44.33 44.51 44.43 43.55 38.22 35.31 39.95 50.68 51.08 50.41 50.81 51.04 52.15 53.68 55.07 56.14 56.94 58.15 60.01 61.25 62.01 62.25 62.15 62.35 62.02 62.93 61.68 61.60 62.63 62.60 62.29 61.85 62.35 63.15 63.20 63.40 62.81
43.26 40.86 38.48 32.92 36.88 42.00 39.87 42.30 44.12 42.90 38.17 38.81 39.31 41.91 46.17 48.08 48.73 49.56 50.77 52.01 52.93 53.82 54.57 55.82 56.78 58.14 60.74 61.96 62.08 62.22 63.09 63.74 63.17 61.69 60.99 61.01 62.35 62.39 62.30 62.38 62.35 62.53 62.72 62.47
42.64 36.60 39.96 41.03 40.69 40.13 41.27 41.56 42.73 41.63 42.44 38.62 41.77 42.68 45.94 48.29 49.33 50.64 51.72 52.01 52.01 52.56 53.60 54.88 56.18 57.22 58.52 60.94 62.10 62.54 62.70 63.44 63.43 62.20 61.70 61.51 62.70 62.50 62.17 62.20 62.04 62.16 62.10 62.23
42.40 35.78 37.93 36.58 40.39 39.93 37.21 40.63 41.57 41.81 42.09 42.42 42.88 42.81 49.20 50.21 50.69 48.91 49.50 51.08 51.71 52.30 53.06 53.87 55.51 56.51 57.29 58.10 61.12 62.07 62.43 63.41 63.51 62.63 62.37 62.39 62.23 62.09 62.17 62.30 62.19 61.81 61.68 61.52
38.37 37.64 36.04 32.41 37.98 38.02 34.18 38.54 39.67 41.38 43.43 43.17 39.94 45.18 48.03 47.77 47.98 49.19 50.01 51.52 51.96 52.81 53.67 54.17 54.84 55.94 56.84 57.86 58.82 59.68 61.93 62.92 62.87 62.51 62.42 62.61 62.65 62.25 62.27 61.98 61.29 61.10 60.90 61.35
37.62 37.73 37.36 33.28 35.34 26.73 38.90 43.67 43.14 42.16 43.53 45.14 44.87 45.94 47.16 48.06 49.53 50.92 52.29 52.40 52.20 52.74 53.69 54.45 55.30 56.41 57.18 57.29 57.24 58.78 59.60 61.64 62.53 62.10 61.97 62.23 62.23 62.04 62.20 62.03 61.49 61.43 61.25 60.67
41.17 38.22 34.49 31.20 31.79 35.97 38.40 40.85 40.48 39.80 40.05 45.42 44.29 45.99 47.61 48.63 49.46 49.95 53.22 53.22 52.93 53.57 54.42 55.00 55.91 56.94 58.20 58.15 57.20 56.91 57.30 59.25 61.04 61.50 61.35 61.43 61.96 61.51 61.71 61.28 61.52 61.62 61.16 60.66
40.09 40.21 35.72 33.36 28.07 25.82 37.60 43.47 46.69 45.46 37.32 46.21 46.05 45.70 45.96 47.09 43.10 47.14 51.91 53.10 53.01 53.92 54.99 54.90 56.41 57.44 57.39 57.81 58.61 58.10 56.74 56.78 58.68 61.37 61.53 62.04 62.19 61.63 60.89 61.68 61.55 61.39 60.76 59.25
33.52 34.39 31.59 31.80 30.62 35.52 42.86 44.84 46.61 35.30 37.41 45.36 46.34 46.80 46.98 45.44 47.51 50.01 51.42 52.60 53.66 53.99 54.02 54.81 55.19 52.63 51.33 51.56 53.49 56.26 57.73 56.85 57.77 59.24 61.47 61.77 61.54 61.13 60.48 60.60 61.80 60.93 55.00 47.51
33.70 31.49 30.71 32.98 30.14 27.80 44.42 44.59 39.57 44.87 47.53 47.57 47.87 47.97 47.22 48.37 49.51 50.42 51.45 52.08 53.13 52.79 52.96 52.08 50.85 47.75 45.20 43.53 46.17 52.14 55.46 55.63 57.82 58.03 58.33 59.42 59.61 57.98 59.73 59.09 54.88 49.11 44.85 39.08
33.52 37.46 35.54 36.34 36.62 44.55 47.44 46.44 47.70 48.34 46.85 47.22 47.26 47.77 48.06 47.70 48.21 50.28 51.22 52.00 50.92 50.24 49.73 49.43 46.88 42.38 40.71 39.59 39.86 40.62 43.07 46.65 50.14 53.68 50.47 48.49 46.94 47.09 48.85 46.63 42.65 40.59 40.08 37.57
40.66 41.88 38.63 37.65 42.94 42.26 46.26 46.84 48.55 48.12 47.11 47.89 47.89 47.36 47.25 45.74 46.87 48.08 48.92 50.06 47.84 47.07 45.18 44.88 42.83 37.56 35.53 36.17 36.37 37.06 40.04 41.89 41.85 41.05 40.30 39.52 38.24 37.01 37.25 37.77 38.79 38.78 37.44 34.85
40.41 41.55 39.76 39.44 42.31 43.91 44.68 46.70 46.80 46.48 47.44 46.92 46.52 46.23 44.82 44.51 44.75 44.95 46.43 44.48 44.08 42.85 40.88 39.29 37.68 33.55 32.41 34.20 33.81 35.19 36.87 38.39 36.76 35.82 35.46 34.29 33.05 32.48 30.98 30.65 32.73 33.00 32.89 33.69
42.26 39.60 37.38 36.10 43.05 43.49 44.13 45.21 45.43 44.39 43.88 44.26 43.14 42.61 42.66 42.66 40.91 42.64 42.32 39.87 39.01 37.59 36.15 34.69 32.83 32.68 31.16 31.79 31.13 32.26 33.94 35.13 34.49 32.68 31.98 31.56 31.04 30.45 29.59 28.69 27.81 30.39 30.49 30.72

GFSCGP_sfc_wetblb_078.txt.gz
Wetbulb
45.25 40.15 38.28 41.81 46.06 45.96 45.25 44.16 43.80 47.65 50.06 48.78 47.91 47.13 48.75 51.34 52.27 53.19 54.13 54.74 56.63 58.49 60.79 62.09 62.32 62.31 61.79 62.40 61.80 61.31 59.92 59.57 59.95 59.53 58.85 58.09 57.81 58.85 59.78 60.23 60.21 60.31 59.98 60.14
43.25 39.35 42.99 44.35 44.40 43.92 43.82 42.12 43.15 47.73 50.01 48.16 46.92 46.16 48.70 50.33 50.82 52.04 52.81 54.40 55.30 57.82 59.62 61.18 61.76 61.75 60.97 61.08 61.40 60.62 60.60 59.87 59.57 59.80 59.60 59.41 59.04 59.18 59.28 59.99 58.73 59.49 59.55 59.82
42.18 43.95 46.22 42.46 42.74 42.21 43.76 42.74 43.96 44.45 47.94 49.21 47.03 44.42 46.54 49.68 50.86 51.78 52.42 53.25 55.34 57.15 58.48 60.21 61.07 61.41 60.64 60.40 60.09 60.38 60.43 60.28 59.71 60.06 60.05 59.51 59.06 58.97 58.37 58.59 57.68 57.88 58.68 59.68
43.78 46.71 43.75 41.45 40.00 42.34 40.08 46.91 46.58 45.75 44.29 40.57 47.53 38.37 45.28 48.38 49.15 50.45 51.45 52.49 53.74 55.23 58.82 60.49 60.98 61.04 60.48 60.25 60.43 60.63 60.19 59.91 60.18 60.01 59.21 58.33 57.04 56.07 57.46 57.82 58.54 57.79 58.57 58.67
40.96 41.69 41.48 39.72 40.66 43.69 42.09 47.21 45.79 45.22 43.82 43.28 43.17 40.29 43.87 47.85 46.48 49.24 51.19 52.76 54.55 56.04 57.50 59.59 60.93 61.60 62.06 61.38 60.45 60.27 60.16 59.30 59.92 59.89 59.54 58.89 57.60 57.67 58.21 58.60 58.69 57.98 57.77 58.49
43.08 46.87 44.80 42.80 44.86 45.70 45.95 45.04 44.18 44.39 43.25 36.72 41.41 40.95 41.73 45.35 47.69 49.63 51.94 53.81 54.74 55.57 56.95 59.56 61.92 62.28 61.88 61.57 60.59 60.06 59.39 59.91 59.40 60.01 59.82 59.19 58.64 57.78 57.19 57.53 56.94 56.82 57.07 57.42
40.01 41.25 44.41 45.40 40.26 43.56 43.80 39.88 32.06 31.85 34.03 33.81 42.89 40.73 43.32 48.54 50.68 51.62 52.22 54.41 55.00 55.89 56.91 58.45 60.63 60.89 61.44 60.83 59.83 60.17 59.16 58.66 59.83 60.05 59.66 58.89 58.81 58.44 57.72 57.31 57.17 56.48 56.39 56.37
32.59 30.46 39.40 43.14 40.82 38.80 40.64 39.68 33.25 28.55 31.98 35.26 43.07 38.49 43.65 50.46 52.15 52.44 53.14 55.49 55.29 55.96 58.15 58.48 60.27 61.25 61.43 61.21 59.95 59.50 59.25 58.46 59.75 59.15 59.23 59.60 59.59 58.90 58.77 58.52 58.29 57.18 56.40 56.59
33.98 33.31 41.94 43.64 43.60 42.48 39.16 37.11 42.35 36.01 36.64 34.70 41.17 44.59 48.35 50.34 50.28 51.22 51.91 53.76 53.71 55.47 56.56 57.65 59.34 61.41 61.66 61.56 60.43 59.29 59.22 59.22 59.64 59.19 59.33 59.66 60.62 60.13 58.47 58.99 59.05 58.71 57.78 57.17
39.17 33.03 41.86 42.85 44.89 44.21 41.91 45.04 35.97 35.82 28.53 29.07 37.58 40.96 41.93 46.68 48.14 50.31 51.45 52.81 54.49 55.44 57.08 57.70 58.92 61.38 62.10 62.25 61.67 60.29 59.38 59.34 60.50 59.75 59.43 59.27 59.38 60.26 59.72 59.68 58.76 58.91 58.61 58.21
42.75 37.85 37.63 41.89 39.07 38.75 39.60 38.52 39.09 39.12 36.72 32.10 32.80 37.98 49.85 48.45 49.81 50.73 52.32 53.19 54.25 55.76 56.49 57.23 58.94 61.24 62.32 62.67 62.21 61.28 60.03 59.55 59.89 60.59 60.14 59.64 59.47 59.83 59.53 59.32 59.84 59.25 59.60 58.85
43.73 39.64 34.25 37.25 43.66 44.35 43.46 40.64 40.28 33.70 34.41 38.31 37.03 38.41 50.64 50.89 51.05 51.21 51.47 52.95 53.62 54.90 55.45 57.34 58.88 60.58 61.32 62.05 62.15 61.52 61.13 60.11 60.01 60.62 60.69 60.35 60.56 60.18 59.74 60.07 59.96 60.33 59.65 59.79
40.20 37.97 32.31 35.02 39.62 43.37 39.57 41.11 41.76 41.91 40.40 35.04 34.05 37.79 49.71 50.48 50.31 51.03 51.25 51.54 53.05 54.17 54.54 55.36 55.70 58.81 59.78 61.44 61.80 62.02 61.75 61.05 60.83 60.45 60.48 60.35 60.13 60.21 59.91 60.15 60.67 60.60 60.19 59.74
41.91 37.77 35.93 31.88 34.96 39.04 37.63 40.23 41.56 41.29 35.46 36.88 37.16 39.88 44.59 46.28 47.53 49.91 50.98 52.19 52.64 53.19 53.85 54.21 54.79 55.89 59.37 60.70 61.62 61.92 62.08 61.92 61.49 61.13 60.15 59.69 59.88 60.01 60.02 60.28 60.44 61.05 60.87 60.17
40.74 34.57 37.87 37.91 40.11 40.23 38.51 39.50 40.50 38.60 39.72 36.72 39.77 40.47 44.32 46.64 48.13 49.72 51.20 51.24 51.48 52.22 53.13 53.96 54.22 54.79 56.06 57.53 61.25 61.75 62.07 62.48 61.98 61.09 60.41 59.49 60.15 60.64 60.59 60.16 60.04 60.27 60.53 60.66
41.66 34.98 36.96 34.46 38.94 39.22 37.60 39.87 40.76 41.24 41.32 41.13 41.64 40.65 47.31 48.77 50.19 48.72 49.54 49.92 51.02 51.56 52.46 53.53 54.24 55.09 55.42 56.43 56.80 60.18 61.63 61.83 62.48 61.48 60.89 60.76 60.12 59.94 60.24 60.22 59.88 59.75 59.52 59.67
38.19 36.02 34.36 30.55 37.02 36.90 33.20 38.10 39.43 40.55 42.56 41.82 37.98 43.35 47.75 46.98 47.86 48.45 48.90 51.02 50.69 51.31 52.05 52.89 53.22 54.19 55.59 56.47 57.80 56.57 56.50 61.15 61.92 61.70 61.62 61.46 60.80 59.98 59.75 60.31 59.91 59.28 58.75 58.78
36.70 36.09 35.94 31.71 34.31 25.58 38.10 43.82 43.10 41.21 42.46 44.14 44.63 45.80 46.76 47.18 48.61 49.30 50.89 50.88 50.47 50.99 51.99 53.23 54.04 54.96 56.29 56.90 55.47 56.36 57.87 56.86 58.33 61.21 61.35 61.62 61.42 60.54 60.51 59.89 59.51 59.15 59.08 58.37
40.72 36.81 32.90 30.21 30.13 34.74 37.66 40.84 39.75 38.97 39.09 44.32 44.01 45.64 46.79 47.48 47.95 47.72 50.57 51.74 51.67 51.78 52.69 53.77 54.84 53.89 52.79 50.94 50.93 52.64 54.62 56.92 57.69 56.12 60.72 61.16 61.13 60.56 60.32 59.85 59.46 59.26 58.72 58.26
39.80 40.29 34.43 32.94 27.26 24.98 36.54 41.81 46.06 44.90 35.21 45.71 46.09 45.30 45.33 45.96 41.03 44.38 49.62 50.76 51.96 52.83 52.59 52.21 52.47 50.11 47.13 45.12 46.20 48.89 52.46 52.49 51.35 53.63 57.53 59.74 61.02 60.57 59.85 59.73 59.33 59.34 59.30 58.37
33.29 34.11 30.76 30.80 29.11 33.95 41.10 44.47 46.42 34.08 36.42 45.37 46.06 46.14 45.69 43.67 45.23 48.08 50.23 50.92 52.68 52.01 50.70 50.65 49.78 46.01 42.67 42.23 42.96 43.46 44.67 43.28 46.41 50.60 55.42 54.64 57.02 59.99 59.83 59.27 59.03 58.67 58.16 50.35
32.51 30.77 30.43 32.04 28.50 26.71 44.23 43.20 37.47 43.27 45.72 46.32 46.23 46.20 45.80 46.67 47.40 48.26 49.55 50.79 50.06 48.71 48.42 47.85 46.06 43.19 40.00 39.52 39.91 39.74 39.10 41.25 44.01 45.48 46.03 46.26 46.49 47.47 54.02 56.30 50.67 49.08 45.18 39.60
32.20 36.56 33.81 34.86 34.47 43.70 46.77 45.30 47.07 47.37 45.52 45.10 45.49 45.85 45.82 45.25 45.59 46.91 47.04 48.84 47.66 46.51 44.33 43.77 42.53 40.22 37.86 37.96 37.09 36.28 37.08 40.07 39.78 38.54 36.96 36.79 37.36 39.27 42.93 44.45 43.25 41.57 40.57 37.81
39.54 41.68 38.02 37.83 41.05 43.00 44.03 46.10 46.71 46.55 45.86 45.87 45.44 45.18 44.71 43.36 44.27 44.26 45.75 43.60 42.95 42.33 39.73 38.84 38.30 35.42 34.95 35.59 34.93 34.23 35.05 38.15 36.87 35.10 34.04 33.58 32.52 31.98 32.35 36.42 37.12 36.40 34.93 33.85
39.70 40.56 37.94 37.56 39.60 42.00 42.32 42.96 44.43 44.61 44.58 43.91 44.23 43.47 41.80 41.50 40.25 40.17 41.01 38.27 37.81 36.88 35.29 34.92 32.10 32.06 31.10 31.38 31.71 32.63 33.98 35.37 34.70 33.29 32.80 31.52 30.85 30.00 29.08 28.88 30.13 31.27 32.16 33.64
41.12 37.61 35.88 36.06 40.78 41.23 39.65 41.80 42.86 41.58 40.90 41.60 41.58 40.55 40.32 38.18 36.02 35.57 33.46 31.91 31.18 30.24 29.56 28.95 28.28 27.86 27.60 28.10 29.02 30.08 32.46 33.15 32.95 31.18 30.41 30.04 29.61 29.14 28.41 27.56 27.20 30.55 30.30 30.94

GFSCGP_sfc_wetblb_081.txt.gz
Wetbulb
40.93 34.68 32.67 36.67 41.45 42.98 41.88 40.14 39.18 42.23 46.07 46.03 45.15 42.87 44.19 46.17 46.27 46.68 47.63 48.30 51.31 54.18 56.31 57.81 58.19 57.37 58.63 59.17 59.21 58.99 59.51 60.13 60.36 59.14 58.08 57.36 57.86 58.74 59.07 59.28 58.95 59.40 60.04 60.22
37.69 33.81 39.16 41.51 41.89 40.43 39.13 37.41 37.89 42.25 45.64 45.03 44.39 44.26 45.26 45.09 46.23 46.44 48.84 48.69 50.08 54.36 55.14 57.07 57.16 56.59 58.46 58.45 58.56 57.67 58.60 59.72 59.73 59.71 58.91 58.39 58.21 58.95 58.96 58.93 57.60 59.31 58.99 58.94
36.61 40.18 43.72 42.72 40.23 39.12 39.01 38.10 38.71 38.94 43.70 45.82 44.59 41.97 43.47 45.86 46.71 47.90 47.82 50.76 51.30 54.35 54.85 56.67 56.74 56.24 57.64 58.03 58.13 57.83 58.12 58.96 59.30 59.88 59.60 58.95 58.83 58.75 58.45 58.26 57.68 58.34 58.42 58.61
39.71 44.46 43.24 40.62 39.58 39.66 34.75 41.93 42.23 41.60 40.02 35.38 43.54 33.70 42.47 43.65 45.29 47.55 48.63 46.59 47.10 51.79 56.55 57.30 57.02 55.74 56.51 57.40 58.51 58.45 58.71 58.39 58.91 59.80 58.80 58.02 57.01 56.13 57.82 57.59 57.06 57.71 58.12 58.28
36.96 39.93 38.89 38.07 39.44 41.65 37.75 43.15 42.02 40.92 39.55 39.23 39.85 37.05 40.68 44.72 42.83 45.34 47.74 48.31 47.42 48.90 56.08 56.94 57.29 56.82 57.03 57.38 57.15 57.65 58.77 59.16 59.47 59.47 59.19 57.96 57.28 57.52 57.78 57.92 56.63 56.64 56.98 57.71
37.93 42.55 41.67 40.76 43.86 43.70 44.59 41.49 41.20 40.13 38.81 33.35 37.11 36.74 36.99 41.47 44.36 46.33 47.84 48.64 48.90 49.16 55.74 57.75 58.56 58.17 57.11 57.32 56.78 57.43 57.46 58.42 59.00 59.23 59.25 58.19 57.44 57.14 56.69 56.75 56.60 56.13 56.42 55.14
35.45 37.65 41.96 44.79 39.68 42.63 40.55 37.97 32.16 30.34 30.82 29.21 39.65 36.76 39.44 45.29 48.10 48.50 48.99 48.03 49.42 50.25 54.12 56.95 57.25 57.49 57.26 56.61 56.34 56.92 56.73 56.39 58.87 58.73 59.09 58.88 58.21 57.69 57.00 56.98 56.68 56.25 56.12 55.59
28.57 27.18 37.61 43.42 39.47 37.35 38.06 36.83 32.42 26.38 27.69 31.78 40.38 34.40 39.00 47.14 49.50 49.42 49.05 48.98 49.89 50.32 53.82 57.22 57.75 57.90 57.60 56.93 56.63 56.87 56.51 57.04 57.27 58.88 58.69 58.67 58.99 58.19 57.90 57.85 57.51 56.87 56.87 56.61
30.10 31.10 39.79 41.83 41.91 41.14 37.01 33.33 39.42 33.71 35.77 32.44 36.24 40.94 45.66 47.51 48.35 48.05 47.88 48.94 48.98 51.05 53.29 57.07 58.04 58.12 58.03 56.89 56.96 57.44 56.58 56.97 57.56 57.50 58.14 58.31 57.80 57.74 57.56 58.19 58.19 57.90 57.63 57.50
37.10 30.74 39.78 41.08 42.32 42.29 39.17 42.19 34.21 34.10 27.56 27.19 34.40 36.96 38.90 44.00 45.23 47.40 46.98 47.26 48.48 50.40 51.94 53.48 57.98 58.06 58.63 57.84 57.41 57.32 57.32 56.75 57.76 57.94 58.11 58.99 58.53 58.49 58.56 58.48 57.63 57.95 57.68 56.32
40.54 35.94 35.64 39.31 38.13 37.11 37.73 35.90 37.13 37.55 35.06 31.76 30.29 35.60 45.38 44.10 46.87 47.43 47.64 48.64 49.59 49.59 50.81 52.95 54.57 58.67 59.03 58.65 57.54 56.91 57.23 56.91 57.04 57.83 57.98 57.91 59.13 59.63 59.69 58.85 58.66 58.68 58.60 57.30
40.15 35.80 30.71 33.81 40.94 43.39 41.79 38.14 37.68 33.25 32.86 35.32 35.15 34.78 47.91 47.94 48.42 48.17 47.70 48.79 50.11 49.88 50.03 51.53 53.17 57.55 58.20 58.65 58.02 57.26 57.13 57.06 57.53 58.01 57.63 57.28 57.62 58.20 58.69 58.94 58.64 59.01 58.55 58.44
38.58 33.86 29.04 32.78 38.43 42.28 38.08 39.96 40.20 38.85 38.02 34.12 31.92 35.93 47.65 47.63 47.46 48.46 48.28 48.72 50.23 51.18 51.39 51.48 52.44 53.48 55.38 57.94 58.77 58.10 57.47 56.97 57.66 58.14 57.85 57.31 57.13 57.27 57.25 57.64 58.01 58.97 58.89 58.84
40.03 35.11 32.62 29.36 34.79 37.27 35.89 37.95 39.35 38.29 34.50 33.96 36.00 37.82 42.81 44.90 45.34 47.22 48.21 49.61 50.26 50.31 50.94 51.23 51.42 52.91 53.92 54.97 57.24 58.84 58.71 58.61 58.07 57.75 58.08 57.67 57.64 57.66 57.89 58.09 57.86 58.31 58.50 58.08
37.20 31.39 35.43 35.93 37.83 38.15 38.09 38.06 38.57 37.50 37.77 34.73 37.78 38.78 43.36 45.12 46.39 47.49 49.06 49.97 49.82 50.16 50.72 51.23 51.33 52.55 54.04 54.74 55.67 56.74 57.32 59.49 59.12 58.16 57.18 57.65 58.27 58.82 58.65 58.52 58.43 58.86 58.79 58.67
39.03 30.90 34.39 32.69 37.15 37.10 35.89 38.61 38.53 37.45 38.67 38.81 39.31 38.57 45.91 47.33 48.15 47.85 48.32 49.06 48.84 49.37 50.18 51.16 52.49 53.39 53.63 52.70 52.19 53.47 54.93 56.37 59.84 58.68 58.23 58.44 57.79 58.30 58.18 58.27 58.10 58.09 58.64 58.82
36.35 33.41 31.26 27.45 35.27 35.94 30.51 35.55 38.32 39.35 41.12 39.95 36.08 41.56 46.25 46.10 46.38 46.34 47.14 47.66 47.45 48.53 50.34 51.36 51.07 50.66 50.04 48.88 49.35 49.19 51.84 55.05 56.06 57.20 59.08 59.23 58.61 57.91 58.26 58.58 58.29 57.76 57.69 58.01
34.36 33.53 31.77 26.62 30.42 23.57 36.55 43.10 42.60 39.89 41.23 42.13 42.18 43.90 45.18 45.29 46.31 46.97 47.10 46.60 47.58 49.63 49.89 49.30 48.48 47.31 46.30 45.89 45.67 47.59 51.34 50.29 50.82 51.04 52.87 55.75 58.81 58.45 58.07 57.96 58.01 58.06 58.03 57.23
37.32 33.19 26.34 24.85 25.87 31.84 35.38 40.21 38.78 37.04 37.18 43.37 41.91 44.44 44.77 45.99 45.33 44.65 47.80 48.34 48.52 48.90 48.93 47.76 46.53 44.37 43.07 42.15 43.12 45.82 46.77 46.49 46.68 46.98 48.92 52.62 51.85 51.84 57.35 57.38 57.34 58.01 57.90 57.36
36.65 35.10 29.13 26.05 25.68 20.89 33.77 41.43 44.76 43.82 32.88 43.34 44.12 43.09 42.53 43.97 37.20 40.59 47.60 48.26 46.86 46.90 47.07 45.25 43.63 41.42 40.21 40.04 40.87 42.05 42.17 42.94 43.14 45.13 46.95 47.59 46.83 46.79 47.40 54.31 58.14 58.46 58.10 57.43
29.20 28.56 27.18 26.07 25.89 30.45 39.73 43.16 45.19 32.01 34.19 43.14 43.22 42.89 42.41 40.27 42.19 45.27 47.87 45.94 44.59 43.64 42.60 44.04 41.80 38.60 38.18 38.85 38.40 38.49 38.65 37.33 40.77 42.70 42.89 41.99 40.89 41.39 43.02 45.10 53.13 57.16 57.17 56.21
29.39 27.33 26.18 27.31 23.89 22.54 41.86 42.48 36.56 40.52 42.84 42.93 42.87 42.84 42.07 43.05 43.77 44.47 43.39 41.91 40.17 38.81 37.96 39.08 36.97 36.85 36.29 36.67 35.79 35.49 35.06 36.38 39.25 39.33 38.12 37.12 36.53 35.74 36.52 39.12 42.40 45.13 49.60 44.74
30.53 33.84 29.88 31.05 29.90 40.63 43.60 43.11 44.65 44.85 42.96 42.81 42.33 42.49 43.10 41.33 40.94 41.61 39.64 38.72 36.63 35.10 34.48 35.01 34.93 34.09 33.42 32.88 33.39 31.62 33.11 35.30 37.25 35.87 34.61 33.40 33.28 32.05 32.10 32.03 33.65 38.15 40.25 39.99
37.73 39.48 35.94 34.61 39.00 40.48 41.37 42.90 43.21 43.27 41.94 42.61 42.17 41.06 40.46 37.93 37.74 36.98 35.19 34.58 33.31 31.41 31.37 32.05 31.31 29.71 28.62 30.02 30.52 30.56 32.22 34.29 35.38 33.00 32.23 30.99 29.78 29.81 29.79 30.15 30.66 30.84 31.38 35.13
37.55 39.20 36.18 36.57 39.06 40.46 39.61 40.21 40.93 41.19 41.66 41.74 40.38 38.60 36.99 35.92 34.30 33.15 30.87 30.55 29.92 29.13 29.13 28.58 27.58 27.22 26.83 28.47 28.86 29.89 31.47 32.26 32.92 30.93 30.35 29.80 28.54 28.68 28.25 28.63 28.80 29.12 29.86 31.15
38.08 35.59 35.66 32.40 36.91 37.67 36.79 39.05 40.21 38.26 37.77 36.34 36.58 33.15 32.23 32.67 31.08 30.74 28.10 27.57 26.90 25.96 26.03 25.78 25.70 26.22 27.06 27.98 28.15 28.96 30.79 30.15 29.72 28.29 28.18 27.69 27.71 27.23 27.10 26.90 26.53 30.22 30.25 31.01

GFSCGP_sfc_wetblb_087.txt.gz
Wetbulb
38.61 33.24 29.62 33.80 38.15 39.05 38.10 35.57 33.78 36.09 41.04 40.84 39.48 39.78 41.87 43.68 42.75 43.58 43.79 43.29 44.64 44.58 49.28 53.72 58.73 59.82 60.41 60.87 60.41 59.65 58.68 57.54 56.96 56.96 57.32 57.98 58.14 59.53 60.15 61.19 61.72 62.05 61.61 59.08
34.95 30.34 36.72 37.45 37.62 37.72 37.56 35.06 33.29 36.54 40.01 40.79 38.65 38.78 42.61 43.39 45.13 44.48 45.56 45.61 46.75 45.73 50.48 54.33 57.54 59.21 59.90 59.84 59.34 59.32 59.11 57.69 57.02 57.45 57.36 57.55 58.29 59.00 59.57 60.20 60.99 61.99 61.64 59.49
32.66 35.98 38.97 37.14 35.69 34.89 33.55 32.04 32.40 33.90 39.33 39.34 39.29 37.07 39.91 44.20 44.51 45.72 47.04 46.08 45.52 46.79 50.59 53.85 56.59 58.06 59.13 58.87 58.36 58.41 59.04 58.68 57.65 57.47 58.16 58.41 57.22 58.36 57.98 58.14 59.31 59.61 61.12 60.50
35.57 39.90 37.98 35.00 34.86 35.35 30.78 37.77 37.85 37.25 35.05 29.06 39.15 28.35 37.85 41.77 43.28 45.35 46.68 46.26 45.26 46.11 52.52 53.94 55.69 56.48 57.83 58.81 58.82 58.18 58.57 58.47 58.71 58.19 57.21 57.35 56.17 55.86 57.29 57.71 58.33 58.74 59.02 60.11
35.53 37.60 36.64 35.99 37.03 39.08 35.92 41.06 39.35 38.52 34.50 33.71 34.39 31.66 34.15 40.89 40.21 43.61 45.37 46.51 46.23 44.81 52.23 53.32 55.30 56.46 57.29 58.51 57.54 57.11 57.88 58.05 58.30 58.31 57.98 57.40 56.87 56.69 56.88 57.67 57.39 58.11 57.76 58.23
36.42 38.46 38.74 39.05 41.48 40.48 42.57 38.83 37.89 37.91 35.20 26.79 31.79 32.33 31.97 35.62 39.74 43.70 46.87 47.72 46.87 44.28 51.53 54.16 55.30 56.54 56.36 57.36 56.91 56.36 56.88 58.06 58.00 57.96 58.46 57.53 57.14 56.25 56.20 56.16 55.90 56.52 57.45 57.21
32.40 33.26 39.31 42.70 38.32 40.92 38.58 32.76 21.60 22.12 27.22 24.44 34.53 32.43 33.72 40.69 43.84 45.56 46.71 47.63 48.10 46.08 49.38 53.18 53.15 54.73 55.98 55.89 55.91 56.87 56.59 56.14 57.63 58.61 58.35 57.71 57.43 57.15 56.15 55.69 55.34 55.70 55.98 55.90
25.95 25.45 36.49 41.42 38.23 35.94 36.02 33.13 23.63 21.01 25.15 28.69 35.57 29.69 34.56 44.50 46.91 47.35 48.28 48.44 49.03 47.94 47.30 53.05 53.86 54.91 55.48 56.05 56.20 56.18 55.93 55.61 56.08 56.98 57.82 58.08 58.06 57.77 56.57 56.41 55.72 54.63 55.36 56.01
27.56 28.50 36.07 40.40 40.05 39.66 36.02 31.55 36.37 30.65 30.74 28.74 32.32 35.92 40.88 46.19 46.31 47.12 46.83 46.47 45.23 46.93 46.75 52.83 54.23 54.92 55.56 55.82 56.07 56.41 55.75 55.75 56.12 56.04 56.97 57.68 58.25 57.78 56.98 56.85 56.23 55.18 54.88 55.81
34.98 28.53 36.70 37.81 39.96 39.27 36.92 39.27 30.28 34.08 24.37 23.22 29.78 32.00 36.71 41.82 43.43 45.69 45.24 45.15 46.03 47.10 49.56 53.47 53.78 54.70 55.76 56.21 56.21 56.65 56.49 55.97 56.02 56.58 57.48 57.39 57.43 57.96 57.89 57.73 56.81 56.78 55.32 54.74
37.65 34.38 33.27 36.91 34.06 33.00 34.24 33.59 34.78 34.90 33.78 28.40 24.91 32.77 44.26 43.03 43.72 44.44 45.70 46.68 46.79 47.69 50.74 53.36 53.93 54.60 55.31 55.65 55.95 55.99 55.88 55.84 56.10 56.37 56.91 57.03 57.26 57.98 58.08 57.64 57.60 57.89 57.20 55.62
36.78 33.82 28.88 32.06 38.65 39.33 36.45 34.94 35.49 30.50 29.71 34.42 32.36 32.14 46.04 43.83 44.19 45.68 46.17 47.26 48.39 50.27 51.95 53.40 54.63 54.84 54.60 54.67 55.08 55.14 55.58 55.16 55.54 56.35 56.49 56.19 57.05 57.92 58.05 57.67 57.90 58.06 57.49 57.66
35.99 31.70 26.32 28.93 34.38 38.74 35.79 38.15 38.27 38.09 36.43 31.88 28.47 31.75 44.00 44.23 43.97 45.81 45.64 47.43 49.14 49.71 49.58 50.35 51.66 53.10 54.42 54.90 55.61 56.05 55.72 55.50 56.33 56.29 55.96 56.09 56.11 56.59 57.34 57.56 57.73 57.77 57.81 57.93
38.64 32.36 29.26 23.08 28.03 35.49 33.46 36.60 37.53 36.88 32.36 33.02 33.18 35.00 41.22 41.74 42.67 44.91 46.67 48.16 49.26 48.74 47.98 47.82 47.59 48.91 49.67 51.30 52.97 54.10 55.54 56.65 56.78 56.81 56.33 55.82 56.02 56.33 56.83 57.14 57.56 57.41 57.81 57.82
34.92 28.03 30.21 32.09 34.05 34.55 34.23 34.42 35.52 34.36 35.99 33.22 35.37 36.40 40.66 43.52 44.43 45.53 47.72 48.39 48.10 46.26 45.91 45.95 45.15 45.59 46.80 47.56 49.20 49.57 50.16 51.14 55.04 56.52 57.09 56.75 56.95 57.28 57.86 57.64 57.56 57.69 57.55 57.55
36.21 29.23 29.64 28.21 33.02 32.99 31.38 33.84 35.00 36.50 37.65 37.43 37.28 37.21 43.05 46.00 48.24 46.75 47.13 48.32 45.81 44.65 43.97 43.58 42.92 42.60 42.17 42.95 44.98 45.64 46.51 47.51 49.57 50.59 53.10 55.71 57.06 57.09 56.96 56.87 57.06 57.11 57.45 57.10
32.63 30.76 28.34 25.84 30.41 30.01 26.18 31.54 32.48 37.49 39.14 37.85 34.61 39.48 44.24 44.52 44.49 45.38 46.92 47.49 44.43 43.22 42.30 41.29 40.14 39.73 39.76 40.77 42.36 41.49 42.41 43.63 43.59 44.17 45.99 46.59 47.59 48.93 49.92 53.16 56.62 56.45 56.24 56.65
31.22 30.98 29.72 25.27 27.31 18.64 30.96 36.95 37.52 35.97 40.23 40.58 40.83 42.22 44.84 43.62 44.44 46.96 48.75 44.68 42.62 41.43 40.49 39.26 38.64 38.15 38.48 39.50 39.88 40.02 40.32 40.59 40.36 39.86 40.14 41.62 42.50 43.54 45.57 47.06 46.87 48.08 51.19 56.35
34.70 30.22 24.76 22.89 23.46 26.99 30.56 34.47 35.02 35.27 34.49 40.89 39.07 42.63 43.80 42.77 41.41 39.61 42.61 41.99 40.45 39.39 38.50 37.43 36.61 36.17 36.13 37.58 38.97 38.76 38.37 38.67 38.14 37.27 36.75 37.43 37.47 39.20 40.40 40.01 40.73 43.43 44.96 47.63
33.69 32.09 27.14 23.51 21.60 15.79 28.38 37.19 41.77 41.19 30.68 39.80 42.43 42.60 42.37 43.26 36.76 35.93 38.09 38.61 37.54 37.82 36.64 35.37 34.67 33.69 33.15 33.77 37.68 37.74 36.94 37.23 35.61 35.35 34.27 34.33 33.49 34.90 34.86 35.88 37.26 38.70 41.09 43.24
26.96 27.24 26.06 24.43 23.63 25.92 34.33 39.37 41.86 29.69 31.13 40.02 40.91 40.66 41.59 36.75 38.32 36.77 37.05 35.58 35.77 35.52 35.15 35.46 33.04 30.88 30.81 31.98 33.93 33.36 34.41 34.66 35.42 33.64 32.53 31.56 31.29 32.27 32.31 33.21 34.55 35.81 37.13 39.59
26.12 24.66 23.52 25.63 24.18 21.50 39.55 39.23 32.33 36.26 39.69 40.03 40.70 39.42 37.50 36.58 35.97 34.46 33.48 32.41 31.74 30.65 30.90 31.31 30.11 28.73 29.36 30.18 31.18 31.05 31.15 34.08 34.93 32.92 30.26 30.02 29.98 30.76 31.34 30.95 31.12 32.14 34.54 34.31
23.11 29.82 29.99 29.69 27.45 38.23 39.72 38.85 40.65 41.78 39.91 40.12 39.75 39.70 38.07 35.68 33.72 32.97 30.58 29.42 28.77 28.17 27.88 28.47 27.85 27.47 27.92 28.52 29.38 28.52 29.64 33.00 32.03 30.77 29.04 28.96 28.39 29.13 29.97 29.26 28.88 29.25 30.73 30.97
33.10 35.29 31.42 33.48 37.17 37.54 38.17 37.64 38.52 37.17 34.63 35.58 36.82 36.55 36.29 33.31 32.52 30.70 29.32 27.81 26.65 26.13 25.69 26.60 27.23 26.70 26.31 27.76 28.11 28.81 29.10 31.77 30.14 29.08 28.43 27.97 26.96 27.41 27.20 28.38 29.04 28.61 28.35 27.84
34.27 34.21 33.45 32.74 34.98 36.02 36.68 37.72 35.87 35.07 34.79 32.73 30.90 31.12 31.87 30.79 28.83 28.06 26.60 25.66 24.70 24.47 25.07 25.63 25.16 24.97 25.08 27.16 26.95 28.13 28.43 28.78 28.40 27.35 27.72 27.15 27.28 26.05 25.82 25.58 25.28 26.25 27.83 28.97
33.58 29.92 28.80 28.44 32.04 32.55 32.00 35.76 35.60 32.31 30.31 29.74 28.95 26.43 26.61 27.40 26.57 25.72 24.08 23.95 23.56 22.81 23.64 23.58 23.84 23.62 23.80 23.99 24.66 25.48 27.42 27.26 26.67 25.48 25.27 25.02 24.62 23.40 23.75 23.71 23.24 26.34 25.96 27.41

GFSCGP_sfc_wetblb_090.txt.gz
Wetbulb
38.24 32.71 28.81 32.51 36.36 37.65 36.52 34.51 33.30 33.90 39.96 37.19 37.02 38.21 39.12 41.75 40.81 40.97 41.97 42.99 43.70 44.53 46.27 46.10 52.38 58.22 58.99 60.43 60.77 59.88 57.81 56.98 57.44 57.40 56.68 57.35 58.11 59.74 60.62 61.47 62.07 62.39 60.95 59.17
34.53 30.40 35.57 37.57 37.19 36.58 35.97 34.03 32.59 35.96 38.29 39.00 36.67 37.21 39.16 40.67 42.39 42.77 42.97 43.09 44.26 44.57 46.22 51.09 56.14 57.88 58.93 60.04 60.46 59.82 58.41 56.90 56.74 57.20 57.32 55.96 58.80 59.32 59.89 60.80 61.32 62.14 60.38 58.93
33.16 35.92 38.77 36.77 34.68 33.23 32.59 31.74 31.40 32.73 36.84 36.91 37.24 35.31 38.07 40.70 42.07 43.46 43.84 45.30 45.46 45.38 45.23 51.54 55.82 57.40 59.23 59.66 59.81 59.20 58.85 57.82 56.93 57.27 57.33 57.32 58.23 58.59 58.19 59.10 60.16 60.93 59.87 58.99
34.44 38.58 36.87 34.03 33.50 34.24 29.39 35.75 35.72 35.99 32.57 26.77 36.62 26.10 35.45 39.05 40.30 41.47 44.10 44.38 46.39 46.27 46.87 51.36 55.27 57.36 58.21 59.47 59.94 59.58 58.99 57.59 57.00 57.41 57.09 56.49 56.15 55.44 57.34 58.15 59.07 59.72 59.64 58.29
34.68 36.92 35.48 33.24 34.60 36.61 34.11 39.74 38.05 37.89 33.09 31.90 32.11 27.70 30.11 37.05 36.60 39.25 41.73 45.12 45.57 46.08 45.83 50.89 54.80 56.80 58.19 59.67 58.79 58.80 58.70 57.90 57.67 57.05 56.99 56.07 55.31 55.10 57.64 57.87 57.93 58.09 58.69 58.50
36.13 37.25 37.49 37.79 41.21 39.95 42.30 38.06 37.64 36.72 33.77 24.91 30.75 29.41 28.69 31.53 35.40 41.59 45.48 45.52 46.62 46.42 44.80 50.38 54.38 56.71 58.01 59.16 58.00 57.93 57.79 57.43 57.58 57.11 56.92 56.27 55.94 54.85 56.40 56.94 56.86 57.47 57.33 58.37
31.32 32.28 37.82 41.99 38.10 40.31 37.24 32.65 22.02 19.53 25.48 22.03 32.46 29.65 31.98 37.86 41.58 45.32 44.58 45.08 45.78 46.14 44.40 48.50 53.06 54.93 56.51 57.54 56.34 56.91 56.81 56.28 57.26 56.94 56.69 56.27 56.40 56.40 55.63 56.42 56.60 56.68 56.78 56.70
24.53 23.20 34.76 40.31 36.90 35.31 34.62 32.68 25.13 19.70 23.93 26.61 33.62 28.73 32.17 42.12 46.38 47.30 47.77 46.98 46.16 44.91 44.21 49.03 52.88 54.89 55.72 56.90 56.05 55.72 56.02 56.06 56.91 56.53 56.49 56.76 55.98 56.81 56.96 56.67 56.40 56.13 56.72 57.11
25.59 26.30 34.96 39.70 39.31 38.12 35.25 30.41 34.84 28.56 29.45 24.49 28.04 33.80 38.89 44.44 43.80 44.78 45.57 46.63 46.59 47.68 46.19 46.66 52.75 54.91 55.27 56.11 56.13 55.67 56.20 56.05 56.18 56.83 56.78 56.82 57.20 55.75 56.92 56.63 56.70 56.20 54.67 56.53
33.68 27.57 35.57 37.40 39.29 39.60 36.32 38.48 28.26 31.65 24.60 22.94 27.36 29.57 32.20 38.86 41.99 43.80 44.27 45.14 47.59 49.59 48.80 47.12 52.85 54.46 55.31 55.98 56.42 56.60 56.61 55.93 55.12 55.89 56.42 56.87 56.89 56.74 57.04 56.54 55.33 54.25 53.97 54.84
36.81 33.20 32.20 35.70 33.69 33.23 34.51 32.94 33.61 33.27 31.02 25.83 23.31 27.50 41.33 40.43 43.56 43.21 44.53 46.52 48.06 48.27 52.17 52.14 53.21 54.98 55.52 56.26 56.16 55.72 55.70 55.66 55.75 55.79 56.22 56.30 56.92 56.67 57.62 57.01 55.48 54.93 53.96 53.90
36.79 33.61 29.42 32.24 37.95 38.71 36.46 34.68 34.44 26.19 25.45 32.28 31.18 28.78 43.68 44.19 45.24 45.42 44.54 46.69 48.36 47.67 49.82 53.10 53.45 53.91 54.05 54.95 55.41 55.48 55.62 54.96 55.88 56.39 56.50 56.14 56.31 56.28 57.15 57.22 57.34 57.01 55.81 54.58
35.28 31.55 25.40 30.32 34.47 36.99 35.54 37.09 38.16 37.08 34.43 30.53 27.36 28.11 43.32 44.40 44.35 45.11 44.56 47.35 46.38 46.42 46.85 48.24 50.21 52.96 53.78 54.16 54.76 54.80 55.22 55.32 56.28 56.37 56.12 56.04 55.79 55.44 55.91 57.38 57.66 57.72 57.45 57.23
39.12 32.33 28.44 23.80 26.93 33.96 32.61 35.42 36.86 35.37 29.87 31.36 32.13 32.81 38.59 42.28 42.92 44.30 46.23 47.66 44.85 43.84 43.92 44.99 45.32 46.49 48.83 49.93 51.36 52.36 53.24 56.80 56.20 56.04 55.76 55.76 55.82 55.72 55.62 56.24 57.45 57.51 57.76 57.32
35.02 27.85 30.78 31.47 32.22 33.07 32.29 32.05 33.63 33.67 33.79 30.42 31.51 34.02 38.06 41.07 43.84 45.14 46.76 45.53 43.20 42.14 41.33 41.10 40.87 42.34 44.16 45.37 46.98 48.30 49.21 51.50 57.28 57.14 56.50 56.06 55.87 55.96 56.24 55.98 56.50 57.31 57.07 56.55
35.77 28.69 29.57 28.42 31.75 30.71 28.36 31.13 31.29 32.20 33.76 34.80 36.00 35.43 42.82 44.79 46.28 45.91 46.71 44.37 42.38 41.29 40.44 39.66 39.13 39.56 40.06 40.79 41.70 42.78 43.04 44.42 46.82 47.64 47.72 48.13 49.55 54.48 55.43 56.78 56.99 56.91 56.77 57.07
32.19 29.82 27.00 24.67 29.21 28.31 24.55 28.52 29.94 30.62 36.70 36.28 32.48 37.68 43.47 42.63 44.46 45.39 44.21 42.93 41.71 40.62 39.25 38.41 37.75 37.74 38.40 39.01 39.81 39.67 40.38 41.09 40.76 41.41 42.07 43.11 44.92 45.95 46.26 47.89 47.82 48.81 51.39 56.16
31.06 29.88 28.68 24.90 27.13 16.47 29.03 34.14 33.93 33.66 35.53 39.38 39.23 39.58 43.50 41.65 40.72 42.01 43.46 40.99 39.12 38.21 37.26 36.65 35.92 35.96 36.42 38.70 39.10 39.37 39.24 38.44 37.64 37.00 36.69 37.18 39.27 40.70 41.55 42.05 42.37 43.43 44.94 46.67
33.65 29.64 24.60 21.95 22.92 25.67 29.35 33.09 33.74 31.58 31.73 37.90 38.16 40.55 43.55 40.69 39.42 37.53 39.20 39.01 37.35 36.62 36.05 34.45 34.28 33.86 34.16 34.21 38.77 38.61 37.87 36.40 35.31 33.97 33.61 33.60 34.87 35.11 36.07 37.16 37.88 39.46 40.91 42.89
32.28 30.77 26.25 23.65 20.70 14.48 27.08 34.44 39.14 37.51 25.87 38.76 39.33 41.04 41.42 42.58 37.01 34.47 37.34 37.49 36.12 36.03 34.84 32.81 32.34 31.83 31.37 31.87 35.61 36.08 36.11 35.39 32.54 32.32 31.58 32.00 32.50 32.59 32.58 32.99 33.39 36.35 39.00 40.17
26.61 26.92 25.82 24.29 23.10 25.69 33.10 38.21 39.94 25.60 27.05 38.17 38.21 40.82 40.03 35.31 36.96 35.51 35.04 33.13 32.87 32.05 31.30 31.84 30.71 29.10 29.33 30.73 33.36 32.59 33.23 33.36 33.07 31.45 30.94 31.06 31.49 31.73 32.00 31.82 32.72 33.76 35.60 35.65
25.45 23.75 23.18 26.75 23.61 20.02 37.62 37.41 30.25 36.26 39.00 38.71 37.84 36.52 34.45 33.41 32.54 31.74 31.10 29.67 29.02 27.83 28.10 28.75 28.14 27.98 28.92 29.88 30.53 30.02 29.68 32.72 32.17 31.02 29.20 29.41 30.10 30.76 30.93 30.53 30.74 31.66 31.97 31.70
21.77 29.82 29.07 28.96 27.45 36.91 37.48 35.80 37.34 38.41 36.12 37.35 37.10 36.37 34.70 32.87 31.24 30.76 28.88 27.41 26.48 26.15 26.27 28.38 27.86 27.54 27.84 28.54 28.72 27.42 28.55 31.25 30.42 28.93 27.78 27.57 27.12 27.29 28.85 28.53 28.35 29.07 29.09 28.44
29.96 34.93 30.97 31.33 33.29 35.10 36.56 36.87 35.10 34.29 32.84 33.85 34.42 34.04 34.47 31.88 31.01 28.69 27.38 26.22 25.26 25.50 25.54 26.42 25.95 25.08 25.51 26.95 27.01 27.69 28.19 30.56 29.44 27.36 26.74 27.09 25.76 24.77 25.02 26.09 26.84 27.02 27.50 26.70
31.25 33.19 29.42 32.24 32.95 34.72 33.59 34.23 35.10 33.55 32.47 29.59 28.86 29.23 29.23 28.40 26.50 25.73 24.59 24.05 23.77 24.01 24.47 24.83 24.18 23.72 23.11 24.23 24.64 25.40 27.14 28.18 27.06 26.73 26.28 25.46 25.33 25.35 24.13 24.50 24.72 25.47 26.95 27.61
31.57 28.55 25.41 27.26 30.79 31.68 29.58 31.66 32.33 29.22 27.98 28.58 27.54 25.43 25.68 25.97 24.51 24.10 22.76 22.84 22.45 21.98 22.60 22.26 22.79 22.69 21.82 21.83 21.58 22.36 24.52 26.12 26.16 24.76 23.96 22.86 22.67 22.29 22.20 22.03 21.94 25.60 25.79 26.77

GFSCGP_sfc_wetblb_093.txt.gz
Wetbulb
40.04 35.96 33.88 36.79 39.28 39.29 39.68 38.39 37.94 40.10 43.26 41.62 42.15 42.49 44.70 46.15 46.99 46.23 47.61 48.64 49.50 50.55 53.07 53.67 53.91 54.50 59.81 62.39 63.25 63.56 60.29 60.27 59.94 58.30 58.28 59.50 60.16 61.27 62.41 62.96 63.81 62.68 61.09 59.86
36.08 33.56 38.11 39.55 39.47 39.07 38.81 37.16 37.12 40.21 42.21 41.02 41.24 40.66 43.66 44.66 45.54 47.12 47.65 48.45 49.05 50.04 51.47 52.56 54.87 56.71 59.39 61.18 62.80 62.08 59.65 59.62 59.51 59.60 59.98 59.88 59.61 60.61 61.31 62.00 62.31 61.85 60.11 59.45
33.97 36.49 39.26 37.70 36.43 35.80 36.79 35.91 35.92 36.58 39.67 41.21 40.45 38.19 41.59 44.68 45.74 46.81 47.43 48.76 49.56 49.78 50.78 52.34 55.29 58.03 59.85 60.62 61.93 60.91 59.77 59.44 59.23 59.59 59.66 60.14 60.31 59.74 60.22 60.98 61.88 61.44 60.15 59.38
35.64 39.90 37.32 36.17 35.41 36.76 32.29 38.00 37.71 36.55 36.24 31.72 40.33 30.33 38.51 41.77 42.62 43.84 45.70 48.29 49.36 49.75 51.36 52.20 54.63 58.07 59.31 60.75 62.48 61.15 59.86 59.30 59.20 59.10 58.33 59.13 57.72 57.07 59.11 60.01 60.76 60.57 60.05 59.45
36.25 37.27 35.60 33.54 35.55 38.02 35.17 39.06 37.70 38.99 36.83 35.90 35.50 32.71 35.95 39.94 38.87 43.88 48.07 49.69 50.28 51.20 51.19 51.93 53.96 57.48 59.98 61.50 62.10 60.85 60.17 59.14 58.47 57.96 58.37 58.27 57.65 58.38 59.96 59.82 59.43 59.97 60.12 59.46
38.47 41.01 40.24 38.68 41.33 39.18 42.73 40.24 39.42 39.04 36.74 28.97 33.30 32.60 33.28 37.52 39.03 43.79 47.71 49.17 49.83 50.84 51.43 51.97 54.09 57.96 59.64 61.45 61.71 60.59 59.84 58.80 58.78 57.89 58.35 58.72 56.92 56.95 59.05 58.83 58.14 58.49 58.01 58.35
34.23 35.26 41.66 43.46 39.02 41.73 39.22 35.75 29.31 26.48 27.01 26.74 34.21 32.84 35.18 41.54 45.50 45.63 46.01 47.88 49.76 51.80 52.94 52.45 51.56 56.59 58.86 59.85 59.53 59.81 59.13 57.76 57.96 57.66 57.85 57.83 57.04 58.35 59.47 58.80 58.25 58.04 57.14 57.40
28.57 26.50 37.03 41.65 40.05 37.66 36.59 36.44 29.75 22.49 24.94 28.70 34.96 29.36 36.19 45.48 47.10 48.15 48.62 48.95 49.79 51.31 52.47 53.96 52.51 55.91 58.58 59.78 59.08 58.75 58.31 57.50 57.49 57.55 57.53 57.83 57.82 59.57 59.88 59.38 58.68 58.98 57.72 57.84
28.49 28.68 39.04 40.73 41.65 41.18 36.48 33.32 36.94 31.43 31.28 28.34 30.97 34.99 41.16 44.90 45.78 47.17 47.11 47.73 48.15 50.29 51.32 53.47 55.33 55.80 58.18 59.50 59.20 58.00 57.62 57.72 57.34 57.52 57.50 57.34 58.12 59.40 59.30 58.80 59.00 58.12 58.73 58.34
34.15 29.79 36.85 39.08 41.79 41.31 38.85 40.30 31.64 32.44 24.47 22.54 29.41 31.58 34.58 41.13 42.85 45.50 46.10 46.22 47.25 48.69 49.51 53.74 55.42 54.53 57.93 59.44 58.55 57.72 57.63 57.39 57.28 57.73 57.37 57.35 57.94 58.38 59.28 59.41 58.47 57.38 57.37 58.55
38.65 35.90 33.87 38.03 35.61 35.23 36.12 34.83 35.18 35.13 32.10 26.52 24.84 30.69 43.38 42.63 44.37 45.16 46.44 45.75 45.73 46.37 47.56 53.36 55.50 56.50 57.62 58.67 57.10 56.89 57.35 57.33 58.73 58.01 58.12 59.13 58.42 58.26 58.51 58.15 57.98 57.26 57.95 58.86
38.50 36.22 30.80 33.04 39.11 40.88 39.04 36.14 35.75 30.98 27.91 30.98 30.12 30.86 44.81 45.00 45.74 46.49 46.30 46.35 45.00 45.35 46.24 48.31 54.06 56.08 56.25 56.32 56.22 56.29 56.89 56.74 57.61 58.08 57.40 57.79 58.77 57.92 57.98 59.06 58.42 58.97 59.12 59.38
37.52 32.95 30.24 30.73 35.44 38.27 36.09 38.36 39.00 37.20 34.64 29.18 28.42 31.42 44.69 44.99 45.20 46.49 45.64 44.67 43.85 43.64 43.34 44.16 46.06 47.11 53.01 54.99 55.47 55.68 55.87 56.15 56.92 57.03 57.16 57.37 57.35 57.22 57.35 59.42 58.83 58.48 58.66 58.50
40.84 33.81 30.44 26.97 30.00 35.12 32.05 34.08 37.16 36.19 30.00 29.79 31.16 33.24 38.47 41.10 42.53 44.94 44.54 43.95 42.66 42.30 41.90 41.63 42.06 42.59 43.79 45.18 47.13 49.37 53.89 56.78 56.97 56.98 57.00 56.41 56.49 56.85 58.45 59.51 59.53 59.13 59.10 58.65
37.45 30.16 32.51 32.98 34.17 34.89 33.43 32.84 33.74 33.09 34.39 30.52 32.64 33.40 37.99 41.30 43.32 45.47 45.01 43.92 42.18 40.54 40.04 39.40 39.45 39.88 40.35 41.21 42.33 43.72 45.69 49.17 56.38 56.26 55.94 56.62 57.58 58.13 58.85 59.11 59.19 59.21 59.23 59.19
37.46 31.10 32.15 29.33 32.88 32.42 30.48 32.77 32.88 33.50 34.37 34.39 35.34 35.55 43.04 44.70 44.44 45.45 43.62 42.19 40.07 38.67 38.63 37.81 37.22 38.60 38.97 39.29 40.02 40.96 41.16 42.72 43.93 44.64 45.37 47.09 48.54 48.96 49.38 50.68 55.09 57.15 57.33 57.56
33.91 31.94 28.57 25.00 30.70 30.03 25.81 30.52 31.61 32.66 34.58 36.94 33.14 38.79 43.76 40.39 39.35 41.91 41.57 39.98 37.92 36.65 36.17 35.66 35.53 35.07 36.26 39.18 39.54 38.73 38.92 39.42 38.23 37.98 39.50 40.87 42.84 43.26 43.85 45.57 46.19 46.17 47.02 49.40
32.93 31.35 30.41 25.89 28.28 17.96 30.39 36.38 35.81 34.38 36.08 38.79 39.79 41.75 43.56 40.62 38.61 37.41 39.80 38.14 36.59 35.28 34.39 33.79 33.58 34.05 34.57 37.73 38.95 38.88 37.33 36.90 35.89 35.15 35.65 36.87 37.92 38.49 40.08 40.94 41.30 41.64 43.80 45.52
35.63 32.24 27.78 24.06 23.76 27.52 30.55 35.25 34.29 33.10 32.85 38.60 38.33 41.53 42.84 40.23 38.36 34.21 36.97 36.97 35.49 34.34 33.74 32.57 32.73 32.74 33.47 35.56 37.48 37.77 36.66 35.30 33.89 33.29 34.32 34.92 35.86 36.27 37.18 37.53 38.28 39.80 42.10 41.57
33.83 33.84 29.79 26.62 20.64 17.95 29.29 36.26 40.46 39.35 28.48 37.62 39.11 43.04 42.06 41.57 37.05 32.40 33.76 33.31 32.10 32.36 32.30 30.94 31.22 31.42 31.64 33.37 35.54 35.24 34.60 33.10 32.01 32.39 33.31 34.50 34.77 34.41 34.15 35.09 35.78 38.04 38.68 37.27
29.09 29.24 25.85 24.84 23.10 27.20 34.96 38.47 40.04 27.36 29.41 37.20 37.59 36.48 37.87 32.32 33.92 32.34 31.69 30.47 30.37 30.45 30.47 31.31 30.50 29.38 29.69 31.74 33.26 31.88 32.53 31.03 31.78 32.24 32.23 32.53 33.23 33.11 33.30 33.70 34.23 35.09 35.40 34.74
27.65 26.27 25.38 26.50 23.75 20.75 37.20 37.83 32.50 36.36 38.31 37.95 36.20 34.42 32.30 32.14 31.63 30.42 29.55 28.38 28.04 27.94 28.89 30.05 29.14 28.18 28.98 29.70 30.61 29.52 30.14 31.36 31.85 31.10 29.27 29.09 30.00 30.83 31.19 31.85 31.97 32.08 32.20 31.28
27.97 31.70 28.68 30.13 29.97 35.07 36.12 34.53 35.27 36.91 34.44 35.16 34.81 34.45 33.27 30.97 29.10 28.59 27.27 27.01 26.94 27.00 27.29 28.03 27.97 26.78 27.34 27.72 27.95 27.26 29.42 30.85 30.07 29.40 27.89 27.70 28.18 28.63 29.20 29.24 29.86 29.89 30.02 29.55
32.67 34.62 31.32 31.76 32.72 31.66 33.56 34.70 34.37 32.99 30.23 31.57 33.40 33.44 32.62 29.52 28.71 26.91 26.21 25.70 26.00 25.66 25.55 26.61 26.17 25.14 24.81 26.01 26.17 26.90 28.58 29.80 29.07 27.95 27.79 27.72 26.88 27.14 27.74 28.43 28.81 28.32 28.32 27.99
31.04 31.95 28.58 31.59 31.59 33.38 30.67 32.19 32.15 31.04 31.32 29.54 28.50 29.39 28.84 28.00 26.21 26.06 24.90 24.36 24.23 24.22 24.97 25.24 24.34 23.85 23.27 24.67 24.54 25.40 26.89 29.12 27.84 26.95 26.44 26.26 26.16 25.75 25.18 26.02 26.42 26.74 27.87 27.95
30.90 28.75 26.99 26.80 30.44 29.94 28.28 30.22 30.35 27.85 26.50 26.74 26.93 25.72 26.49 26.83 24.78 24.43 22.89 22.68 22.76 22.53 23.63 23.19 23.16 22.94 22.74 22.98 22.72 23.47 25.54 26.78 27.26 26.04 25.41 25.24 25.31 24.58 24.63 23.95 22.54 24.97 25.46 26.44

GFSCGP_sfc_wetblb_096.txt.gz
Wetbulb
42.09 38.03 36.67 40.92 43.22 43.62 42.40 40.95 40.72 44.41 47.12 45.36 45.68 46.58 48.58 50.65 50.79 50.76 51.79 52.67 53.56 54.51 56.64 57.70 58.73 59.45 59.38 62.41 65.06 66.94 67.54 65.73 64.12 63.44 62.63 62.42 62.49 63.22 64.21 66.33 65.00 65.20 63.81 62.46
38.74 35.62 41.29 42.62 42.24 40.24 38.78 38.01 39.78 43.72 46.25 45.45 44.92 45.04 48.31 49.61 49.76 50.76 51.53 52.44 53.37 54.56 55.59 56.55 57.96 59.16 59.92 61.48 64.14 66.03 67.17 63.93 63.99 64.99 65.27 63.76 62.91 63.37 63.96 64.51 64.13 64.67 63.19 60.52
36.91 39.02 41.48 40.99 39.05 37.57 39.13 38.58 38.79 39.32 43.62 45.13 43.72 42.07 45.15 48.75 50.09 50.87 51.51 51.84 52.08 52.54 53.40 54.57 55.87 58.02 60.39 62.32 63.81 65.05 66.67 62.96 63.75 66.26 65.32 63.33 63.46 62.56 62.42 63.15 62.45 60.80 60.24 59.99
38.74 40.85 39.17 38.26 38.15 39.29 36.11 41.76 40.50 39.76 38.64 36.39 43.48 36.36 42.35 45.33 46.21 47.58 48.39 51.94 54.10 55.49 56.22 56.56 56.49 56.58 58.64 62.42 64.48 65.32 65.72 61.52 63.06 65.20 64.52 63.67 61.78 60.02 61.45 60.89 63.16 61.84 61.44 59.82
37.52 37.28 37.33 35.94 37.37 40.01 37.84 41.37 39.37 39.66 38.29 38.72 39.51 37.30 40.67 43.36 42.15 45.59 49.12 52.20 54.56 55.78 56.65 57.23 57.33 57.38 58.33 62.38 64.28 65.17 63.22 61.29 62.01 62.99 65.27 63.58 63.12 62.41 61.92 62.18 62.34 61.72 60.96 60.97
41.00 44.53 41.55 39.87 40.97 41.64 42.26 39.60 40.12 40.77 39.47 33.40 38.28 37.91 38.32 41.65 43.12 46.78 50.27 52.24 53.75 54.91 56.43 57.83 59.46 58.47 58.31 62.19 64.55 64.33 60.93 60.50 61.53 62.88 63.95 63.74 62.96 61.49 60.87 60.78 61.34 59.41 59.55 58.99
38.80 39.09 43.48 43.04 38.31 40.92 41.73 38.91 32.27 30.80 31.26 30.87 38.20 36.59 40.46 44.55 47.82 48.42 49.25 51.44 53.33 54.21 55.74 56.55 57.82 59.24 58.36 61.72 63.86 62.58 59.83 59.59 60.70 61.52 62.47 62.15 62.66 61.40 61.74 60.69 60.41 59.41 58.71 58.49
31.54 28.70 40.38 43.71 39.76 37.63 38.20 38.15 34.14 25.45 28.25 32.50 38.70 34.33 40.20 47.70 49.12 50.75 51.47 52.04 53.00 53.10 54.22 55.05 56.51 58.88 59.05 60.99 63.58 61.08 60.15 60.46 60.25 60.87 61.02 60.69 62.60 59.11 61.99 61.08 61.00 60.22 59.54 58.84
32.43 31.96 40.43 43.70 44.60 42.55 38.72 36.39 40.56 33.16 34.42 32.88 36.73 38.93 43.77 47.05 47.82 49.37 50.12 51.10 51.54 52.03 52.63 52.79 53.05 59.31 60.41 60.44 63.03 60.88 60.08 61.29 59.45 60.27 60.61 59.70 61.18 59.70 60.76 62.62 62.77 62.11 60.93 59.25
37.23 31.20 38.19 41.04 44.86 43.75 42.28 43.41 34.82 36.39 26.99 26.89 34.03 35.64 39.04 42.74 45.53 47.77 48.86 49.79 50.43 50.54 49.81 48.51 48.70 58.57 59.53 61.05 62.89 60.83 60.46 59.94 58.99 59.59 59.70 59.17 59.06 59.53 60.94 62.59 60.78 60.81 61.93 59.87
39.86 37.79 35.43 39.88 38.65 38.24 38.86 37.86 38.63 38.61 36.44 31.45 30.42 35.10 45.58 44.79 46.11 46.31 47.42 48.57 48.62 47.63 47.31 44.31 45.58 54.37 59.70 61.54 60.92 59.23 59.06 58.63 58.28 59.44 59.32 59.19 58.87 59.45 60.38 61.24 60.73 60.53 59.81 59.89
41.34 38.23 32.18 35.44 41.26 43.72 41.97 39.38 39.42 34.06 30.87 35.30 34.46 36.69 47.67 45.93 46.65 47.64 46.52 46.74 47.32 46.35 45.77 42.65 43.52 47.35 56.08 58.28 57.13 57.83 58.48 57.69 58.03 58.51 58.61 58.78 58.89 59.02 59.23 59.54 60.63 60.65 59.12 59.53
40.60 36.90 30.94 32.47 38.28 41.69 39.02 40.55 40.87 40.19 38.76 32.51 32.90 36.37 46.04 45.44 46.39 48.27 43.36 43.90 44.71 44.29 42.88 40.08 41.39 42.80 45.19 47.43 55.10 57.15 57.33 57.46 59.18 58.93 59.05 58.98 58.46 58.72 58.41 59.03 61.62 60.83 61.03 60.50
42.47 36.97 34.48 30.96 34.65 38.90 36.02 38.40 40.00 38.36 35.48 34.34 35.63 36.61 40.90 43.90 44.83 47.21 42.82 43.20 42.83 42.70 40.02 37.38 37.81 40.27 41.55 43.23 44.21 46.07 52.46 57.18 57.76 57.79 58.20 57.63 57.65 57.86 58.38 59.87 60.83 59.51 59.68 60.30
40.18 33.28 35.98 36.88 37.55 37.95 36.55 35.54 35.97 35.22 36.34 32.70 35.97 36.54 41.10 44.05 44.69 46.37 42.78 40.99 40.31 40.22 38.16 36.02 35.35 37.02 39.80 40.40 41.33 42.21 42.81 45.20 52.27 53.51 53.71 55.97 57.52 58.25 58.26 59.99 60.09 59.88 59.66 59.27
38.08 32.46 34.90 32.43 35.76 35.20 32.79 34.47 35.13 35.54 36.03 36.47 37.43 38.19 45.71 45.79 43.86 39.82 39.64 38.87 37.45 35.54 36.11 35.78 34.94 34.92 38.12 38.49 39.20 39.50 39.55 40.69 41.90 42.17 42.63 45.15 46.48 48.30 48.98 49.89 50.43 54.25 54.68 56.72
35.30 33.87 31.85 28.60 33.00 32.18 29.27 33.49 34.65 36.17 38.46 38.03 34.87 40.25 45.48 42.72 39.67 38.39 37.77 37.40 36.02 35.67 35.03 33.14 33.18 33.44 36.50 38.74 37.61 36.83 37.77 38.96 38.63 39.42 38.81 39.55 41.14 42.35 43.59 44.83 45.32 46.16 47.66 48.61
34.36 32.95 33.65 29.41 30.28 21.79 33.63 39.31 39.54 37.30 38.80 40.59 41.19 43.48 44.24 40.33 37.06 36.55 37.53 36.47 34.76 33.89 33.23 32.28 32.09 32.99 34.13 36.98 37.71 36.47 36.64 36.25 37.93 37.56 36.71 38.03 38.36 38.48 40.40 40.82 41.92 44.22 43.99 41.52
39.29 35.48 30.24 27.52 27.62 30.50 34.13 36.82 36.13 34.97 35.16 39.66 39.38 42.24 40.34 38.88 37.76 33.84 34.53 33.91 33.00 32.72 33.18 32.99 33.29 32.46 33.18 35.05 36.62 36.26 34.89 34.13 34.26 34.02 34.74 37.39 36.49 36.59 37.91 38.20 39.93 41.15 40.06 37.16
37.49 37.82 33.79 30.14 23.87 21.26 32.98 38.84 42.43 41.42 32.02 37.69 38.24 39.83 41.49 39.06 37.54 31.85 31.29 31.49 31.75 32.10 32.27 32.92 33.99 32.57 33.02 33.72 35.38 34.48 33.52 33.39 32.35 32.65 33.47 35.84 35.55 36.01 35.84 37.19 39.23 38.97 37.35 35.39
31.91 32.08 28.83 28.42 26.73 30.49 36.25 40.41 42.47 30.21 31.57 38.01 37.00 34.29 32.90 29.14 29.87 31.20 30.97 29.96 31.95 32.30 32.52 33.87 34.26 33.24 31.80 33.10 34.64 33.17 32.41 31.15 31.75 32.64 34.16 33.37 33.26 33.85 35.32 35.90 36.86 37.57 36.82 36.20
30.67 30.15 29.84 30.25 26.24 22.77 35.01 39.19 33.20 33.93 36.99 36.36 35.33 33.86 31.19 30.34 30.51 29.38 28.91 28.37 30.41 31.39 31.12 32.42 31.47 30.85 31.76 31.70 32.14 31.31 30.86 33.04 32.77 31.67 30.88 31.18 31.53 32.44 33.58 33.77 34.88 35.82 35.36 34.58
29.99 31.36 29.84 29.79 28.17 33.65 33.63 32.70 33.50 34.38 32.92 34.70 35.05 34.94 33.47 31.24 30.01 29.56 28.58 28.08 28.45 28.60 30.06 31.47 30.30 29.56 29.43 29.98 30.68 29.51 30.28 32.29 32.39 32.17 31.11 31.21 30.73 30.74 31.09 31.37 32.37 32.26 32.60 32.42
33.89 35.83 33.69 32.80 31.21 31.17 33.33 33.44 33.29 32.97 31.94 31.83 33.56 33.77 33.14 30.30 29.83 28.44 28.52 28.22 28.22 28.33 29.07 31.07 30.57 28.95 27.82 28.84 28.57 29.15 30.93 31.59 31.06 29.95 30.26 30.24 28.63 28.81 29.76 29.87 29.54 29.87 30.32 29.81
34.51 35.10 31.02 31.73 33.03 33.01 32.20 32.00 32.74 32.10 32.66 31.35 31.76 32.04 31.91 31.55 30.03 29.99 28.62 28.20 28.18 28.41 29.12 29.70 28.51 27.49 27.08 27.80 27.99 28.76 30.09 32.18 30.54 29.11 28.64 29.17 28.97 26.81 26.02 26.15 27.07 26.95 27.93 28.12
32.98 29.93 30.69 28.97 31.75 32.10 29.96 31.29 31.47 29.31 28.70 29.97 30.54 29.50 30.05 30.51 28.70 28.30 27.00 26.99 27.12 26.70 27.60 27.76 27.26 26.87 26.28 26.75 26.21 27.13 29.08 30.44 30.56 29.36 29.27 28.91 29.13 28.92 28.03 26.04 24.02 24.84 25.18 26.26

GFSCGP_sfc_wetblb_099.txt.gz
Wetbulb
43.21 37.67 36.03 40.09 43.64 44.53 42.34 41.82 41.24 45.28 48.72 47.96 47.29 47.61 49.43 51.65 52.16 52.05 52.95 53.97 54.71 55.62 57.54 58.39 59.09 59.56 60.26 61.73 63.99 66.66 68.77 69.65 67.40 65.59 64.47 64.60 64.67 64.47 65.87 65.53 67.14 66.98 67.02 66.21
40.41 35.10 40.32 43.48 44.12 43.00 41.90 36.70 39.94 45.30 47.13 47.07 46.60 45.90 49.33 51.20 52.01 52.61 52.75 53.34 54.51 55.62 56.54 57.62 58.78 59.85 60.38 60.75 61.39 64.34 67.27 68.79 67.59 65.25 65.61 66.10 65.44 65.14 66.65 66.17 66.22 66.39 66.48 66.02
38.35 39.09 41.65 41.44 41.39 40.08 40.70 37.94 39.51 40.06 43.08 45.48 45.42 42.97 44.71 49.09 50.76 52.11 52.87 53.77 54.56 54.72 55.03 56.17 57.13 58.66 60.20 60.65 61.92 62.06 65.42 67.79 67.46 66.76 66.95 66.79 66.28 64.82 64.68 64.35 65.38 65.64 65.66 65.31
41.31 42.22 40.98 40.42 39.64 41.29 36.71 42.99 41.07 39.53 38.47 34.83 44.68 35.88 44.01 46.30 48.10 50.13 51.20 51.17 53.62 55.52 56.87 57.73 58.35 58.97 59.76 60.56 62.46 63.64 64.84 66.97 66.84 67.55 66.92 66.29 64.08 62.47 63.45 64.55 64.33 63.99 63.60 61.20
39.42 39.35 39.86 39.10 39.87 42.30 39.57 43.05 40.89 40.54 39.55 39.23 39.48 38.13 42.02 46.33 44.28 47.10 49.50 52.21 54.37 56.14 57.11 57.82 58.77 60.07 60.49 60.76 62.12 64.58 65.17 66.73 65.79 67.20 67.48 66.16 65.31 64.55 64.30 63.72 62.90 61.86 61.35 61.19
40.63 45.02 43.28 41.45 42.47 42.18 43.30 40.37 40.39 40.42 38.37 32.12 38.23 38.37 38.96 40.95 43.45 46.52 50.83 52.86 53.89 55.29 56.51 57.66 59.33 60.30 61.05 61.24 62.38 64.60 65.19 66.64 65.08 65.24 67.05 66.10 65.46 64.73 62.83 62.08 61.69 62.27 60.75 59.68
39.40 39.88 43.81 43.09 39.72 41.60 40.14 36.68 29.67 27.91 29.84 30.52 40.67 38.14 40.45 46.44 48.96 49.32 49.68 51.75 53.74 55.21 55.52 55.84 56.75 58.21 59.81 61.71 60.57 63.61 65.13 63.93 63.62 63.23 65.91 66.37 66.10 65.06 62.96 62.65 61.30 60.50 59.24 58.92
32.36 31.64 39.46 42.93 39.84 36.95 38.45 37.29 32.14 25.42 27.89 32.08 39.93 34.01 39.58 48.89 50.50 51.44 51.31 52.43 53.45 54.39 54.63 54.29 54.93 56.39 58.38 61.44 61.47 63.51 64.65 61.95 61.27 61.96 65.39 66.16 66.14 64.37 63.31 62.72 61.94 61.52 59.60 59.44
33.81 32.28 41.48 43.05 43.10 41.74 38.00 35.06 41.14 34.45 37.36 34.82 37.11 41.18 46.34 48.70 48.76 49.84 50.07 50.74 50.30 52.23 52.64 52.44 53.03 53.28 57.25 57.79 62.05 63.72 62.80 60.74 60.69 61.42 64.64 65.24 65.17 64.01 62.65 62.80 62.79 61.85 61.43 60.37
39.19 30.70 39.15 41.82 45.04 43.59 40.71 42.53 34.67 38.05 25.83 27.16 34.95 36.56 38.06 43.00 44.96 47.59 48.69 49.43 49.26 51.32 50.58 49.90 49.30 48.73 52.56 54.96 62.11 64.78 62.08 61.17 60.88 61.14 62.36 63.12 64.41 62.83 63.17 62.87 61.85 61.83 62.82 60.66
40.33 37.48 35.42 40.56 38.66 37.63 39.62 38.19 39.44 39.08 36.25 30.41 28.96 35.39 45.42 43.90 45.80 46.55 48.22 48.75 48.69 48.70 47.44 46.27 43.96 44.17 47.95 50.69 62.10 63.18 60.88 60.33 59.91 60.43 60.34 61.42 63.14 62.53 62.44 62.14 62.50 61.00 61.88 60.91
41.30 37.91 32.81 35.65 42.42 43.51 42.23 39.73 39.33 33.52 32.56 35.81 34.64 35.33 46.84 45.81 47.42 48.50 47.93 47.30 47.79 46.72 45.77 43.59 39.79 41.17 42.32 43.71 52.61 59.80 59.78 59.08 59.60 59.64 59.97 59.80 61.12 61.43 60.86 60.89 61.98 62.04 61.64 61.76
41.95 37.67 31.29 32.37 38.61 42.12 40.02 41.42 41.82 40.91 39.29 34.47 32.67 35.68 45.73 47.79 47.19 46.49 45.43 43.15 43.86 44.46 43.73 41.16 37.93 37.77 39.63 40.93 43.20 49.36 58.70 58.32 59.13 59.26 59.06 59.24 59.08 59.47 59.85 60.38 61.35 61.26 60.50 60.34
43.14 39.16 35.55 30.77 34.62 39.24 37.40 39.73 41.00 40.04 35.27 35.56 36.64 37.62 43.76 44.76 45.25 42.42 40.30 40.41 40.29 40.69 41.60 40.67 36.75 36.33 38.74 39.31 40.40 42.27 46.07 51.95 57.97 58.27 58.49 59.01 58.65 59.31 59.27 60.48 61.06 61.31 60.80 60.72
40.50 34.54 35.84 38.60 40.01 40.01 39.13 38.55 39.44 37.64 38.18 34.59 37.09 37.91 42.17 42.60 41.33 40.18 39.91 38.78 37.83 37.01 36.68 37.03 36.38 35.78 35.96 37.19 37.53 39.16 40.60 42.80 46.59 47.81 49.95 53.98 58.20 58.71 59.14 59.07 60.49 60.72 60.78 60.69
39.45 33.48 35.96 34.27 38.53 38.61 35.67 36.87 36.82 37.07 37.29 37.48 38.45 39.25 46.19 44.82 43.29 39.69 38.14 37.08 36.16 35.66 34.80 34.73 34.56 35.35 35.29 36.29 36.34 36.73 38.84 39.79 41.32 40.83 42.01 45.53 47.29 47.09 48.18 50.19 51.59 57.38 57.05 55.52
35.80 34.87 32.86 29.62 34.98 35.30 31.01 35.49 36.80 38.60 40.19 39.67 36.34 40.93 45.48 40.53 37.70 36.68 37.08 35.50 34.28 34.21 34.01 33.12 32.95 32.41 34.59 34.71 36.26 34.84 35.98 38.09 38.67 38.90 39.11 40.19 42.51 43.36 43.67 45.53 45.85 44.96 44.05 43.99
35.50 34.44 35.08 30.20 32.37 24.81 35.84 41.56 40.73 39.57 39.44 40.50 41.15 41.11 43.66 37.62 33.79 33.79 34.37 33.29 32.78 33.22 33.91 33.84 32.05 32.41 32.53 35.20 35.87 35.15 36.27 35.64 36.41 35.92 36.64 38.83 39.29 39.60 41.11 41.69 41.18 39.63 39.11 37.81
39.60 36.57 32.65 30.00 30.19 33.21 35.59 38.16 37.99 37.23 35.11 40.07 38.99 41.06 39.07 35.94 34.41 31.01 32.41 33.36 33.10 32.84 35.64 35.40 35.36 33.12 32.41 32.39 34.65 34.95 33.84 33.48 33.40 32.47 33.64 35.43 37.18 37.10 39.82 38.23 38.25 37.44 35.77 34.76
39.46 38.98 35.68 32.88 26.73 23.97 33.22 38.53 43.21 42.85 32.73 38.58 40.24 37.95 36.75 37.20 36.04 29.23 31.41 32.19 33.86 34.12 35.66 34.73 35.19 34.37 33.84 34.33 34.29 33.72 32.82 32.73 32.05 32.46 33.26 33.48 35.02 35.40 35.80 37.18 37.26 36.44 34.78 34.06
33.19 33.99 31.19 31.79 29.95 32.07 33.53 38.23 41.96 31.91 29.92 37.59 37.67 35.18 32.55 28.95 29.84 31.17 31.82 31.70 34.16 35.25 35.60 35.79 34.73 32.72 32.30 34.30 34.05 32.71 32.81 31.36 31.90 32.89 33.38 33.64 33.36 34.25 35.94 36.06 36.68 36.91 36.55 35.97
32.06 30.33 31.19 32.62 29.35 25.37 33.60 38.61 32.32 31.89 35.33 36.09 35.57 34.80 32.54 32.11 31.72 31.43 31.16 30.28 31.27 32.26 34.89 35.60 34.14 32.00 31.75 32.38 32.60 30.91 30.85 33.31 33.03 33.24 32.34 33.13 33.41 33.72 35.25 34.86 34.62 35.62 35.90 34.86
30.82 32.94 29.93 30.01 28.13 32.64 33.89 32.54 33.58 34.32 32.80 34.64 35.09 35.24 34.92 32.37 30.65 30.41 29.96 29.36 30.37 32.83 34.53 35.65 34.25 32.54 31.86 31.41 31.19 30.46 30.70 32.68 33.28 31.67 30.15 30.24 31.96 31.07 31.34 32.15 32.94 33.03 33.47 32.82
35.88 38.41 33.73 31.77 31.96 31.94 33.38 34.46 34.21 34.66 33.27 34.96 35.00 34.85 35.30 32.61 32.03 31.10 31.34 31.55 32.40 33.08 32.92 33.94 33.30 31.85 30.77 31.57 30.68 30.63 32.57 32.80 31.24 30.82 31.05 29.50 28.16 27.90 28.45 29.46 28.55 28.11 30.18 29.78
34.85 36.25 33.32 30.92 32.59 32.83 32.62 32.99 33.58 33.81 34.93 34.72 35.11 34.53 34.29 34.52 33.25 33.73 32.74 32.26 32.21 32.40 32.89 32.71 31.19 30.16 29.45 29.92 29.52 30.89 31.93 33.22 32.27 31.09 30.35 29.69 28.75 26.87 24.92 24.34 26.30 26.41 27.09 27.37
34.72 31.37 31.33 29.04 32.59 32.49 30.72 32.38 32.69 31.07 31.03 33.03 33.49 33.02 33.54 33.80 32.54 32.67 31.24 31.04 30.74 29.92 30.43 30.37 29.60 28.53 27.74 27.65 26.91 27.92 29.88 31.47 31.41 30.31 29.97 30.27 30.30 30.06 28.68 26.04 22.95 25.03 25.67 26.16

GFSCGP_sfc_wetblb_102.txt.gz
Wetbulb
42.37 38.79 34.52 35.84 38.95 40.39 40.94 40.08 40.40 43.80 46.81 45.48 45.46 46.34 48.41 50.81 51.08 51.29 52.82 53.38 53.78 55.08 56.44 57.39 58.63 58.24 60.28 61.34 63.49 67.65 68.90 68.67 66.99 65.66 65.18 64.73 64.37 64.60 64.49 65.73 66.42 65.57 65.44 65.46
36.73 33.13 40.11 39.43 38.61 38.30 39.18 39.43 39.87 42.83 45.67 45.48 44.59 44.29 49.26 50.44 50.97 51.22 52.00 52.60 53.62 55.09 56.02 57.48 58.63 59.07 60.04 60.93 61.47 63.42 68.09 69.01 67.65 65.90 65.71 64.68 64.26 64.43 64.40 64.69 65.47 65.44 65.33 65.26
32.85 36.59 42.69 39.26 37.16 36.14 38.22 38.15 38.98 39.30 43.39 41.30 41.12 38.62 44.28 49.52 51.15 52.23 52.92 53.38 54.01 54.37 54.81 56.30 58.09 59.17 60.82 61.61 62.14 60.72 64.49 68.39 68.15 66.67 65.49 64.91 64.87 64.49 63.51 64.47 64.31 64.59 64.46 64.42
34.87 38.66 39.17 38.46 35.90 37.68 35.58 42.19 42.27 40.89 36.44 32.38 42.07 32.35 42.21 46.55 47.01 48.68 51.03 52.73 53.05 54.19 56.21 56.93 57.86 58.63 60.01 60.73 62.00 62.01 61.36 64.81 68.07 66.18 64.50 64.09 63.16 62.22 62.87 63.71 63.94 64.06 64.03 63.94
33.40 36.19 37.34 37.46 36.64 39.40 38.32 43.34 42.03 40.64 36.58 35.21 36.41 33.41 39.40 45.72 44.36 45.91 48.92 52.16 54.09 55.60 56.49 56.65 57.34 58.66 59.93 61.21 61.31 62.07 61.89 62.16 67.29 65.72 65.42 64.61 64.00 63.68 63.55 63.31 62.99 62.53 62.69 62.12
35.97 41.69 40.97 41.12 41.76 41.27 43.13 40.28 39.59 39.36 36.22 29.13 35.32 35.54 37.49 42.08 44.70 46.84 50.05 52.09 53.88 54.61 55.39 55.86 57.03 57.65 58.17 59.95 60.59 62.05 63.01 62.43 66.83 66.14 65.63 65.27 64.55 63.50 62.59 62.09 61.42 61.21 60.09 60.88
35.06 35.91 41.25 43.46 39.15 42.04 41.31 36.95 28.72 26.77 27.44 26.82 37.32 35.30 38.27 44.83 46.76 48.85 50.02 51.32 52.73 53.42 52.87 53.55 53.49 53.90 55.14 56.47 58.64 60.58 61.72 61.96 65.64 65.45 65.39 65.91 64.96 64.74 62.95 61.25 60.87 59.88 58.97 58.55
29.60 29.94 37.39 43.30 40.18 37.64 37.78 37.03 30.39 22.71 24.46 28.41 36.81 31.99 37.38 47.26 50.10 50.85 51.47 51.23 51.65 51.86 51.97 51.32 51.06 51.58 51.00 53.75 54.95 58.27 56.65 62.26 64.39 64.19 64.66 65.78 65.34 64.86 62.93 61.27 61.98 60.87 59.14 58.65
31.92 32.18 41.62 42.70 42.83 41.89 37.20 33.63 39.97 34.81 35.79 31.55 34.33 37.27 42.62 47.23 48.24 49.02 49.12 49.43 49.24 49.92 49.23 48.90 48.02 46.81 46.24 49.58 50.80 52.91 53.88 61.94 62.56 62.61 63.27 64.58 64.48 64.45 62.24 61.69 62.39 60.69 59.97 59.20
36.19 31.02 39.99 41.54 42.90 42.23 39.38 41.13 31.34 33.34 27.84 26.58 32.72 35.22 36.20 42.02 44.19 46.48 46.03 46.14 46.14 47.19 46.78 46.12 44.07 42.40 43.70 44.89 47.46 51.56 57.95 61.92 61.07 61.66 61.96 62.72 63.64 63.59 62.64 61.79 61.21 61.20 59.78 59.29
38.80 36.44 35.69 40.09 36.33 35.30 36.45 34.06 36.11 36.80 34.89 28.84 28.09 33.39 40.75 40.98 44.56 45.10 44.72 43.95 43.58 43.82 43.79 42.82 41.07 40.50 41.52 42.42 43.90 46.57 60.30 61.23 60.58 60.97 61.08 60.98 62.31 61.74 62.12 61.33 61.50 61.10 60.70 59.71
41.31 37.62 31.42 34.13 40.59 43.38 40.85 37.89 37.64 32.05 31.42 34.36 32.73 32.66 44.36 45.37 46.13 44.49 42.40 41.99 42.22 42.12 41.61 40.80 39.32 39.01 39.16 38.95 40.55 42.29 44.72 59.74 60.51 60.72 59.94 59.88 60.46 60.89 61.13 61.08 61.25 61.24 60.31 59.33
41.07 36.11 29.52 31.67 36.92 39.72 37.87 39.79 40.91 40.06 37.23 34.13 31.27 33.35 45.99 44.06 41.91 41.84 39.92 39.36 39.63 39.78 39.21 38.80 38.50 37.27 37.59 37.63 38.03 39.68 41.80 43.94 58.38 59.18 59.19 58.87 58.71 59.25 59.21 60.51 60.92 60.67 60.41 59.61
43.41 37.62 33.14 28.99 33.51 37.16 34.90 37.04 39.05 38.68 32.13 33.53 33.56 34.29 39.92 40.43 39.10 39.21 38.72 38.47 38.48 37.72 37.20 36.66 36.17 36.93 36.98 36.93 36.67 37.23 39.32 41.43 44.95 58.11 58.39 57.95 57.93 58.27 58.81 60.28 60.45 60.04 60.19 59.79
39.28 32.99 35.50 36.57 38.51 38.57 36.85 37.07 37.93 37.22 37.43 32.23 35.82 37.11 38.44 38.99 38.07 38.20 38.16 37.31 36.29 35.82 35.48 34.96 34.85 35.03 35.98 36.17 35.87 36.25 37.40 39.05 41.19 43.00 44.91 47.95 53.96 58.03 58.62 58.94 59.97 59.78 59.39 59.30
38.26 33.29 32.94 32.47 38.98 36.98 33.91 36.74 37.05 37.61 38.43 38.86 38.65 36.52 41.01 40.37 39.34 37.00 36.28 35.30 34.33 34.15 34.08 33.86 33.99 34.24 34.20 35.01 35.48 35.38 35.95 37.27 38.54 38.76 39.81 41.99 44.82 46.46 48.85 50.41 52.86 52.13 50.99 49.81
35.05 34.04 32.67 27.94 35.63 34.74 29.99 35.32 37.42 37.05 37.50 37.40 33.46 37.66 40.08 35.80 33.52 33.53 34.20 33.44 32.91 33.58 34.36 32.93 32.28 33.09 33.82 33.63 34.37 34.37 34.75 36.33 36.50 36.63 37.47 38.35 40.29 41.20 42.65 42.77 42.65 42.65 43.23 42.19
34.93 34.51 34.65 29.08 31.60 23.62 34.74 41.45 39.79 36.57 36.67 37.97 38.33 38.61 35.76 32.64 32.36 32.69 33.16 32.59 32.06 33.04 33.92 34.41 32.48 32.64 32.90 33.32 33.27 33.85 34.50 34.56 34.61 35.36 36.15 37.59 37.62 38.59 38.34 38.18 37.23 36.87 37.47 37.39
39.44 35.97 32.19 29.48 28.70 32.10 35.03 36.02 34.66 35.00 32.28 37.13 37.01 37.39 36.22 33.39 33.44 30.41 32.88 34.21 34.30 34.72 35.76 35.46 35.12 33.81 34.13 33.37 32.66 32.64 32.24 32.74 32.97 32.76 34.36 35.27 36.72 35.99 35.69 35.34 34.98 35.46 34.66 34.13
39.34 39.47 35.19 33.18 26.97 23.97 29.82 34.49 39.65 39.85 27.75 35.90 36.44 35.13 35.85 36.04 34.04 28.18 31.55 32.96 34.39 35.16 35.72 34.92 34.57 33.89 33.42 34.05 34.71 32.54 31.44 31.18 30.98 32.37 32.26 33.86 35.24 35.72 34.49 32.99 33.53 34.61 33.12 32.28
33.01 33.79 30.72 31.34 29.05 28.98 31.77 36.19 38.85 29.75 26.80 35.40 35.25 33.45 32.15 28.55 29.39 31.06 31.76 31.72 33.88 34.55 35.55 35.59 33.87 31.59 31.68 33.46 33.11 31.50 32.36 31.06 31.89 32.55 33.17 32.60 32.82 33.09 32.64 32.66 33.55 32.84 32.64 32.64
29.81 29.36 28.64 30.20 27.66 23.46 33.32 35.65 29.20 30.85 34.28 35.33 35.63 35.12 32.50 32.17 31.61 30.73 30.20 30.47 32.41 33.09 34.72 34.97 32.79 31.61 31.84 32.24 32.61 30.62 30.52 32.62 31.54 31.34 32.04 31.33 31.40 31.57 32.34 32.67 32.96 33.06 32.61 32.14
29.37 32.53 29.03 28.84 26.69 32.85 33.74 32.34 34.82 35.34 32.85 34.78 34.53 34.94 33.40 31.34 30.27 30.05 29.48 30.40 32.30 32.61 33.36 33.68 32.22 31.05 31.09 31.59 31.38 30.30 30.82 31.92 32.27 29.85 28.22 27.26 27.06 29.14 29.85 28.44 28.40 31.03 31.60 31.00
35.90 38.21 32.49 31.38 31.41 31.44 32.86 34.43 34.78 35.33 34.39 35.22 35.59 35.54 35.52 32.72 32.43 32.06 33.75 33.48 32.40 32.65 32.03 32.50 31.15 29.32 28.09 29.36 29.72 30.58 32.47 32.70 31.54 30.05 28.17 26.91 25.24 24.79 25.69 26.88 26.48 26.04 27.21 27.12
35.13 36.39 33.09 30.47 31.76 32.45 31.77 32.41 33.78 33.95 35.05 34.90 35.49 34.96 34.45 34.27 32.59 32.21 31.39 31.37 31.08 31.01 31.31 30.63 28.77 27.62 26.99 27.35 27.60 29.14 30.55 32.78 31.45 30.86 30.30 28.61 27.02 24.59 23.16 24.18 24.40 24.96 25.89 27.25
34.35 30.24 29.78 27.47 32.30 31.79 30.37 31.82 33.32 31.48 31.99 33.69 33.51 33.35 33.38 33.50 32.05 31.39 29.45 29.73 29.31 28.57 28.79 27.82 27.19 26.31 25.62 25.66 25.71 27.25 29.10 29.90 30.16 29.35 29.15 29.39 29.81 28.37 24.51 22.58 21.96 26.06 25.85 26.79

GFSCGP_sfc_wetblb_105.txt.gz
Wetbulb
36.07 30.34 29.86 34.07 34.25 34.32 33.28 33.57 33.77 36.90 41.61 42.45 42.36 43.08 43.32 47.55 48.83 47.86 48.22 49.50 50.01 50.48 52.48 53.40 51.74 51.04 50.71 51.27 66.38 67.14 66.06 65.44 65.11 65.26 63.91 64.42 63.35 62.80 61.80 63.05 64.75 65.44 64.99 64.85
34.05 27.49 33.08 36.37 39.47 35.45 32.80 31.51 32.02 37.14 42.65 41.55 39.38 39.42 42.48 44.16 45.68 47.82 49.20 47.71 47.32 49.64 50.42 52.79 51.85 50.92 51.37 53.25 63.01 66.69 66.09 65.19 64.84 64.94 65.17 63.62 64.52 63.41 64.07 62.35 62.75 63.57 64.40 64.04
31.76 33.80 37.14 34.55 35.59 34.24 33.31 30.77 31.70 32.43 40.02 42.14 39.00 36.27 39.40 45.12 47.28 49.59 50.79 50.64 50.09 49.96 50.69 52.16 53.52 52.85 53.36 54.06 55.42 65.34 66.34 65.28 65.13 64.62 64.42 62.64 62.65 63.12 62.61 62.85 62.71 62.06 62.46 63.01
34.21 38.01 36.41 34.53 33.81 35.71 29.28 35.39 34.88 34.63 35.69 31.87 39.71 29.28 37.80 42.31 44.33 48.10 49.56 48.58 49.85 52.11 53.00 53.46 53.11 53.42 54.21 55.08 56.69 56.74 65.45 65.86 65.09 64.44 63.72 62.36 61.50 60.90 62.12 62.42 62.34 61.76 62.43 61.81
32.26 33.77 32.85 31.95 33.77 37.53 33.69 37.19 35.59 35.98 34.22 33.71 34.58 32.22 34.92 43.35 41.69 45.53 48.04 51.18 51.34 51.93 51.32 50.87 51.08 52.21 53.11 53.66 54.72 56.49 57.58 61.86 65.50 64.26 63.89 62.56 61.54 61.82 61.32 62.07 62.62 61.25 60.69 61.46
34.96 38.34 35.45 36.51 39.81 39.07 39.95 38.79 38.65 37.24 34.81 24.42 32.77 32.85 33.87 38.63 41.97 45.48 49.14 49.47 49.26 49.16 48.81 48.57 49.52 49.64 48.77 49.83 51.26 53.11 54.37 56.55 62.70 64.02 63.37 62.73 61.73 61.50 60.59 60.77 59.92 59.47 59.94 59.72
33.40 32.88 36.68 39.96 34.30 38.31 39.00 34.05 24.23 26.13 23.68 22.88 35.03 32.01 35.30 42.48 46.60 47.54 47.46 47.71 47.93 46.84 46.25 45.39 44.96 44.60 45.05 45.74 47.68 49.59 49.95 52.00 54.33 63.52 63.21 62.97 62.53 61.95 61.23 60.61 60.04 59.51 59.19 58.98
25.05 23.56 35.08 39.01 36.36 33.62 34.51 33.35 24.96 20.69 21.85 25.11 35.29 30.10 34.71 45.44 47.70 48.06 47.44 45.79 45.50 44.38 43.89 42.51 42.33 41.99 42.30 44.22 44.75 45.21 46.09 48.05 51.23 61.41 63.17 63.21 63.12 62.41 61.94 61.05 60.27 59.56 58.71 58.48
27.69 28.81 37.11 40.18 41.42 39.32 34.95 31.07 36.34 31.07 33.36 25.07 30.10 36.44 43.11 46.29 44.54 44.20 42.73 42.01 41.25 41.36 41.32 40.17 40.10 40.36 41.11 42.29 42.90 43.42 44.25 45.71 50.07 54.73 63.41 62.49 62.10 63.27 60.77 59.91 60.29 59.43 58.92 58.04
33.84 26.30 37.33 40.15 40.67 39.45 35.97 39.44 26.91 30.49 24.76 24.28 30.85 33.28 34.82 38.33 39.20 40.35 39.16 38.82 38.51 38.97 38.68 38.67 38.34 38.74 40.94 41.13 41.57 42.44 44.33 47.72 52.90 61.03 60.57 60.94 60.94 61.60 61.03 60.88 59.75 58.69 58.21 58.58
36.62 32.67 34.33 38.68 36.44 33.04 34.31 33.48 35.21 35.77 32.38 26.28 27.72 30.31 39.66 40.34 39.79 38.06 37.87 37.79 37.57 37.67 38.04 38.41 38.29 38.84 39.56 40.20 40.08 40.47 42.28 45.07 52.99 58.39 58.43 58.48 59.61 60.58 60.58 60.76 59.47 58.49 58.15 58.62
38.94 34.79 29.82 33.13 39.13 41.16 39.30 35.92 36.31 30.37 30.75 32.97 31.99 29.94 41.61 40.36 39.31 38.52 37.59 38.05 38.02 38.07 37.74 37.44 37.01 37.92 38.03 38.13 38.74 38.81 40.24 42.08 45.31 50.42 58.29 58.47 58.96 59.89 60.08 60.14 59.80 58.79 58.09 58.67
38.35 34.02 28.22 31.03 35.08 37.82 35.98 38.09 38.13 37.54 36.31 32.02 27.76 29.04 40.87 39.82 38.04 37.87 36.56 36.59 37.04 36.99 36.65 36.49 36.29 35.90 36.50 37.35 37.66 38.01 38.94 40.11 42.52 45.71 58.49 58.41 58.59 59.09 59.72 60.04 59.98 59.59 58.65 58.31
41.27 36.15 31.61 27.27 32.23 36.42 34.34 37.10 38.46 36.56 31.48 32.12 33.51 33.33 36.59 37.16 36.51 36.60 35.94 36.14 35.80 35.25 34.91 34.71 34.39 34.87 35.65 36.07 36.97 37.14 37.68 39.11 39.95 42.54 45.31 48.89 57.66 58.25 59.34 59.85 60.06 60.01 59.26 58.03
37.07 31.40 33.46 35.64 36.56 35.82 35.33 35.33 35.85 34.77 36.46 32.71 33.49 33.52 35.37 36.14 35.85 35.89 35.87 35.46 34.95 34.27 33.82 33.72 33.45 33.66 34.14 34.80 34.96 36.61 36.98 37.18 38.70 39.26 39.68 42.41 46.61 52.11 53.85 54.86 59.21 59.75 59.37 58.97
37.53 31.58 33.50 33.61 33.87 34.77 32.77 33.41 34.65 34.72 36.85 36.50 35.26 34.19 37.13 36.99 36.29 34.12 33.54 33.55 33.28 33.70 33.23 32.66 32.62 33.18 33.21 33.43 33.82 33.93 35.28 35.98 36.50 37.13 38.25 39.42 41.11 42.00 43.63 45.28 45.96 48.67 47.36 46.29
34.95 32.65 31.12 27.87 34.15 34.49 29.02 32.30 32.67 32.84 34.85 34.73 30.92 34.97 35.22 31.60 30.65 30.62 31.61 31.91 31.81 32.47 32.95 31.79 31.72 32.58 32.98 32.80 33.27 32.71 32.97 35.34 35.29 34.63 35.93 37.93 38.68 38.78 39.32 39.06 38.82 38.83 39.68 39.16
33.36 32.67 32.76 27.03 30.77 23.78 30.29 36.31 35.91 31.82 32.54 34.99 35.10 33.52 32.46 30.47 30.46 30.80 32.43 32.25 32.98 33.64 32.75 31.52 31.60 32.46 32.98 33.72 33.04 33.11 33.21 33.02 33.61 33.66 33.56 34.79 37.19 37.16 37.15 37.21 37.27 35.05 35.45 35.16
37.95 33.94 29.53 27.45 27.15 30.77 31.51 31.37 30.66 32.33 29.60 33.63 32.56 34.59 32.11 32.04 31.77 27.97 31.68 33.06 33.55 32.85 32.26 31.38 32.32 31.96 33.07 32.70 33.80 32.69 31.70 32.07 31.46 31.42 32.05 32.74 33.72 34.99 35.51 34.84 35.77 35.56 33.42 32.41
38.13 37.33 32.15 29.75 25.42 22.08 27.57 31.11 34.83 36.01 23.97 34.04 32.58 31.11 31.38 34.31 27.67 25.42 30.76 31.82 33.63 34.68 32.98 30.67 30.34 31.08 31.65 32.52 33.07 32.00 30.38 29.72 29.80 30.94 31.25 31.75 32.65 32.54 32.73 32.89 33.61 34.17 33.06 31.69
28.78 29.09 26.61 27.13 26.21 26.22 29.50 32.38 35.13 25.77 24.71 35.01 32.96 30.56 28.47 25.90 27.52 29.54 31.17 31.60 33.63 33.82 32.88 31.71 30.09 29.05 30.15 32.21 31.72 30.52 29.99 28.57 29.99 30.99 30.25 30.62 31.25 31.03 32.00 32.23 32.94 32.91 32.46 32.20
26.99 27.12 23.92 26.16 23.61 19.15 31.88 31.82 26.28 30.93 34.43 34.89 34.40 32.84 30.44 29.96 29.90 29.57 30.16 30.48 31.74 32.01 31.81 31.04 28.78 27.92 29.65 30.37 31.22 28.45 29.14 31.29 29.43 28.60 27.67 27.41 29.08 29.19 29.74 29.74 31.61 32.06 31.77 30.41
26.32 30.38 25.55 26.90 25.40 32.08 32.88 31.83 34.45 34.95 33.48 34.64 34.76 33.26 32.37 30.55 29.70 26.24 28.92 30.42 29.22 29.19 28.93 29.42 27.60 26.72 27.35 28.30 28.11 28.06 30.58 31.22 29.40 27.36 25.90 25.51 26.19 26.79 27.32 26.63 27.29 28.34 28.40 28.11
34.25 36.26 26.84 28.97 30.59 30.81 32.25 33.94 34.56 35.90 33.75 33.96 34.21 35.17 34.46 32.14 32.37 31.22 31.04 27.11 27.68 27.78 27.07 27.64 26.57 25.52 25.19 26.87 27.12 27.96 30.01 31.78 30.11 27.65 25.93 25.13 24.30 24.36 25.10 25.78 25.96 26.10 25.63 25.09
31.44 33.69 31.04 29.16 30.63 30.58 31.38 31.93 33.10 32.80 34.45 34.51 33.93 32.63 32.93 32.29 30.47 29.60 28.34 27.39 26.94 26.57 26.86 26.51 25.43 24.45 24.08 25.39 26.14 27.61 28.94 30.20 29.49 28.86 29.40 25.52 23.95 23.14 23.79 24.62 24.54 25.04 26.22 25.94
31.77 29.63 28.57 25.08 32.41 30.58 29.87 32.27 33.12 31.47 31.52 31.70 31.06 28.94 28.22 29.52 28.07 26.47 25.17 25.02 24.82 24.57 24.95 24.28 24.22 22.84 22.88 23.23 23.36 25.36 27.67 28.50 28.15 27.67 27.40 27.57 26.98 23.58 22.45 22.05 22.76 26.65 26.43 27.54

GFSCGP_sfc_wetblb_108.txt.gz
Wetbulb
35.41 29.46 25.82 28.93 31.90 35.37 31.92 29.24 27.32 30.99 35.38 36.12 36.06 36.84 41.71 42.92 44.47 46.19 46.80 45.33 48.65 49.34 49.72 50.59 51.16 50.37 48.97 50.61 63.81 65.59 65.67 65.69 65.98 65.27 64.25 63.32 63.06 62.89 63.95 64.66 64.79 64.44 65.19 64.31
31.57 28.04 34.21 36.90 35.00 31.75 31.41 30.81 28.59 32.28 35.42 34.86 36.91 37.09 40.62 43.05 44.69 44.51 44.60 45.43 46.26 47.21 50.17 50.98 51.21 50.80 50.56 50.72 62.06 64.93 65.54 65.24 65.66 66.44 66.02 64.83 64.43 63.24 63.29 63.89 64.58 64.63 64.27 64.36
29.10 31.91 37.11 35.64 33.94 30.62 29.22 28.55 30.28 29.49 33.04 36.30 37.04 34.92 38.27 43.23 45.06 46.76 47.75 48.06 48.64 49.36 50.70 52.00 51.72 51.31 52.89 53.55 55.81 63.68 64.03 64.64 65.48 65.83 64.96 62.27 61.77 61.63 61.30 61.68 62.28 63.38 64.07 63.71
31.34 36.10 34.64 33.86 32.09 33.31 26.31 33.91 32.80 32.16 29.27 24.33 36.76 24.93 35.14 39.41 41.38 44.84 46.69 46.51 49.07 49.05 49.03 48.95 48.23 47.60 48.49 50.08 52.66 54.06 63.29 64.66 64.45 63.04 64.20 62.67 62.48 61.28 62.50 62.73 62.01 62.45 63.31 62.94
30.38 32.62 32.45 31.33 33.15 36.24 31.33 35.52 32.52 32.90 28.67 28.65 31.78 30.11 32.49 39.67 39.39 42.06 44.77 46.31 45.97 45.76 45.18 44.14 44.28 44.93 45.51 46.71 47.76 50.74 51.41 56.44 59.20 63.32 63.55 62.52 62.61 62.45 60.38 61.05 60.96 61.91 62.07 61.99
33.51 38.69 35.74 33.83 35.98 36.52 37.59 34.89 34.73 33.76 29.69 21.52 29.22 30.48 29.87 36.97 39.40 44.71 44.43 43.92 42.84 41.84 41.23 41.54 42.56 43.49 43.37 44.51 45.01 47.03 47.17 49.48 51.81 56.14 63.49 63.02 61.86 60.58 60.32 60.25 60.15 61.15 61.61 61.70
31.81 32.66 34.73 38.15 33.62 34.93 34.61 31.56 21.37 19.57 20.98 21.89 32.85 31.00 33.19 42.78 45.70 43.93 40.63 39.68 40.06 39.55 38.65 38.36 38.37 39.16 41.08 41.81 42.45 44.54 44.39 45.28 47.83 48.93 55.73 62.93 61.94 60.99 60.63 60.37 60.48 60.15 60.06 60.75
25.06 22.94 33.98 38.89 34.15 30.44 32.32 31.20 23.95 20.45 22.59 25.58 34.47 28.43 34.51 41.71 42.20 41.10 39.74 38.74 38.40 37.74 37.63 37.35 37.74 38.43 39.24 40.61 41.09 41.29 42.55 43.99 46.05 47.29 50.45 61.58 62.94 61.83 61.29 61.00 60.86 60.15 59.91 60.05
28.26 27.21 35.89 37.47 37.77 36.33 32.30 29.19 34.39 30.72 30.55 23.00 29.66 35.83 39.98 40.64 39.33 38.33 37.07 36.82 36.41 36.92 37.20 37.42 37.86 38.15 38.54 39.16 39.50 40.06 41.56 42.61 44.90 47.79 49.19 56.55 63.48 61.56 61.48 61.04 60.35 60.08 60.02 58.72
34.61 26.39 34.64 39.22 39.66 38.91 35.03 37.61 28.48 27.71 16.81 14.40 28.28 30.59 33.06 34.64 34.69 35.85 35.75 35.52 36.05 36.52 36.44 36.68 36.99 37.74 38.11 38.58 39.24 39.98 41.22 41.13 43.83 47.14 52.01 57.63 63.06 61.88 61.44 60.37 59.76 59.43 59.09 58.32
38.20 31.25 33.42 37.41 34.86 33.36 33.32 31.61 34.20 34.29 31.47 23.54 24.37 28.12 37.31 34.61 35.33 33.40 34.48 35.88 35.62 35.53 35.69 36.06 36.55 37.25 37.58 38.64 38.86 39.28 40.25 40.34 42.11 45.66 54.06 59.74 60.46 59.69 59.64 60.09 59.87 59.40 58.87 57.92
37.75 33.90 29.89 32.84 39.05 39.75 37.93 35.51 35.83 27.96 27.15 31.10 30.36 25.84 35.29 36.81 36.37 35.29 34.98 35.39 35.38 35.37 35.24 35.41 35.56 35.96 36.31 36.33 37.03 38.15 39.15 39.47 41.40 43.95 48.05 58.68 58.92 58.61 58.62 59.40 59.15 58.99 58.16 57.80
37.75 33.63 26.33 29.98 34.99 37.92 35.59 37.05 37.53 36.65 34.42 30.57 27.12 26.25 36.72 37.35 35.41 35.53 34.22 34.28 34.60 34.73 34.57 34.44 34.44 34.49 34.93 35.56 35.96 35.98 38.03 38.85 40.37 41.84 43.33 46.21 49.14 57.91 57.85 58.84 58.70 58.72 57.96 58.05
39.36 34.53 30.30 25.39 29.30 32.12 32.86 36.36 37.69 35.72 31.38 30.02 30.46 30.66 33.52 34.03 33.64 34.15 34.34 34.59 34.32 33.72 33.50 33.25 32.91 33.54 34.12 34.65 34.87 35.22 35.58 37.97 38.77 39.82 40.83 41.15 42.97 46.97 55.92 58.84 59.17 58.68 58.18 57.86
36.70 30.35 32.32 35.01 35.00 35.69 33.88 33.63 35.42 35.09 33.83 29.44 30.91 29.83 31.92 33.06 32.94 33.66 34.27 33.92 33.62 32.26 31.86 32.08 32.32 32.45 33.09 33.30 33.97 34.43 34.91 35.79 37.45 36.95 37.42 38.57 40.42 42.20 44.58 50.35 59.31 58.88 58.26 58.34
37.35 30.77 32.03 31.58 34.06 33.54 30.95 31.98 33.29 34.11 33.96 33.55 31.56 28.39 33.64 34.06 33.30 31.68 32.02 32.31 31.41 30.38 29.96 30.75 31.97 32.18 32.31 32.58 32.49 33.22 33.66 34.15 35.70 36.14 35.69 36.68 38.19 38.81 40.00 40.77 43.68 45.37 45.01 44.75
33.58 32.12 30.84 27.91 33.09 32.36 24.99 29.49 30.15 30.79 33.08 32.96 29.02 31.15 32.31 29.17 28.72 29.39 30.84 31.94 31.16 30.03 29.85 29.34 30.41 31.63 32.10 32.37 32.93 32.07 32.77 33.93 33.33 33.20 35.02 35.50 35.90 35.69 36.62 37.26 36.79 37.52 38.42 40.35
33.50 31.83 32.24 27.81 31.12 18.92 28.65 33.82 33.42 30.06 30.32 32.30 33.13 31.47 29.79 28.26 29.03 30.01 31.83 31.44 31.15 29.80 28.93 29.01 28.84 31.15 31.62 32.51 32.67 32.11 31.89 31.92 31.92 31.78 32.02 33.27 34.71 34.18 34.59 33.97 33.66 33.18 33.67 33.91
37.58 33.12 29.89 27.78 26.75 28.57 28.98 29.67 28.53 30.02 27.97 31.52 30.99 31.90 30.27 30.05 30.12 27.30 31.04 32.47 32.17 30.19 29.51 28.80 29.72 31.01 32.11 31.42 32.60 30.56 29.83 29.07 29.33 28.88 29.86 31.21 32.51 33.04 32.92 32.73 32.11 32.27 32.62 31.62
36.37 35.38 31.62 29.50 22.91 20.01 26.58 29.41 33.44 33.27 23.32 32.44 30.50 29.54 28.55 32.77 25.10 24.79 30.33 31.88 31.37 30.18 29.12 28.08 28.42 30.18 29.71 31.30 31.59 30.86 27.44 26.98 26.44 27.68 28.14 29.88 30.82 30.61 31.63 31.91 31.94 32.01 31.80 31.12
28.57 29.06 25.09 26.12 23.87 25.60 28.26 30.97 34.48 25.05 23.30 33.78 31.27 29.26 27.55 25.18 26.51 29.17 31.06 29.90 29.93 29.59 28.84 28.57 27.21 27.02 27.92 28.91 30.12 29.13 27.45 24.89 25.92 27.63 27.67 28.04 28.63 29.26 29.68 31.18 31.66 31.71 31.07 30.48
27.17 25.98 23.11 25.04 21.22 18.17 31.02 30.93 25.84 30.66 34.08 34.06 32.34 30.87 28.94 28.99 29.26 28.16 29.87 26.66 27.55 27.02 26.94 27.05 25.63 25.05 27.16 27.84 27.86 28.33 28.12 27.99 26.99 25.79 25.06 25.80 27.03 27.67 28.15 28.55 29.26 29.45 29.22 28.16
25.70 28.46 24.76 26.22 24.35 31.26 33.72 32.20 34.96 35.59 33.60 33.96 32.80 31.99 31.01 29.94 29.24 27.30 23.96 24.29 25.63 25.47 25.07 25.84 24.80 24.62 25.75 26.54 26.98 26.74 29.73 29.65 27.65 25.54 24.23 24.61 25.43 26.02 26.59 26.49 26.74 26.19 26.88 26.64
33.96 34.37 25.82 25.80 29.42 30.21 32.32 33.93 34.18 34.19 32.01 32.18 33.19 34.36 33.86 31.36 30.55 26.06 25.29 24.54 24.30 24.46 23.97 24.19 23.77 23.49 23.49 24.63 25.17 26.60 28.66 30.67 29.52 25.90 24.07 23.65 24.16 24.23 24.87 25.43 26.05 25.15 24.82 25.04
29.46 31.94 29.43 27.94 29.78 30.43 30.46 31.35 31.50 31.51 33.00 30.08 28.74 28.40 29.96 26.98 25.31 24.74 23.82 23.89 23.67 23.41 23.61 23.20 21.85 21.79 21.74 22.92 23.26 24.12 27.13 27.80 27.64 27.58 27.29 23.94 23.22 22.89 23.54 25.12 25.08 25.42 26.91 26.54
31.59 29.77 28.15 24.63 31.84 30.42 29.57 31.56 32.69 29.21 27.73 28.66 27.13 25.54 26.19 25.76 23.90 23.76 22.35 22.89 22.54 22.06 22.10 20.98 20.57 20.32 19.98 20.49 20.63 21.77 23.50 26.91 26.06 25.90 26.13 26.13 23.97 22.22 22.07 21.85 22.56 27.10 27.13 28.22

GFSCGP_sfc_wetblb_111.txt.gz
Wetbulb
33.59 28.65 25.15 28.42 29.24 30.16 28.60 26.73 25.65 30.34 34.20 32.10 30.91 31.19 33.98 37.94 40.50 41.99 43.51 44.05 44.94 47.83 48.11 47.89 48.64 48.29 45.96 48.43 62.73 65.42 65.58 65.44 66.00 64.96 64.41 63.75 63.93 64.21 64.05 64.43 64.55 64.55 64.10 63.39
30.52 26.67 32.08 34.72 34.07 32.28 30.51 27.51 26.86 30.54 33.95 33.44 31.94 30.17 34.09 37.60 41.70 42.95 43.84 43.62 43.35 45.30 48.85 51.32 50.66 51.11 51.50 51.57 52.91 61.22 64.89 64.95 65.80 65.45 65.18 64.85 64.85 63.49 64.09 64.01 63.77 64.39 64.15 63.69
27.69 30.63 35.13 33.19 31.28 29.20 29.55 28.13 28.05 26.97 31.11 34.77 33.21 28.34 31.43 37.56 41.53 44.55 45.65 46.58 46.06 46.42 47.14 47.68 46.68 45.50 46.29 46.66 48.98 58.64 63.01 64.55 65.14 65.05 64.92 62.24 62.28 61.83 60.00 63.02 63.83 63.74 63.91 64.06
30.22 34.78 32.65 31.24 29.56 31.18 26.02 33.78 32.09 29.34 27.07 20.67 31.71 19.69 30.20 35.18 38.18 42.11 43.75 44.13 43.64 43.30 42.94 43.22 43.35 43.22 43.51 44.25 45.95 49.12 59.98 64.89 65.14 65.23 64.96 63.11 63.11 62.06 62.47 62.60 64.09 64.53 63.77 63.02
31.12 31.43 30.74 29.62 31.09 34.50 30.15 35.32 33.02 31.45 27.77 27.39 27.50 23.35 27.06 37.35 37.17 40.29 41.43 40.61 39.64 39.49 39.62 39.87 41.04 41.89 42.36 42.86 43.32 46.44 49.29 51.42 53.15 63.05 65.04 63.71 62.94 63.37 60.50 60.86 60.63 62.42 63.23 63.08
32.89 36.21 34.51 33.29 35.72 35.36 36.59 33.32 32.76 31.10 28.04 21.31 25.93 25.84 26.22 32.09 38.21 37.90 37.91 37.20 37.57 37.75 37.59 38.22 39.73 41.05 40.54 41.30 41.66 43.64 45.05 47.21 49.31 50.68 55.95 63.25 62.67 62.10 60.29 60.73 60.05 60.87 61.46 62.68
32.17 31.87 34.70 37.59 32.24 34.22 32.23 28.68 19.47 20.81 14.92 19.00 28.93 25.83 29.10 37.40 38.32 38.09 37.26 36.28 37.04 37.47 37.46 36.47 36.78 37.52 39.00 39.23 39.94 42.06 42.51 44.22 45.68 47.20 49.44 53.33 62.78 60.75 61.15 60.98 61.12 60.24 60.25 60.07
25.99 24.88 32.95 38.14 32.88 29.84 30.34 29.32 23.44 16.39 20.83 24.19 33.09 25.78 31.90 37.03 37.60 38.46 37.68 37.54 37.14 36.65 37.39 37.55 37.32 37.52 37.86 38.86 39.70 40.10 40.75 42.48 44.30 45.97 46.73 49.55 52.52 62.82 61.18 60.73 60.92 60.49 60.53 60.66
28.80 25.71 35.21 37.18 37.74 34.38 31.76 27.96 34.16 27.73 29.95 26.35 29.87 34.51 35.85 36.41 35.20 34.24 35.46 36.15 35.70 36.30 36.55 36.40 36.95 37.25 37.59 38.31 39.17 39.66 40.40 41.84 43.18 44.47 46.65 49.72 51.00 60.57 62.33 60.88 60.48 60.43 60.52 59.87
34.92 27.45 34.14 38.24 39.19 36.73 34.54 37.48 29.48 30.08 21.25 12.75 26.65 28.28 27.23 30.45 32.52 32.91 31.83 33.65 34.47 35.20 35.73 35.74 36.00 36.66 37.21 37.41 38.23 39.25 39.91 40.68 42.11 43.29 45.25 48.65 52.44 56.44 63.08 62.24 60.19 59.81 60.11 59.36
36.62 31.99 31.32 36.60 34.61 31.95 32.83 30.61 32.81 33.33 28.75 19.64 19.56 24.88 33.79 31.46 32.37 32.19 32.01 32.69 33.37 33.56 33.80 34.45 35.22 36.08 36.62 37.02 36.93 37.04 38.15 39.21 40.34 42.44 44.43 47.52 55.33 58.56 62.48 61.64 60.36 59.95 59.76 58.72
36.99 34.55 27.73 32.02 38.76 39.42 37.42 34.22 34.61 26.40 25.85 29.84 27.39 24.40 33.82 34.80 34.32 33.95 33.13 32.55 33.50 33.88 33.64 33.90 34.41 34.76 34.83 35.21 35.94 36.13 36.38 37.78 39.51 41.33 42.76 44.30 46.50 49.84 59.75 60.25 60.14 59.60 59.42 59.11
36.98 32.35 26.00 27.43 33.34 37.20 34.47 35.56 37.24 36.15 34.34 28.12 24.67 24.60 35.45 35.19 34.36 34.52 33.53 32.13 32.50 32.74 33.18 33.36 33.30 33.29 33.70 33.95 34.65 35.24 35.86 35.98 38.42 39.43 40.59 41.85 42.73 44.17 46.38 52.35 59.01 59.32 59.00 58.44
39.10 33.95 30.28 24.95 28.53 33.85 31.72 34.87 36.81 35.01 29.69 27.48 26.96 27.41 31.17 32.16 31.82 33.13 32.67 32.28 30.95 30.98 31.89 32.33 32.02 32.55 33.13 33.44 33.61 33.85 34.85 35.72 36.31 37.97 38.18 38.90 39.61 41.57 42.18 43.63 47.42 58.66 58.76 58.08
36.88 29.86 32.87 32.64 33.31 31.90 30.92 32.27 36.08 33.47 31.91 26.83 27.60 26.59 28.82 30.48 30.73 32.54 32.33 31.64 29.84 29.07 29.31 30.85 30.82 31.27 32.00 32.51 32.53 32.82 33.51 34.42 35.35 34.83 35.79 36.73 38.24 39.19 39.06 38.88 39.30 42.23 57.04 58.01
37.54 29.68 31.83 30.04 30.93 30.25 27.37 29.81 29.87 33.01 32.12 30.18 28.40 25.77 30.74 32.17 31.93 30.69 30.92 30.47 28.41 27.68 27.79 28.97 30.63 30.54 31.03 31.24 31.00 31.41 31.60 32.41 33.82 33.84 33.43 35.41 36.53 37.00 36.80 36.76 36.80 36.41 37.71 41.34
33.70 31.89 30.72 26.45 32.59 30.84 23.66 27.30 28.23 29.00 30.50 31.63 26.46 28.57 30.45 27.84 27.59 28.50 29.45 29.58 27.42 26.65 27.03 27.70 29.61 30.46 30.45 31.32 30.33 29.94 30.24 31.41 30.86 31.30 32.64 33.17 34.70 34.88 35.15 35.44 35.33 34.76 34.48 34.55
32.76 31.94 32.76 28.00 30.09 18.86 27.67 32.13 33.13 28.22 28.57 31.46 30.08 28.94 28.14 27.20 28.32 29.63 31.28 30.02 27.34 26.73 26.51 27.83 29.15 29.78 30.74 31.02 30.96 29.03 29.15 29.22 29.46 29.26 29.98 31.46 32.22 32.95 33.70 33.49 33.10 33.19 33.46 32.84
36.51 32.98 30.19 27.48 24.25 27.12 28.11 28.62 27.53 28.45 26.54 30.27 30.72 29.46 29.24 29.72 30.31 26.98 30.83 31.22 28.01 27.10 27.03 26.88 28.99 29.04 29.15 29.74 30.84 26.95 27.11 27.10 27.33 27.14 27.73 28.72 30.53 31.09 31.43 31.49 31.79 32.03 32.08 31.65
35.54 33.77 30.54 28.89 22.51 19.25 24.80 28.67 32.65 32.33 23.29 30.64 29.93 28.48 28.72 31.22 23.71 23.46 29.94 30.06 28.94 27.53 26.93 25.59 26.72 27.83 27.43 27.94 29.79 26.81 24.64 24.54 24.27 25.40 26.54 27.32 28.25 28.24 29.69 29.83 30.50 31.01 31.12 30.68
27.81 28.65 24.95 26.00 23.50 24.62 27.86 31.23 34.18 24.06 23.52 32.05 29.68 28.01 26.20 24.54 25.88 28.93 27.49 25.42 26.74 26.15 25.86 26.07 25.27 25.58 26.48 26.77 28.47 27.76 25.90 23.53 23.76 24.60 25.47 25.86 26.04 27.01 27.62 28.74 29.36 29.62 29.35 29.59
25.61 25.34 22.85 24.90 20.00 16.55 30.01 30.83 25.46 30.04 33.44 31.70 30.60 29.17 27.57 28.33 27.51 25.46 23.62 21.88 24.06 23.87 24.31 24.82 23.69 24.12 25.09 25.60 26.48 26.88 27.92 27.60 25.51 24.57 24.17 24.11 24.42 25.51 26.01 26.23 26.35 27.08 28.07 27.91
24.64 27.23 24.70 25.38 23.14 30.84 33.62 31.68 33.76 33.85 31.25 33.80 30.90 30.63 30.21 27.44 25.09 21.04 20.25 21.67 23.20 23.02 22.46 23.54 22.69 22.79 23.27 23.95 24.42 24.94 27.09 28.94 27.04 24.98 23.37 23.66 24.63 25.06 25.20 24.76 24.25 25.01 26.25 26.29
31.58 33.22 26.07 25.21 28.96 29.46 31.10 31.03 32.84 33.46 28.98 28.98 33.32 33.10 31.79 25.84 24.50 22.53 22.66 22.65 22.50 22.10 21.09 21.75 21.49 20.72 21.01 22.73 23.19 23.82 26.00 27.16 27.14 26.50 23.88 23.25 22.89 23.93 24.73 25.12 25.77 25.28 24.74 24.37
29.95 31.28 28.24 26.69 29.08 28.74 29.41 29.90 29.95 29.67 29.17 27.35 27.32 27.11 25.95 24.88 23.22 22.86 21.94 21.95 21.33 20.93 20.94 20.37 19.87 19.96 19.36 20.43 20.61 21.08 23.46 26.19 25.97 25.94 26.15 23.33 22.66 22.20 22.19 24.37 25.18 25.44 26.95 27.65
31.48 29.45 26.81 20.99 29.45 29.23 27.22 30.32 29.67 27.67 26.92 26.84 25.16 23.60 24.34 24.18 22.60 22.16 21.12 21.59 20.22 19.65 19.77 18.53 18.17 17.82 17.84 18.19 18.31 19.07 21.13 24.02 24.83 24.61 24.77 24.85 22.50 21.11 21.32 20.19 20.55 25.79 25.90 27.38

GFSCGP_sfc_wetblb_114.txt.gz
Wetbulb
31.96 26.61 24.25 26.51 28.26 30.12 27.99 25.70 23.55 27.88 32.41 30.17 29.49 30.09 32.79 35.70 36.79 35.97 36.83 38.69 41.63 43.48 47.19 49.56 50.19 48.66 46.69 50.73 62.94 65.52 65.37 65.54 65.96 65.75 64.68 63.82 63.63 63.95 64.36 64.57 64.33 63.83 63.47 63.13
28.79 25.69 31.84 32.80 31.67 30.09 28.99 26.32 25.75 29.56 32.85 31.81 29.66 28.94 32.77 35.44 36.24 37.40 37.73 38.12 42.03 42.35 46.95 47.51 45.91 45.30 45.77 47.41 50.45 58.34 64.85 64.93 65.80 65.95 65.57 64.98 65.21 65.07 64.82 64.93 64.41 63.97 63.27 62.93
26.13 30.32 34.39 32.07 29.87 27.84 27.83 25.98 25.80 25.86 30.84 32.80 29.15 25.70 29.37 34.64 36.41 38.04 39.75 42.04 43.75 43.29 42.71 43.58 43.76 42.34 42.61 43.06 45.10 51.06 61.89 64.53 65.39 65.76 65.58 62.42 63.38 62.86 63.33 63.66 63.55 63.65 63.39 62.98
29.31 33.27 32.09 30.20 28.24 29.41 23.34 30.97 29.82 28.75 27.76 21.60 30.02 18.70 27.86 31.63 33.41 36.76 38.53 37.67 37.53 38.16 39.52 40.34 40.50 40.35 40.34 41.19 44.25 45.94 53.16 61.74 64.97 65.98 65.07 63.82 63.05 62.41 63.63 64.27 64.60 63.99 63.10 64.04
29.65 30.86 30.43 29.49 30.01 31.92 27.75 33.64 31.28 30.35 28.05 26.68 25.86 23.29 24.79 33.86 33.46 36.34 36.86 37.10 36.38 36.24 36.55 36.86 37.95 39.69 39.86 40.62 42.00 44.22 48.98 49.73 51.01 54.91 65.22 64.26 63.50 62.99 61.32 62.00 63.51 63.90 63.85 63.81
31.83 35.59 33.41 32.09 34.41 34.06 34.88 31.25 30.92 30.49 26.66 20.35 24.89 23.43 22.95 33.35 36.62 36.50 37.52 37.18 37.89 37.18 37.07 37.88 38.51 39.19 39.26 39.96 41.52 43.54 46.12 46.43 48.15 50.61 52.36 60.98 63.69 62.84 60.87 61.30 62.15 62.74 62.91 62.75
31.59 31.08 33.27 36.12 31.37 32.85 31.21 27.26 19.58 18.16 20.38 19.26 27.27 22.42 26.91 34.40 36.36 35.98 35.83 36.78 37.07 37.93 37.34 37.11 37.19 37.83 39.20 39.47 40.46 41.75 42.86 43.92 45.85 47.51 49.50 51.04 53.72 63.02 61.76 61.20 61.73 61.84 62.09 61.86
27.15 23.07 30.28 34.92 32.20 29.36 28.25 28.23 23.59 17.10 18.71 23.75 30.36 24.25 27.85 34.67 35.91 36.35 36.67 36.86 36.94 36.72 37.15 36.95 36.89 36.82 37.39 38.24 39.00 39.95 40.91 42.55 44.14 45.51 47.62 49.72 51.66 52.90 62.24 61.27 61.34 61.08 61.45 61.79
26.59 25.16 34.44 36.77 36.82 34.18 28.98 25.90 33.86 27.44 28.25 24.45 29.69 30.00 33.29 34.48 33.22 33.58 33.14 34.86 34.65 35.33 36.04 35.95 36.60 37.03 36.97 37.38 37.73 38.27 39.47 40.87 42.24 43.41 46.35 48.10 50.06 52.35 53.75 61.78 61.21 60.51 60.39 60.57
31.55 27.66 33.24 35.79 37.82 35.03 32.98 36.00 28.39 28.73 21.38 18.68 25.55 24.76 24.60 27.74 29.89 30.82 30.75 31.17 33.23 34.74 34.78 35.07 35.52 35.99 36.95 37.20 37.86 38.41 38.23 39.23 40.43 41.99 44.13 46.35 48.68 53.08 53.13 57.34 60.68 60.59 60.13 58.88
32.50 32.13 30.06 34.19 32.79 30.41 32.28 30.00 32.62 32.35 28.81 22.67 19.82 22.25 32.49 29.71 30.23 29.99 30.50 31.76 32.31 33.62 33.57 33.81 34.27 34.95 35.37 36.68 36.43 36.82 36.73 37.08 38.68 40.39 42.41 43.91 45.11 47.36 52.95 56.19 61.91 61.06 60.44 59.65
34.15 34.07 25.99 29.43 36.57 38.57 36.41 33.70 33.85 28.25 25.17 29.23 26.78 21.98 33.05 33.55 33.23 33.05 30.67 30.91 31.96 32.94 33.05 32.34 33.05 33.75 33.63 34.04 34.68 34.90 35.56 35.82 37.02 39.40 40.57 41.84 42.89 44.07 45.07 47.65 49.33 60.98 60.26 60.16
36.13 31.52 25.32 26.05 31.57 36.11 33.14 34.89 35.49 35.04 34.39 26.63 23.60 22.92 35.07 34.39 32.81 32.61 29.72 30.16 30.40 31.06 31.50 31.56 31.70 31.85 32.58 32.83 33.21 33.59 34.36 35.03 36.43 37.20 38.30 39.24 39.85 40.83 41.35 42.34 44.61 47.08 59.08 59.78
38.61 34.68 30.36 23.08 27.44 30.96 28.40 33.63 36.51 35.03 27.25 25.09 24.74 25.06 28.30 29.74 29.67 30.95 29.44 29.76 28.88 28.98 29.82 30.16 29.96 30.78 31.30 31.51 31.94 32.15 33.02 33.96 35.19 35.86 36.00 36.69 37.61 38.71 39.56 40.45 41.30 41.95 43.97 52.73
36.65 30.23 31.28 31.24 31.03 30.15 28.19 30.55 31.64 28.80 29.10 23.88 24.75 23.81 26.45 28.39 28.90 29.97 30.13 28.62 27.52 27.71 28.30 29.47 29.61 29.81 30.76 30.01 30.36 31.04 31.39 32.25 33.29 33.69 34.18 35.08 36.34 37.10 37.72 38.40 39.32 39.71 39.38 39.61
36.04 29.11 31.76 30.53 33.40 32.38 25.64 27.85 28.22 29.83 29.85 27.51 26.37 23.73 29.49 29.88 30.03 29.11 28.29 26.85 25.61 26.09 27.32 28.41 29.14 29.66 29.55 29.69 28.40 29.21 29.60 30.62 32.17 31.73 31.82 33.69 34.68 34.81 34.95 35.75 36.43 37.32 37.32 36.96
32.10 32.29 29.93 26.89 30.69 29.16 22.27 25.72 26.47 27.07 29.45 30.21 24.05 26.87 28.98 26.30 26.37 27.24 27.93 26.28 25.08 25.57 26.46 27.30 27.49 28.22 29.15 29.30 27.51 27.36 28.21 29.67 29.69 29.82 30.48 31.13 32.66 33.01 33.45 33.87 33.81 34.04 34.84 35.94
31.40 32.40 32.22 28.66 29.05 18.24 25.93 31.44 31.18 27.23 27.29 30.00 27.81 27.49 27.40 26.24 27.45 28.56 28.99 26.36 24.85 25.09 25.27 26.13 27.18 27.64 27.79 29.45 27.44 26.71 27.42 27.30 27.30 27.51 28.15 28.92 29.96 30.92 31.73 31.99 31.62 32.04 32.48 32.70
34.80 33.12 29.57 26.93 23.99 26.23 27.68 27.41 26.92 26.89 25.27 29.13 30.11 30.23 29.29 29.29 29.32 25.54 29.59 27.31 25.63 24.58 24.88 25.34 27.01 27.16 26.21 27.72 28.57 25.91 24.48 24.77 24.90 24.99 25.89 26.83 27.97 28.66 29.28 29.46 30.00 30.77 30.85 30.51
34.06 33.37 29.79 27.60 22.33 17.53 23.98 28.24 32.64 31.81 22.30 29.12 28.36 26.79 28.30 30.71 22.41 21.80 25.25 25.11 24.46 24.54 24.60 24.21 24.82 24.97 25.49 26.93 29.81 27.36 24.08 23.30 22.84 23.87 24.39 25.32 26.94 26.92 27.51 28.12 28.52 29.91 30.77 30.13
26.95 28.35 24.71 25.44 22.72 23.60 27.42 30.78 34.18 23.31 22.07 29.50 27.91 25.90 25.02 23.51 24.37 25.08 24.95 23.23 23.96 23.72 23.91 24.50 23.96 23.26 23.83 25.51 27.61 27.03 27.20 23.26 23.85 24.10 24.82 24.49 24.27 25.65 25.55 26.73 28.39 28.62 28.87 29.62
24.27 24.05 22.87 25.60 21.10 18.53 31.06 31.43 25.33 29.93 31.28 30.30 28.55 28.17 26.92 25.00 23.85 22.32 21.63 20.12 22.07 20.98 21.56 22.59 22.06 22.21 22.92 23.69 24.44 24.87 25.10 27.65 25.84 24.63 23.66 24.11 24.88 24.98 25.34 24.67 24.88 26.23 27.22 27.65
24.82 26.82 24.72 24.58 22.84 30.36 32.21 30.70 32.34 31.39 32.84 30.85 29.84 29.24 26.73 23.98 20.00 19.26 17.47 18.76 20.87 20.48 19.88 21.32 20.46 20.66 21.11 21.89 22.24 22.28 24.53 26.80 27.21 25.04 23.50 23.12 24.61 25.39 25.39 25.62 25.84 25.31 24.46 25.09
31.42 32.72 26.39 26.18 28.32 29.25 30.12 30.59 32.04 29.99 28.45 30.82 32.15 29.82 26.11 23.47 22.83 20.47 21.41 20.89 20.48 19.63 18.93 19.29 19.56 18.92 18.86 20.19 21.16 22.04 23.67 26.08 26.14 25.40 24.29 23.23 22.54 22.71 24.73 25.12 25.38 25.54 25.83 25.04
29.89 31.20 28.10 26.33 28.30 28.89 29.29 29.13 29.21 28.04 27.81 25.93 25.80 25.89 24.83 23.81 21.99 21.67 20.68 20.08 19.49 18.76 18.55 18.29 17.96 18.07 17.60 18.48 18.82 19.63 21.88 25.04 24.76 24.99 24.83 24.06 22.51 21.77 20.90 22.40 24.41 24.05 25.58 27.24
31.63 29.05 27.24 24.78 29.58 28.40 28.09 29.48 30.31 27.35 25.57 25.38 23.84 22.68 22.93 22.62 21.21 20.81 20.54 19.84 18.25 17.32 17.34 16.58 16.76 16.83 16.69 16.88 16.66 16.95 19.01 22.50 23.92 23.65 23.82 23.30 23.45 20.69 20.36 18.99 17.92 23.98 24.86 25.87

GFSCGP_sfc_wetblb_117.txt.gz
Wetbulb
36.07 32.67 30.56 33.32 32.96 33.11 31.46 29.13 27.88 31.43 34.88 33.08 32.16 32.72 35.34 39.12 39.56 38.90 39.52 40.70 41.52 42.24 45.05 46.77 52.18 51.99 52.00 56.43 64.03 67.15 67.19 66.63 66.06 65.85 64.62 63.73 63.16 64.00 64.70 67.03 67.34 66.55 66.19 66.58
33.26 30.52 35.91 35.19 34.19 31.85 30.77 28.46 28.43 32.06 34.89 33.43 32.46 32.27 36.41 38.36 38.67 39.59 39.47 39.80 41.12 42.52 44.12 46.58 49.00 48.22 48.85 50.09 54.11 66.35 67.32 67.21 65.98 66.21 65.95 66.40 65.47 65.38 65.30 65.70 65.78 66.50 66.93 66.01
31.18 34.65 35.61 33.60 32.57 30.08 30.62 28.53 28.92 28.58 32.77 34.10 32.53 30.92 34.10 38.30 39.64 40.59 40.98 41.67 42.80 43.36 44.02 45.05 45.41 45.43 46.52 47.09 49.52 53.94 64.84 67.75 67.21 66.81 66.60 66.41 66.16 66.23 64.95 64.70 64.68 65.01 66.86 66.39
33.09 35.72 33.66 32.69 31.78 32.73 27.17 33.12 31.59 30.28 28.98 24.67 33.65 22.02 32.21 35.90 38.05 38.90 39.08 38.39 37.50 38.79 40.82 41.82 42.50 43.16 43.70 44.92 47.86 51.94 56.34 65.80 66.78 66.47 66.31 64.92 64.35 63.04 64.76 65.22 65.34 64.57 65.66 65.77
33.24 33.61 33.21 32.61 33.40 33.92 31.05 34.06 32.90 32.31 29.98 28.92 29.93 25.30 29.58 36.08 32.83 34.81 35.59 37.28 38.03 38.47 39.46 39.52 40.08 41.80 42.64 43.76 44.95 47.80 51.39 51.72 54.08 62.80 66.03 64.81 64.99 65.74 65.66 65.47 64.57 64.97 64.96 65.30
34.68 38.57 36.41 35.04 36.07 35.70 36.70 33.93 33.81 33.25 29.91 22.49 28.19 26.64 28.30 28.52 30.32 32.71 34.10 36.58 37.49 37.98 38.79 39.30 39.70 40.56 40.90 42.02 43.41 45.49 48.39 48.93 50.18 52.69 54.88 62.59 65.21 64.90 63.53 64.48 63.89 64.41 64.90 64.39
32.97 34.20 36.46 37.40 33.67 35.58 34.18 31.42 25.13 23.40 23.78 21.91 30.81 25.91 27.44 32.71 33.37 33.15 31.83 33.10 36.37 37.39 37.96 38.18 37.90 37.81 38.83 38.96 40.18 43.27 45.64 45.40 47.00 48.96 50.73 51.98 53.74 58.51 63.73 64.02 64.45 63.62 63.46 63.84
26.22 25.79 33.19 36.62 34.89 32.95 32.60 31.50 25.62 18.99 21.24 24.34 31.46 24.86 26.54 34.50 34.19 34.13 34.39 32.36 34.20 34.99 36.43 37.64 37.72 37.21 36.95 37.95 38.39 39.44 42.33 43.49 45.16 47.70 48.79 51.07 51.99 53.38 54.98 63.25 64.44 64.83 63.75 63.95
25.51 26.64 36.64 37.55 38.87 37.22 32.23 29.30 35.03 28.72 29.38 25.47 28.41 29.25 32.71 32.48 31.82 32.30 32.07 31.80 31.35 32.85 34.51 35.07 36.55 37.28 37.34 37.59 37.71 38.00 39.28 40.52 41.84 44.06 45.95 48.03 50.19 51.29 54.11 55.24 61.72 63.72 65.23 64.15
30.30 26.32 33.99 36.82 39.77 38.64 35.80 37.14 30.43 30.51 22.50 20.63 26.29 24.48 23.38 27.11 28.81 29.72 29.02 29.44 30.38 32.38 32.49 34.14 34.80 35.25 36.03 36.68 37.56 37.97 38.33 38.36 39.71 41.41 43.63 45.51 47.12 48.50 51.44 55.77 55.83 61.18 62.75 63.55
32.83 29.23 30.61 35.37 34.24 33.36 34.00 32.41 33.90 34.41 31.16 25.28 23.14 22.69 31.64 29.42 29.75 28.16 28.58 29.69 30.08 30.67 31.34 32.14 33.82 34.41 34.56 35.40 35.84 36.17 36.43 37.23 37.95 39.81 41.29 42.35 43.63 45.21 46.86 49.36 53.43 53.86 61.69 61.76
34.23 32.97 26.12 30.45 37.15 39.75 37.55 34.95 34.83 28.00 26.97 31.15 26.23 22.43 33.10 33.07 31.76 30.09 29.19 29.33 30.26 30.73 31.48 31.69 32.61 32.72 33.08 33.27 33.83 34.05 34.82 35.45 36.89 38.14 39.36 40.03 40.88 42.10 43.02 43.72 45.31 48.67 50.61 61.63
35.59 31.04 26.42 28.79 33.46 34.20 32.13 34.71 35.62 35.26 34.12 29.91 25.17 23.32 33.76 31.81 31.07 30.24 28.26 28.55 29.30 30.07 30.14 30.97 30.77 31.38 31.32 31.86 32.22 32.55 33.90 34.76 36.32 37.40 37.58 37.89 38.22 38.91 39.97 41.06 42.51 44.00 46.03 49.05
38.33 33.29 28.59 23.90 26.43 31.12 27.07 30.14 34.06 34.89 28.02 24.02 23.82 23.55 26.89 28.36 27.85 28.15 28.01 27.93 28.74 28.94 29.02 29.12 29.47 29.75 29.70 30.18 30.48 31.01 31.81 33.87 35.31 35.44 35.50 36.07 36.38 37.25 37.84 38.91 40.38 41.07 42.36 42.28
35.75 29.75 32.02 32.44 31.72 30.39 28.73 27.60 29.40 27.72 29.42 24.12 24.40 23.02 25.64 27.30 28.09 27.54 28.07 28.04 27.01 27.32 27.11 27.72 27.56 28.39 28.62 28.01 28.82 29.96 30.85 31.90 33.22 33.37 33.76 33.91 35.69 36.58 36.58 36.89 37.64 38.93 39.28 39.95
36.24 29.61 32.02 29.92 33.65 32.48 26.91 27.80 28.25 29.74 28.44 26.37 26.16 23.64 29.02 29.49 29.29 27.25 26.44 25.92 25.09 25.46 25.94 26.65 27.61 27.63 28.29 27.92 27.38 28.11 28.98 30.40 31.34 30.97 31.51 33.27 33.88 33.76 34.09 34.59 35.18 35.78 35.89 36.72
30.87 29.97 30.13 27.17 32.19 29.93 24.08 26.01 26.78 27.57 29.08 29.51 24.50 26.74 28.32 25.90 26.25 25.41 25.52 24.99 24.06 24.72 25.36 25.92 26.48 26.84 27.94 28.78 28.12 27.21 27.97 29.83 29.61 29.70 29.85 30.87 32.26 32.57 32.94 33.02 33.56 32.92 33.87 34.07
31.26 29.74 31.32 28.58 29.73 19.91 27.89 31.35 30.76 26.91 27.52 29.82 28.11 27.83 27.21 26.04 26.90 26.91 26.44 24.78 24.05 24.67 25.03 25.15 26.11 26.27 27.63 30.05 29.66 28.23 27.99 27.95 27.97 27.37 27.66 28.54 30.12 31.47 32.07 32.02 31.96 31.95 32.29 32.55
33.73 31.85 28.63 27.40 25.20 27.11 27.81 27.93 27.92 27.33 25.16 28.84 28.44 29.82 28.27 28.35 29.17 24.41 26.07 25.83 24.79 24.96 25.57 25.62 26.37 26.15 27.30 28.32 30.41 29.29 26.90 26.76 26.25 25.62 26.47 27.25 28.50 28.94 29.92 30.35 31.27 32.06 31.62 31.30
35.01 34.23 30.21 28.70 24.01 20.42 24.49 29.14 32.71 32.60 22.86 28.91 28.24 27.54 27.25 31.48 25.01 22.91 24.94 24.66 24.71 25.25 25.64 25.18 25.75 25.86 25.78 26.93 29.21 28.74 27.46 25.64 24.73 25.29 26.30 26.94 28.40 27.64 27.76 29.12 30.03 31.91 32.70 31.82
27.80 28.59 25.23 25.24 24.07 23.88 27.83 31.52 34.80 23.74 23.80 29.06 28.24 27.42 27.47 24.26 25.18 24.97 25.14 23.67 24.05 24.16 24.82 25.48 25.34 23.94 24.08 25.84 27.37 26.13 26.96 27.11 26.85 27.33 27.17 27.50 27.65 28.25 28.51 29.86 30.32 30.25 31.67 31.73
24.93 24.21 23.71 25.34 22.59 19.81 30.75 32.45 26.88 28.95 31.52 29.88 29.70 28.32 26.23 25.80 24.99 23.75 22.88 22.03 22.87 22.35 23.31 24.26 24.09 23.63 24.15 25.05 25.38 24.59 25.02 27.53 29.12 28.02 26.96 27.12 27.48 28.00 28.84 28.31 29.65 30.03 28.93 29.09
25.49 27.74 25.01 24.85 23.53 30.18 32.83 30.41 32.26 34.55 31.39 30.90 29.84 28.62 27.79 25.16 22.95 22.50 21.63 21.45 21.65 21.89 22.20 23.45 23.20 23.25 23.50 23.99 24.00 22.70 24.36 27.21 27.45 28.24 26.95 26.56 26.84 27.03 27.97 27.90 28.20 28.20 28.42 27.01
30.91 32.93 27.13 27.12 28.79 29.15 30.30 31.80 30.35 31.02 30.53 32.07 30.44 28.48 27.63 25.22 24.51 23.11 22.77 21.92 21.55 21.18 20.87 21.98 22.32 21.58 21.16 22.80 23.14 23.59 24.79 27.41 27.49 26.30 26.87 26.85 25.99 26.17 26.20 26.77 27.12 26.89 27.61 26.84
30.66 32.05 28.15 26.64 28.23 28.62 29.25 29.85 29.42 28.48 28.83 27.57 27.33 26.94 25.89 25.22 23.32 23.01 21.33 20.93 20.40 20.19 20.37 20.83 20.54 20.19 19.99 21.41 21.72 22.59 23.85 25.98 26.22 26.08 26.03 26.43 26.22 25.64 25.10 24.96 24.79 25.09 26.64 26.65
32.01 29.52 28.00 26.17 30.23 29.44 28.29 30.34 30.18 27.75 26.39 26.50 25.64 23.91 24.28 24.51 22.57 22.91 21.77 21.29 20.50 19.10 19.44 19.16 19.06 18.80 18.94 19.53 19.85 20.50 22.39 24.64 24.96 24.50 24.80 24.64 25.31 25.19 24.44 23.65 24.23 23.81 23.61 24.13

GFSCGP_sfc_wetblb_120.txt.gz
Wetbulb
41.64 39.17 37.64 38.26 38.87 38.17 36.74 35.44 35.17 38.60 41.06 38.15 37.58 38.36 40.77 43.45 43.91 44.04 44.58 45.24 45.88 46.71 48.79 48.81 49.87 51.24 51.58 53.78 56.87 57.78 58.92 66.93 69.30 67.81 66.86 66.65 66.37 67.40 68.31 69.36 70.04 69.96 68.13 68.43
39.56 37.89 39.80 39.72 38.78 37.17 36.97 35.18 35.57 38.70 39.40 38.76 38.47 38.21 42.23 43.29 44.44 45.20 44.95 45.38 45.72 46.63 47.90 48.37 49.13 50.67 54.27 54.96 55.89 58.55 60.91 63.44 68.83 68.89 68.23 67.41 67.40 67.27 68.02 68.69 69.32 69.95 67.51 67.96
37.47 39.33 39.59 38.74 38.62 36.61 37.33 35.49 35.93 35.04 38.60 40.84 38.90 37.75 39.99 42.74 43.45 42.48 42.62 42.86 43.67 44.18 45.06 47.51 49.91 51.29 52.40 53.00 54.54 56.36 62.62 64.12 68.16 68.16 68.62 68.00 68.04 67.70 66.38 67.26 67.96 68.46 68.79 67.38
38.97 40.77 37.93 38.19 37.28 38.92 33.96 38.66 36.60 35.42 35.41 32.06 39.49 29.14 38.39 39.37 39.06 38.59 38.86 37.47 38.70 39.20 41.12 42.58 43.83 44.83 46.68 48.10 50.23 55.09 60.05 63.77 67.15 67.24 67.40 65.74 66.55 65.14 66.78 67.18 67.54 66.98 67.72 68.55
37.98 38.17 37.96 37.30 38.08 38.59 36.19 40.06 37.25 36.98 35.80 35.63 36.47 32.28 37.21 37.65 33.05 33.92 35.22 35.48 36.27 37.61 39.06 39.33 40.02 41.27 42.52 43.31 44.93 50.30 53.29 53.41 56.13 66.61 67.06 65.51 67.55 67.92 68.39 67.94 67.35 66.56 66.89 68.18
39.97 43.24 40.36 40.24 40.71 40.43 41.08 38.52 39.28 39.28 36.32 29.63 34.63 32.12 34.06 30.38 30.17 31.92 34.50 34.35 34.62 34.85 36.80 38.37 39.73 40.50 40.36 41.48 42.19 45.92 49.53 49.09 52.11 55.22 61.48 66.06 64.85 66.97 67.43 66.56 66.55 65.77 66.06 66.04
38.06 39.18 41.23 41.41 38.30 41.37 38.75 37.01 31.53 29.83 29.94 29.81 37.03 32.43 29.42 32.52 34.12 33.71 32.31 33.29 34.08 33.96 34.17 35.49 36.68 37.95 39.86 39.70 40.40 43.06 45.47 46.51 49.87 52.58 54.01 56.99 58.45 61.68 66.38 66.56 66.48 65.33 65.19 64.27
32.13 31.66 38.73 41.03 38.52 36.66 37.82 36.52 30.52 22.38 26.19 29.79 35.64 29.88 30.20 34.47 35.35 34.48 33.56 32.90 33.89 32.57 32.96 33.06 33.73 36.36 37.50 38.84 38.93 40.39 41.65 42.73 45.85 48.19 51.56 53.14 54.41 54.98 56.56 59.19 61.70 67.05 65.63 65.43
31.11 31.04 39.72 40.34 41.75 40.93 36.90 33.95 39.22 31.36 33.34 28.32 33.02 31.30 33.27 35.81 33.45 32.61 31.54 31.27 31.48 31.42 31.82 31.74 33.68 35.48 36.68 38.34 37.00 38.90 40.40 40.91 42.62 44.66 47.90 49.08 50.89 51.59 53.10 54.96 56.97 57.95 66.11 65.73
34.40 28.77 37.45 39.19 41.86 42.54 39.92 40.91 31.96 33.63 25.35 24.74 29.68 27.75 26.77 28.68 28.98 31.07 29.40 29.60 30.32 31.40 30.78 30.96 32.47 33.15 35.24 36.67 36.55 37.31 38.65 39.46 40.28 42.30 44.42 45.86 47.23 48.85 50.05 52.80 55.10 56.97 57.44 63.08
36.66 32.28 34.42 38.65 37.23 36.05 37.11 35.20 35.81 34.81 33.59 27.52 26.59 26.06 32.16 30.04 29.86 28.85 28.74 29.66 29.95 30.42 29.68 30.17 30.99 32.49 32.47 34.45 35.73 35.81 36.59 37.45 38.56 40.12 41.17 42.35 43.68 44.90 46.21 46.91 48.68 51.20 54.09 54.85
36.99 34.44 30.50 34.16 40.48 40.18 39.19 36.63 35.91 30.71 29.89 33.19 31.82 26.39 33.79 32.26 31.60 30.68 29.55 29.74 30.57 30.84 30.56 29.97 30.65 30.86 30.46 31.27 32.77 33.92 35.62 36.52 37.07 38.53 39.40 39.62 40.22 41.19 41.97 42.99 44.43 46.74 49.58 50.88
38.63 33.38 29.68 33.70 37.27 38.72 33.64 34.25 34.36 34.26 35.11 31.13 28.65 25.69 33.55 32.38 31.06 30.78 28.81 29.42 30.19 30.09 30.63 29.91 29.77 29.50 29.42 29.70 31.47 33.33 34.45 37.37 38.71 38.27 38.33 38.25 38.49 38.52 39.27 39.91 41.34 42.61 44.34 45.90
39.37 34.80 31.81 28.19 28.18 31.80 29.31 30.88 33.72 35.11 32.22 28.68 27.82 25.78 28.01 29.30 28.53 28.86 28.93 29.23 29.60 29.49 29.35 29.86 30.04 29.96 29.64 29.92 30.57 31.64 34.16 35.86 37.33 37.82 38.46 36.87 37.07 38.06 37.89 38.36 39.00 40.14 41.11 41.89
38.14 30.52 33.80 33.51 33.35 33.93 30.82 29.69 31.26 29.74 31.46 29.32 27.06 24.93 26.30 28.23 27.96 28.21 29.01 28.95 28.41 27.51 27.49 28.06 28.98 29.29 30.73 29.50 29.32 31.88 33.43 34.04 35.46 35.66 36.27 37.36 36.79 36.85 37.23 37.38 37.41 38.13 37.90 38.80
38.03 32.31 33.49 31.51 35.25 34.52 29.21 30.04 31.20 31.28 30.76 28.63 28.34 25.23 29.61 30.01 29.68 28.12 27.48 27.35 26.43 26.88 26.80 27.14 27.80 28.09 28.89 29.77 29.72 29.79 31.11 32.38 34.47 34.38 34.05 35.52 37.08 36.55 35.22 35.99 36.40 36.42 35.82 36.22
34.21 31.78 30.37 28.99 33.93 32.47 28.35 28.05 29.45 30.00 31.16 31.54 27.64 28.16 30.02 28.36 26.88 25.97 26.41 27.18 26.30 26.70 26.85 26.65 27.03 27.96 28.28 30.12 30.77 29.87 30.67 31.84 31.98 32.60 33.05 33.89 34.60 34.85 35.34 34.64 34.37 33.31 33.77 34.04
33.12 30.90 30.73 30.25 32.00 24.77 29.41 33.48 33.15 29.83 29.79 31.71 30.82 29.68 29.38 28.07 27.61 27.78 27.91 26.57 26.40 26.71 27.31 27.00 27.56 27.85 28.80 30.44 31.06 31.70 31.07 30.92 30.34 30.06 30.38 31.50 32.72 33.08 33.92 34.29 34.39 34.54 33.62 33.17
37.11 31.82 30.46 28.34 30.03 28.16 29.01 30.52 30.68 29.81 26.88 31.07 30.25 30.77 30.21 29.75 31.00 26.76 27.63 27.83 26.89 27.02 28.07 28.62 29.32 28.87 29.51 30.26 30.80 30.94 30.62 29.96 29.38 29.15 29.12 29.84 30.93 31.52 32.16 31.85 32.60 34.02 33.81 33.92
36.04 36.03 32.06 31.31 26.29 23.64 28.15 31.19 33.98 33.91 25.59 31.15 31.55 30.86 31.93 31.38 29.05 25.99 26.89 26.96 27.65 28.80 29.09 28.56 29.73 29.51 29.51 30.12 30.95 29.41 29.81 29.86 28.54 29.53 29.93 29.92 30.84 30.53 30.76 32.22 31.90 33.45 33.77 32.38
31.28 30.99 28.46 28.91 27.77 26.93 29.84 32.44 35.45 25.48 25.86 32.67 32.95 32.71 32.80 29.42 29.44 26.68 27.67 26.54 28.15 28.86 28.60 30.23 30.53 29.28 29.51 30.91 31.57 28.84 28.80 28.89 31.29 30.94 31.21 30.75 30.73 30.93 31.51 31.98 32.76 32.03 32.58 32.75
29.70 27.95 27.81 28.88 26.64 23.00 32.28 33.41 29.09 30.75 33.23 33.72 33.46 32.60 30.06 27.85 26.73 25.80 25.44 25.23 26.78 27.96 28.63 29.42 29.17 28.69 29.87 30.64 30.66 28.58 27.26 30.65 32.22 32.64 30.86 30.75 31.36 32.35 32.81 32.43 33.27 33.11 32.58 31.85
28.50 31.90 29.52 27.97 26.95 32.01 33.54 32.14 35.16 35.28 32.97 32.88 33.49 33.15 32.02 28.46 25.75 25.25 24.77 25.03 26.02 27.50 28.31 28.98 28.76 28.41 29.03 29.56 29.39 27.91 27.89 31.62 32.29 32.39 31.99 31.61 31.39 31.31 31.67 31.53 31.16 30.96 32.14 31.04
32.46 34.70 30.96 29.84 29.93 30.81 31.21 32.98 34.68 35.02 33.72 34.12 34.17 32.99 31.95 28.44 27.21 25.96 26.45 26.49 26.76 27.28 27.01 28.38 28.00 26.85 26.39 28.21 27.99 28.06 29.54 31.39 31.38 30.80 30.64 31.63 31.15 31.07 31.18 30.72 30.48 28.46 27.29 27.63
33.85 34.17 30.38 28.58 29.87 30.59 31.32 32.07 32.34 32.15 32.27 31.32 31.96 31.40 30.25 29.62 27.84 27.28 26.84 26.46 26.43 26.35 26.46 26.35 25.77 25.24 25.12 26.65 26.50 27.43 28.49 29.87 29.65 29.84 29.66 29.48 30.07 29.88 29.59 29.67 27.52 26.42 25.86 24.72
34.61 31.69 31.04 30.39 31.74 32.55 30.62 31.93 31.95 30.22 29.91 30.26 29.23 28.36 28.95 28.69 27.21 27.21 26.15 26.48 25.73 24.86 25.42 25.02 24.39 23.89 23.65 24.19 24.17 24.91 26.78 27.82 27.61 27.35 27.87 27.88 28.77 28.55 27.93 27.78 28.31 23.48 22.90 22.20

GFSCGP_sfc_wetblb_123.txt.gz
Wetbulb
45.76 41.55 40.52 42.59 42.43 41.65 40.55 39.36 38.92 41.76 44.12 41.20 41.23 41.60 43.65 46.56 47.49 46.37 46.20 46.09 46.39 46.94 49.14 50.57 52.79 53.79 53.26 52.58 53.15 53.72 55.82 60.40 61.83 68.66 68.24 68.47 68.03 68.56 69.26 69.63 71.47 70.53 69.42 69.14
42.34 40.41 43.79 42.54 41.85 40.82 40.81 39.28 39.75 42.39 42.74 41.87 41.29 41.70 44.69 45.36 46.00 44.97 44.02 43.98 43.65 42.86 44.33 46.06 47.98 51.25 53.74 54.76 55.53 56.38 56.79 57.83 60.48 62.26 69.18 68.92 68.67 68.86 69.28 69.63 71.08 71.76 69.55 68.57
40.56 42.63 42.85 40.68 40.93 40.33 41.12 39.76 39.94 38.51 40.95 42.41 42.30 40.45 42.47 45.70 46.01 44.39 43.97 43.45 42.28 39.27 38.87 41.15 42.66 44.35 48.42 49.28 51.30 53.90 55.34 56.78 59.13 62.45 67.80 67.34 69.70 68.77 68.21 68.45 69.45 70.86 70.11 68.10
42.18 44.54 41.42 40.52 40.05 41.92 37.71 42.96 40.30 39.05 38.16 34.54 42.15 32.72 41.44 42.14 41.27 40.79 41.20 40.41 38.29 38.75 39.27 37.83 39.18 40.36 42.15 44.22 46.66 48.49 51.80 55.46 58.64 61.25 63.17 65.84 67.09 66.03 66.76 67.94 68.87 70.15 70.89 68.41
40.96 41.34 40.32 39.81 41.36 42.13 39.21 43.17 41.07 40.72 39.12 38.95 39.02 36.67 40.50 40.75 35.75 36.22 38.11 37.39 36.34 36.94 37.22 35.82 36.13 37.28 40.38 41.92 41.57 43.49 47.15 53.19 54.60 57.12 61.28 67.13 65.42 68.35 68.35 68.91 68.96 69.74 70.32 69.67
42.58 45.91 42.96 42.58 43.38 43.39 44.23 41.76 42.38 42.89 40.66 32.92 38.62 37.12 36.50 31.77 31.73 34.15 35.50 35.33 35.03 35.31 35.82 37.25 36.61 36.68 38.29 40.74 41.13 41.70 45.04 48.55 49.88 54.69 63.33 68.44 65.36 67.62 65.42 67.71 68.43 68.30 68.20 68.58
41.68 41.71 44.01 44.24 40.91 44.37 42.80 39.76 32.92 31.70 31.66 30.93 39.01 36.67 31.80 35.91 35.46 34.05 33.33 33.43 34.33 35.09 34.47 34.61 33.09 33.69 35.22 37.59 39.49 41.49 43.37 45.47 47.50 51.87 54.61 56.04 65.26 65.58 67.86 63.91 66.17 65.98 65.14 65.89
35.41 34.43 41.26 44.17 41.30 39.50 39.79 39.43 32.84 24.25 27.79 30.98 38.35 32.41 30.84 37.93 38.37 36.51 35.63 34.68 34.34 34.00 33.87 32.30 31.99 33.41 33.38 35.97 37.54 40.47 41.87 43.10 45.51 49.02 50.95 52.98 54.29 58.85 59.82 58.00 59.17 64.11 65.26 65.69
34.97 34.16 42.87 42.54 43.55 42.41 39.66 36.45 41.72 34.58 35.83 31.94 35.05 34.29 36.28 37.49 35.64 34.09 32.13 32.96 31.85 32.61 32.72 31.24 31.41 32.42 32.55 33.32 33.61 38.63 40.34 41.44 43.05 44.78 47.92 49.74 51.04 54.57 55.84 56.68 58.00 58.74 59.67 62.09
38.25 32.07 40.18 41.69 43.39 44.03 41.55 43.05 33.98 35.17 26.78 26.07 32.50 29.50 29.46 29.49 29.63 31.76 30.82 30.26 31.59 31.65 31.61 31.07 30.79 31.56 32.21 32.43 34.66 38.71 40.16 39.66 41.30 43.33 45.28 46.95 47.49 49.06 49.82 50.19 51.24 52.65 54.89 56.70
40.11 34.17 37.39 40.55 39.78 38.78 39.67 37.97 37.45 37.36 34.75 28.37 27.42 27.76 32.27 30.48 30.57 29.70 30.51 30.80 30.98 31.34 30.98 30.39 30.32 31.41 31.84 32.84 33.31 35.96 39.49 39.36 39.03 40.13 41.12 42.47 44.46 45.58 45.13 45.54 46.60 49.05 52.26 51.69
40.55 36.60 32.60 37.00 42.51 42.52 40.58 37.96 37.61 30.57 30.62 32.58 34.23 27.59 34.13 32.70 32.10 31.05 30.61 30.80 31.16 31.86 30.98 31.01 30.54 31.10 30.66 30.83 32.67 35.88 35.74 37.95 38.62 39.59 39.65 40.43 40.91 40.83 40.76 41.63 43.17 46.12 46.96 48.12
39.60 35.57 32.06 34.94 39.08 40.97 37.03 37.72 36.91 35.23 34.27 30.82 28.73 27.52 34.32 33.57 31.91 31.30 30.28 30.69 30.98 30.98 30.45 30.88 30.04 29.66 30.26 31.02 31.22 32.64 35.06 35.44 36.59 39.23 39.05 38.69 38.52 38.57 38.36 38.88 39.33 41.10 41.42 42.49
40.15 36.69 33.77 32.10 33.80 36.10 31.08 33.93 34.58 33.92 30.17 33.26 29.78 27.13 29.61 30.21 29.88 29.89 30.18 30.66 31.37 30.80 30.11 29.94 29.96 29.81 30.92 30.78 31.39 32.64 33.83 35.65 36.22 37.22 38.46 37.54 37.03 37.31 38.01 38.47 38.05 38.01 38.26 38.47
39.82 32.71 34.02 36.06 36.07 35.53 32.51 28.67 32.45 30.25 33.49 29.56 28.87 27.07 27.87 29.20 29.33 29.84 31.05 31.19 29.77 28.89 28.45 28.73 29.33 29.61 30.57 32.13 32.00 33.10 33.14 34.74 36.57 36.26 36.69 38.00 39.50 38.81 38.10 37.42 36.71 36.65 36.76 36.77
39.69 32.89 34.58 32.34 36.14 35.29 31.37 31.27 32.80 32.12 31.18 30.14 30.32 27.10 30.25 31.56 31.94 29.96 30.13 30.69 29.39 28.70 28.29 27.88 28.01 28.34 29.20 30.74 31.44 32.49 33.08 33.31 34.80 34.64 34.58 36.95 37.45 37.44 36.94 36.09 36.49 35.98 35.21 35.34
36.78 33.91 31.53 30.14 35.85 34.27 30.46 30.43 31.95 31.77 33.82 33.83 30.60 30.52 31.99 30.42 29.84 28.28 28.65 29.44 28.15 28.52 28.53 27.79 28.05 28.72 29.42 30.53 31.99 31.63 32.45 32.89 32.32 32.14 32.91 34.18 35.89 35.83 36.51 37.06 35.95 34.56 33.90 33.96
34.44 32.87 33.29 31.01 33.25 24.48 30.46 37.33 36.70 33.87 33.40 34.69 32.81 31.70 32.50 31.41 30.72 30.15 29.97 28.96 28.27 28.63 29.41 29.98 30.47 30.07 30.84 31.63 31.98 32.51 32.09 32.42 31.54 30.74 31.13 32.60 33.63 33.61 34.18 34.16 34.80 35.12 34.89 33.87
39.77 34.34 31.11 29.86 30.18 29.34 30.09 33.17 33.29 32.31 30.25 33.96 32.93 32.67 32.54 32.30 32.19 28.81 29.65 29.99 29.73 30.38 31.28 32.44 33.06 33.24 33.31 32.95 32.69 32.24 31.89 31.34 30.90 30.42 30.36 31.18 31.77 31.95 32.32 32.44 33.11 34.45 34.18 33.90
38.12 37.44 32.69 31.71 26.43 25.11 30.75 33.97 37.10 36.80 27.81 34.37 34.67 33.54 32.83 32.95 28.23 28.99 29.16 28.51 30.48 32.74 32.86 32.74 33.33 33.33 33.22 33.92 33.46 32.35 32.16 31.69 30.85 31.98 31.59 31.73 32.63 32.00 31.98 33.35 33.06 34.18 34.45 33.47
32.10 32.58 30.02 30.51 29.23 29.36 31.81 33.68 36.08 26.78 29.05 34.61 35.28 35.63 35.15 31.14 29.49 28.94 29.50 28.50 31.38 32.55 32.62 33.98 33.65 32.21 32.44 33.69 34.02 31.40 32.47 31.85 34.39 34.14 33.70 33.72 33.39 32.85 33.27 33.33 34.93 33.88 34.24 34.23
32.12 30.69 30.34 31.32 27.93 25.09 33.56 34.13 29.89 33.42 35.48 35.22 34.68 34.37 32.14 30.08 28.87 27.51 26.94 27.30 30.20 31.85 32.04 33.27 32.56 31.55 32.29 32.71 32.65 31.24 30.86 34.17 34.95 34.96 34.19 33.42 34.11 34.44 34.23 33.99 33.80 33.14 33.05 32.63
30.32 35.22 32.59 31.43 28.87 32.33 33.65 35.28 36.76 36.28 34.50 34.69 34.20 34.44 32.75 29.53 27.11 26.71 26.41 27.39 29.59 31.58 32.23 32.62 31.69 31.11 31.24 31.28 31.25 30.05 31.18 33.60 34.14 33.84 33.14 33.77 32.81 33.61 33.41 32.57 32.20 30.34 30.77 30.46
34.93 37.18 31.80 31.57 30.83 31.11 33.62 35.85 36.51 36.00 34.72 35.16 35.14 34.34 33.32 29.77 29.49 28.74 29.74 29.88 30.51 30.89 30.66 31.28 30.47 28.96 28.34 29.68 29.52 29.55 30.93 32.66 32.99 32.20 31.92 32.30 32.35 31.98 32.57 31.76 30.52 28.79 26.09 26.15
35.74 35.95 32.08 30.23 31.73 32.51 33.21 34.60 34.65 33.93 33.97 34.05 34.79 34.35 33.05 32.65 31.36 31.52 30.69 30.15 30.15 30.04 29.95 29.51 28.36 27.50 27.18 27.94 27.33 28.42 28.94 30.23 29.91 30.34 30.45 30.19 31.40 31.19 30.69 30.71 28.99 28.07 25.63 23.82
36.43 33.92 32.18 33.31 34.04 33.71 31.62 34.00 34.82 32.72 31.35 32.25 31.51 31.18 32.26 32.38 30.53 30.82 29.77 29.67 29.31 28.13 28.64 28.00 27.35 26.62 26.29 25.85 24.67 25.06 26.57 27.77 27.37 28.27 28.12 29.17 29.66 29.78 29.50 29.15 29.22 24.20 24.31 23.10

GFSCGP_sfc_wetblb_126.txt.gz
Wetbulb
45.87 41.37 38.99 42.02 43.67 42.54 40.35 38.32 37.77 41.04 44.28 42.29 40.64 40.68 42.32 45.34 47.10 45.47 44.68 44.03 43.67 43.49 44.56 45.22 45.26 45.55 46.43 47.61 48.81 50.89 51.80 54.43 55.45 53.95 61.88 65.12 65.35 65.82 67.59 68.07 69.12 69.30 69.21 69.57
43.02 38.63 43.40 44.93 42.56 40.69 39.80 38.38 38.34 42.12 44.26 42.20 40.44 39.54 43.05 45.62 44.84 43.76 42.78 41.91 41.54 40.86 41.38 42.27 42.31 42.21 42.73 43.72 45.52 46.89 48.15 49.69 51.53 54.61 57.10 62.28 64.47 65.74 66.85 67.67 67.97 69.32 68.73 68.84
40.10 42.56 45.06 42.43 41.07 39.03 39.78 38.98 39.14 39.07 41.19 42.11 40.56 39.15 41.37 44.07 43.93 43.41 42.45 41.23 40.25 38.61 38.04 38.95 39.64 39.43 40.55 40.49 42.23 44.02 45.25 46.22 48.63 51.01 54.71 55.94 57.55 64.85 64.74 66.14 66.58 69.06 68.94 68.82
41.54 44.80 43.13 41.81 39.91 40.68 36.67 42.94 41.29 39.46 37.90 32.78 41.41 31.30 39.81 42.62 40.95 39.87 38.94 37.90 36.92 36.94 37.62 37.77 37.87 37.31 37.37 38.20 40.48 42.20 43.44 44.12 46.16 49.70 51.08 54.59 54.64 55.54 63.43 65.39 66.33 68.40 68.78 68.34
39.07 41.61 40.48 38.55 39.50 42.79 39.74 43.13 41.15 40.23 37.82 37.47 38.44 35.64 34.88 40.52 35.33 35.74 36.25 36.09 35.51 36.24 36.23 35.55 35.46 35.63 36.67 37.00 38.12 39.62 41.62 42.56 45.14 47.21 51.49 51.25 52.56 55.33 60.64 65.31 65.29 66.98 68.05 67.89
41.95 45.60 43.70 41.96 43.41 43.74 44.05 41.18 41.10 41.16 39.39 32.13 37.74 35.14 30.58 31.14 32.83 34.24 35.15 34.58 34.23 34.68 34.95 34.35 34.50 34.62 34.96 36.33 36.89 36.97 38.95 41.55 44.33 47.35 48.95 52.09 53.58 55.53 57.35 64.29 64.08 65.83 67.58 66.70
40.06 40.77 43.31 44.42 40.21 43.44 41.94 38.54 31.00 29.45 30.98 30.36 38.54 35.22 32.52 35.34 35.53 34.56 33.14 32.62 33.13 34.48 33.33 32.80 31.94 32.64 33.51 34.06 34.39 35.64 36.89 39.57 43.41 44.83 49.16 52.53 54.97 58.23 60.46 63.28 64.28 64.68 66.02 66.27
33.91 33.85 41.56 44.25 41.12 39.21 40.06 38.52 31.04 23.55 25.76 30.20 37.69 31.31 29.76 37.17 36.80 35.56 34.06 33.33 32.48 32.66 33.10 32.34 31.79 32.35 32.48 32.87 33.33 33.76 35.34 38.18 41.78 44.18 48.31 49.32 51.66 55.12 56.36 55.32 59.76 63.13 64.50 65.25
34.82 34.92 43.55 44.33 44.03 41.91 39.22 35.77 41.28 34.19 34.78 30.31 34.02 34.12 37.43 36.23 33.74 32.76 31.20 31.09 30.94 31.69 31.68 31.56 31.76 32.17 31.61 31.58 31.70 32.37 34.40 38.40 41.23 43.00 45.29 46.38 46.90 48.78 50.97 51.76 52.52 56.40 56.24 57.41
38.65 31.41 40.40 42.45 43.31 42.88 40.54 42.74 33.94 35.60 25.29 24.24 31.58 31.63 30.13 28.77 29.09 30.91 29.69 29.43 30.34 31.38 30.89 31.32 31.12 31.17 31.92 31.68 32.00 33.17 35.23 37.49 39.60 41.69 42.27 42.90 43.15 45.36 47.04 48.62 48.54 49.95 50.33 50.99
39.69 34.56 36.50 40.66 38.09 36.90 38.74 37.18 38.14 37.00 34.34 27.13 26.01 27.00 32.13 29.98 29.99 28.84 29.10 30.21 30.34 30.55 29.88 30.85 31.21 31.17 32.39 32.17 32.04 32.27 34.45 36.40 37.93 39.41 39.63 39.23 40.44 41.55 42.18 42.87 44.55 45.82 45.70 46.15
39.67 37.00 30.87 35.74 42.70 43.64 41.07 38.54 37.07 30.04 28.78 32.54 30.03 27.94 34.20 32.59 31.51 30.48 29.00 30.72 31.45 31.33 30.73 30.83 31.25 30.84 31.46 31.59 32.12 32.03 33.52 36.01 35.46 39.43 37.77 38.66 38.89 39.44 39.23 39.11 40.82 41.56 41.78 42.32
39.73 33.96 28.96 33.78 38.47 40.46 37.93 38.61 37.23 35.83 34.06 28.36 25.78 27.06 34.10 33.22 30.91 30.91 29.96 30.29 31.23 30.78 30.26 30.12 30.40 29.53 30.59 31.46 31.70 31.95 32.71 34.97 37.12 38.23 37.82 35.86 35.65 36.72 36.57 37.56 37.97 38.28 39.01 39.36
40.21 35.79 32.85 29.22 33.21 36.63 33.54 34.69 35.63 33.94 29.47 30.70 31.47 26.93 29.02 29.37 28.75 29.33 30.38 31.86 31.57 30.77 29.92 29.50 29.09 29.27 30.55 31.40 31.34 32.03 32.24 33.29 34.80 36.44 36.02 35.57 35.33 35.33 36.37 36.18 36.24 36.54 37.37 37.16
37.59 32.25 34.55 35.51 36.42 37.01 34.42 32.21 33.14 31.05 32.19 29.81 29.81 27.71 27.14 28.52 28.90 29.08 31.60 31.84 30.57 29.83 29.20 28.86 28.52 28.84 29.72 30.89 31.00 31.93 32.16 32.30 33.46 34.19 34.73 35.04 34.98 36.76 35.51 35.10 34.84 35.08 34.66 35.13
38.60 33.11 32.84 30.80 35.17 36.15 33.71 32.66 32.30 33.14 31.65 30.41 30.48 27.00 31.25 31.91 31.88 29.78 30.07 30.29 29.07 29.05 29.20 28.46 28.88 29.55 29.94 30.60 30.72 31.58 31.96 31.44 32.44 32.48 33.16 34.68 34.88 35.32 35.46 35.23 35.16 34.52 34.04 33.63
37.08 34.34 31.88 28.23 36.25 34.38 29.60 32.30 32.15 33.52 35.02 33.85 29.94 31.51 32.84 30.90 29.23 28.00 28.93 29.28 28.48 28.95 29.66 29.05 29.43 30.21 30.81 31.07 31.44 31.03 31.84 32.46 31.20 31.05 31.95 32.93 33.63 33.66 34.21 34.78 34.39 33.69 32.73 33.15
35.96 34.17 32.73 29.36 33.45 24.35 30.93 37.80 37.02 34.92 34.84 35.17 33.05 32.51 33.56 30.86 29.90 29.50 29.93 29.06 28.70 29.32 30.00 31.02 31.39 31.27 32.22 32.46 32.66 32.67 32.70 32.10 31.35 30.32 30.87 31.74 32.47 32.45 32.60 32.90 33.25 32.92 32.91 32.21
37.61 35.07 30.00 27.17 28.67 29.43 31.33 34.88 34.79 33.02 31.63 35.97 33.98 33.78 33.01 32.03 30.61 27.61 29.65 30.32 30.68 31.02 32.08 32.41 32.62 32.43 33.25 32.25 33.07 33.14 32.27 31.86 31.33 30.76 30.11 31.56 31.81 31.68 32.32 31.90 32.31 32.95 32.57 32.59
37.15 38.41 32.28 30.71 25.59 23.09 30.83 36.32 38.61 38.00 28.39 36.31 36.28 34.09 32.66 32.65 27.86 26.15 28.95 29.20 31.28 32.83 32.77 32.26 32.66 32.33 31.95 32.60 32.95 32.41 31.88 31.72 31.07 31.49 31.58 31.31 32.09 31.15 30.62 31.33 31.68 32.90 32.64 32.03
32.13 32.39 28.60 29.25 26.74 28.74 33.16 35.05 37.16 26.58 28.50 36.49 37.03 36.33 34.90 31.27 29.52 29.13 30.26 29.56 32.42 32.55 32.61 33.42 32.10 30.57 30.72 32.10 32.37 30.04 31.03 30.42 32.12 33.37 32.83 31.92 31.87 30.99 31.19 30.46 30.17 29.74 30.82 29.89
31.32 29.24 29.19 30.56 27.10 24.47 34.35 33.62 30.17 33.73 36.70 36.24 35.38 33.69 30.25 29.14 28.77 27.77 27.58 27.85 31.18 31.96 32.03 32.23 30.54 29.62 30.17 30.59 30.17 28.77 28.55 32.03 33.25 32.51 31.94 31.18 31.52 31.67 31.14 29.42 28.00 27.05 27.11 26.49
30.70 34.48 31.93 29.55 28.22 32.51 34.34 35.48 37.58 37.51 35.53 34.59 32.91 32.51 31.00 28.95 27.61 27.65 27.17 28.66 31.06 31.45 31.31 31.36 29.37 28.58 28.77 28.75 28.36 26.93 28.11 30.98 31.97 31.25 29.91 30.69 30.19 30.57 30.12 28.48 26.75 23.86 23.49 22.86
36.24 38.46 32.57 31.28 30.53 31.25 34.65 36.14 36.95 36.56 35.24 35.03 34.38 32.79 30.83 27.74 28.08 27.77 29.12 30.14 30.18 29.81 29.22 29.75 28.44 26.91 25.92 26.60 26.33 26.38 27.67 29.25 30.07 28.79 28.97 29.08 28.93 29.01 29.26 28.39 27.59 24.20 22.34 21.52
36.44 36.48 32.27 30.25 31.06 31.47 33.89 34.98 35.31 35.36 35.54 34.41 34.58 33.56 31.94 30.96 30.96 31.39 30.15 29.76 29.55 29.36 28.82 28.37 26.71 25.74 24.78 24.99 23.63 24.36 25.19 26.69 26.42 28.05 27.64 27.05 28.24 27.57 27.21 26.27 25.01 25.50 22.13 22.16
37.10 34.73 31.60 31.89 33.74 33.70 31.91 34.41 34.88 33.31 32.28 32.14 31.79 31.43 32.69 32.26 30.79 30.79 28.68 28.85 28.23 27.25 27.57 26.53 25.60 24.79 23.99 22.78 21.19 21.19 22.54 23.61 24.21 24.79 25.47 25.67 26.61 26.56 25.91 25.44 25.35 25.46 23.59 23.96

GFSCGP_sfc_wetblb_129.txt.gz
Wetbulb
40.80 33.85 31.26 35.07 38.01 39.50 37.32 34.31 31.82 33.60 39.45 39.05 36.64 34.52 37.08 38.25 39.58 38.04 37.23 37.09 36.90 37.04 39.38 40.57 40.59 40.04 40.43 40.10 39.86 40.22 40.71 42.65 43.72 44.44 45.54 48.20 51.64 58.44 64.28 65.70 67.36 67.12 68.85 69.25
36.98 33.82 40.16 42.73 41.92 39.08 36.83 34.48 33.31 37.13 41.10 38.64 35.17 34.10 37.36 39.82 38.71 37.20 36.13 35.32 34.98 35.54 36.54 37.90 37.96 37.82 37.41 37.44 37.65 38.39 39.43 40.37 41.99 42.92 44.29 46.23 49.33 54.22 56.83 63.56 65.82 67.44 67.24 68.77
35.67 39.29 44.11 42.02 39.20 38.21 35.91 34.48 34.67 35.73 38.05 37.87 36.67 33.41 35.20 38.81 39.14 38.69 37.40 36.17 35.02 34.27 33.82 34.64 35.03 34.50 34.80 34.41 35.70 36.96 38.12 38.35 40.31 41.98 43.37 45.28 47.69 52.45 55.20 57.75 63.03 65.78 67.29 67.87
37.87 42.10 41.33 40.09 38.74 38.62 32.41 39.49 39.48 37.55 34.33 26.87 36.53 24.34 34.64 36.31 35.38 35.79 34.91 33.08 32.53 33.06 33.69 33.54 32.97 32.39 32.53 33.33 35.09 35.54 36.05 36.63 38.71 40.95 41.81 43.17 44.85 47.76 51.07 54.24 56.78 61.90 66.39 67.25
36.42 38.53 38.21 37.40 38.68 39.96 36.16 41.52 38.49 37.80 33.34 31.18 33.17 29.05 31.05 37.37 32.63 32.60 33.05 32.84 31.87 32.48 32.77 32.41 32.01 31.70 32.52 33.21 34.04 35.05 35.14 35.59 37.92 40.50 42.09 44.19 45.50 48.08 49.93 51.85 54.78 56.21 63.34 66.96
38.63 43.13 41.14 40.00 42.06 41.47 42.66 38.65 37.56 37.33 34.02 23.45 33.17 32.90 28.48 28.01 29.97 30.98 32.19 31.37 31.51 31.67 33.13 33.11 32.52 32.24 31.86 32.61 33.18 33.92 33.79 35.57 37.29 40.34 42.77 44.12 44.74 46.37 48.39 50.65 53.11 54.65 58.96 64.90
37.42 38.02 40.44 42.40 37.86 40.62 38.80 32.86 24.40 22.47 22.44 23.92 35.25 29.48 25.54 30.86 31.64 31.14 29.97 30.28 31.40 32.18 31.95 30.53 30.09 29.95 31.31 31.92 33.07 34.04 34.53 34.83 37.22 39.93 42.61 44.38 46.39 49.89 50.50 50.79 53.34 55.66 55.07 56.45
30.16 26.28 38.58 41.72 38.51 36.37 35.98 34.80 26.86 19.03 19.35 23.41 34.59 25.56 25.27 32.68 33.72 33.05 32.25 31.92 31.64 31.17 30.34 29.97 29.49 30.08 30.83 32.57 32.62 33.19 33.68 34.52 36.88 39.54 41.56 44.35 47.19 49.56 53.34 53.68 55.92 56.41 53.69 53.52
30.93 31.69 41.25 42.13 42.48 40.88 36.60 31.98 37.95 31.06 31.26 21.73 26.87 30.35 34.13 33.22 31.43 31.69 30.53 30.37 29.83 30.21 29.17 28.43 29.41 29.84 31.19 31.94 32.04 32.47 33.50 34.16 34.92 37.99 40.64 42.42 43.26 46.35 50.55 51.82 51.16 54.13 51.70 52.77
36.71 26.12 38.47 40.26 41.97 41.49 38.09 39.76 29.53 29.98 19.07 19.92 25.58 25.62 22.05 24.34 28.15 30.06 28.77 28.74 29.82 29.72 28.25 28.21 28.97 29.70 31.51 32.01 32.24 32.55 33.22 33.41 33.85 36.48 38.97 40.69 41.23 42.52 44.34 44.81 45.16 48.47 52.05 51.60
38.30 31.03 33.53 38.27 37.05 34.84 35.70 33.51 36.70 35.64 30.24 18.88 13.24 22.33 31.60 27.22 25.27 27.06 28.41 28.99 29.91 27.66 26.80 28.08 28.92 29.96 31.59 32.14 31.84 31.93 32.14 32.16 32.62 34.63 36.53 37.99 39.04 39.48 40.04 40.27 40.86 42.48 44.84 44.98
38.06 35.36 30.14 32.78 40.20 41.45 39.85 37.80 37.20 26.17 25.21 25.52 26.01 20.49 33.06 31.11 30.44 30.18 29.34 30.04 26.13 27.47 25.90 28.26 29.64 30.14 30.38 31.31 31.60 31.82 31.61 31.65 32.40 32.95 32.95 36.77 37.49 37.80 36.83 36.78 38.08 39.38 39.80 41.33
38.90 32.17 25.81 29.93 35.79 40.28 37.31 37.29 36.28 33.63 29.75 22.43 16.14 17.45 33.36 32.43 30.31 30.23 30.20 25.54 23.39 23.49 26.54 27.19 28.88 29.14 29.80 30.83 31.28 31.80 31.65 31.89 32.58 33.49 32.40 35.85 36.11 35.67 35.44 34.34 34.81 35.92 36.38 36.45
40.95 34.73 30.67 24.96 30.59 35.00 33.90 34.87 35.06 31.55 19.36 22.52 25.34 25.92 28.37 28.88 28.29 29.41 30.31 26.20 23.54 24.71 26.86 27.65 28.42 29.18 30.08 30.63 30.82 31.33 31.33 31.92 32.49 33.74 34.38 34.26 34.35 35.30 34.97 34.41 33.64 33.22 34.18 33.29
36.60 28.23 33.14 33.81 34.88 34.80 34.23 33.37 33.07 30.70 30.14 27.53 27.57 25.54 27.75 28.76 28.35 29.22 30.76 28.79 28.22 27.80 27.73 27.66 27.72 28.28 29.70 30.25 30.66 30.98 31.07 31.14 32.41 32.49 32.96 33.16 34.36 34.63 34.36 33.32 33.49 33.56 33.08 32.92
35.60 27.44 30.70 27.71 33.04 33.28 30.84 31.25 30.38 32.63 31.13 29.13 29.76 25.79 31.23 31.42 30.67 28.90 28.07 28.50 27.20 28.00 27.98 28.08 28.96 29.09 29.42 30.25 30.58 31.06 31.05 30.48 31.73 31.30 31.84 33.01 33.43 33.60 33.21 33.06 32.36 32.40 32.36 32.39
32.12 30.47 29.74 25.96 33.60 33.50 27.81 29.07 28.95 32.46 33.87 32.88 26.75 29.37 30.69 29.92 28.19 27.27 27.58 27.57 27.09 27.82 28.59 27.67 27.62 30.27 29.10 29.94 31.32 30.64 30.97 31.22 30.37 30.53 30.73 31.91 32.55 32.45 32.70 32.57 32.67 32.29 31.04 31.27
33.50 33.03 31.81 27.23 27.91 19.70 30.43 37.16 36.03 34.96 35.07 32.04 30.05 29.55 30.60 28.75 28.37 28.57 28.64 27.43 27.66 28.46 28.67 28.22 27.60 28.05 30.17 30.22 31.03 31.47 31.67 31.02 30.50 29.73 30.32 30.57 30.73 30.50 31.67 31.81 31.50 31.70 32.30 30.32
36.11 33.60 28.00 23.94 24.37 28.19 31.15 34.03 33.85 33.32 30.75 33.34 30.85 29.41 28.41 28.32 27.72 26.50 28.91 29.11 28.43 28.77 29.04 28.28 28.66 27.97 29.34 29.90 30.32 30.72 30.22 29.83 29.66 29.22 29.48 30.18 29.95 28.52 28.70 28.78 30.05 30.06 30.75 30.96
34.80 36.14 28.25 26.47 23.51 19.09 28.42 33.26 36.73 36.79 25.92 34.68 33.27 29.79 28.46 28.20 25.46 24.38 28.32 28.99 29.05 30.12 29.36 28.73 28.80 28.00 27.19 28.34 28.99 28.53 27.98 28.06 27.73 28.38 27.91 28.67 29.48 27.61 25.45 25.90 26.51 27.78 27.43 27.55
27.14 28.90 26.75 26.07 24.59 26.48 32.06 34.11 36.12 25.10 24.35 36.12 36.18 33.68 31.24 27.15 26.22 27.66 29.03 28.86 29.83 29.37 29.67 29.39 27.76 26.08 26.31 27.33 27.36 25.39 26.46 27.17 28.48 29.35 29.50 29.23 28.61 27.30 25.47 24.11 24.14 24.13 24.61 23.73
27.61 27.60 27.01 27.13 24.48 20.86 34.09 32.75 28.90 31.61 33.92 31.81 31.18 30.03 27.24 27.67 27.43 27.35 27.55 26.54 28.60 28.01 27.68 27.89 26.18 25.01 25.50 25.51 25.63 23.73 23.47 27.50 29.02 28.40 28.04 27.73 27.94 28.15 26.85 23.74 23.46 22.67 21.71 19.78
29.61 32.10 28.53 27.74 25.93 31.66 35.17 34.88 35.92 36.00 31.09 30.37 30.14 30.40 29.23 27.32 26.53 27.17 26.47 26.48 27.56 26.87 25.25 25.82 24.36 23.79 23.42 23.47 22.78 21.40 23.10 26.29 28.42 27.12 25.71 26.39 26.57 26.69 26.29 24.07 22.40 20.91 20.60 18.73
34.67 37.11 28.31 27.51 30.18 31.05 34.49 35.89 35.89 35.68 34.11 33.22 32.22 30.98 29.41 26.75 27.28 26.82 27.70 28.23 26.60 25.89 24.14 24.41 23.72 21.78 20.28 20.68 21.02 20.73 22.43 24.69 25.97 24.93 24.90 25.75 25.02 24.40 23.54 24.26 23.00 20.42 18.85 18.73
33.31 33.51 29.74 28.33 30.88 32.13 33.79 34.68 34.90 34.90 35.78 34.19 33.67 31.52 29.79 29.40 28.73 29.44 28.17 27.21 26.81 25.85 25.09 24.12 21.85 20.67 19.23 19.04 18.30 19.22 20.65 22.20 22.89 24.45 23.83 23.40 24.56 23.65 23.01 22.76 20.64 21.35 18.57 20.79
34.46 31.17 26.06 24.81 29.97 28.89 30.50 33.52 33.94 31.63 31.57 32.56 32.65 31.46 31.94 31.62 28.83 28.11 26.41 26.53 25.61 24.09 24.10 22.37 21.04 19.69 18.43 17.71 16.87 17.69 19.15 20.69 21.07 22.28 21.82 22.07 22.78 22.79 22.50 21.74 21.82 25.39 22.22 24.87

GFSCGP_sfc_wetblb_132.txt.gz
Wetbulb
39.06 32.45 30.55 33.46 34.93 36.59 35.18 32.93 30.91 32.04 37.29 35.14 34.85 32.25 33.60 34.82 34.71 33.37 33.44 33.21 33.40 34.12 36.48 37.30 37.11 36.49 35.66 35.25 35.36 35.39 36.24 37.05 37.66 37.60 38.02 40.20 41.02 43.99 47.06 53.32 56.30 63.00 65.65 66.79
35.41 30.96 38.02 40.24 39.74 37.53 35.69 32.86 31.41 34.25 38.75 36.84 32.85 30.33 33.74 35.37 34.75 33.58 32.84 32.01 32.21 32.85 33.82 35.13 35.24 34.55 33.66 33.19 33.79 34.40 35.06 35.54 36.07 36.59 37.51 39.39 41.01 43.29 46.86 48.42 53.97 59.70 61.15 65.14
33.45 37.43 41.84 40.09 38.26 36.78 35.41 32.90 32.11 32.71 35.58 36.19 34.18 30.41 32.60 35.66 35.99 35.52 34.24 33.51 32.75 31.75 31.84 32.71 33.29 32.66 32.24 31.97 32.52 33.43 34.14 34.75 35.82 36.49 37.27 38.94 41.06 43.54 45.40 48.95 52.63 56.30 60.06 62.04
35.32 40.30 39.09 37.44 36.21 37.74 32.46 37.85 36.84 35.65 32.40 25.91 34.01 21.65 31.26 33.50 32.69 32.61 32.34 30.84 30.40 30.81 32.01 32.03 31.35 30.95 30.99 31.53 32.92 33.30 34.48 34.88 36.57 37.03 36.92 36.77 37.65 38.96 43.25 47.34 50.26 51.58 55.10 58.50
34.37 35.78 35.72 35.21 36.96 39.34 34.59 39.62 36.75 35.38 31.58 29.07 31.17 24.78 27.93 34.97 31.13 30.20 30.60 30.61 30.20 30.71 30.96 30.24 30.33 30.64 31.16 31.76 32.23 33.67 34.32 34.68 35.81 36.42 37.77 37.59 38.89 41.84 43.97 46.19 47.59 49.01 51.98 56.27
36.49 40.54 38.77 37.63 40.34 39.59 40.70 37.18 36.12 34.89 31.60 22.61 30.93 28.70 25.89 26.34 28.16 29.63 30.17 30.26 30.25 30.26 30.55 30.31 31.08 31.27 31.40 32.18 33.33 33.24 33.97 34.45 35.92 37.52 38.55 39.14 40.16 40.98 42.20 43.92 45.75 48.32 51.44 54.51
34.62 35.58 38.22 40.10 35.55 38.62 37.93 31.34 22.94 22.03 21.62 23.27 33.68 28.24 25.09 29.08 29.81 29.69 28.71 29.43 29.68 29.77 29.59 28.81 28.59 30.05 30.65 31.36 32.25 32.91 33.36 33.25 34.51 36.02 37.19 39.36 41.53 43.50 45.06 46.26 47.69 49.07 50.11 53.32
27.42 25.72 36.63 40.55 36.60 34.32 35.32 33.47 25.00 20.00 18.66 23.14 33.74 25.90 24.24 31.09 32.25 32.13 31.12 30.13 31.12 28.82 29.47 28.63 28.25 29.55 30.14 31.62 31.98 32.58 32.91 33.08 34.33 35.58 36.15 39.17 41.84 43.39 45.11 47.81 49.10 50.11 52.91 53.64
28.82 29.57 39.99 40.80 40.97 39.60 35.95 31.91 37.14 28.91 29.47 22.53 26.40 28.32 31.43 31.91 30.36 30.37 29.63 30.01 29.66 29.05 29.13 28.12 27.89 28.72 30.38 31.50 31.81 32.46 32.43 32.84 33.54 35.08 35.29 37.21 39.22 41.24 43.65 46.45 50.43 51.92 53.90 54.25
34.76 25.55 36.81 39.35 40.53 39.99 37.25 38.95 27.79 26.97 17.72 21.21 25.19 26.83 22.60 26.92 26.78 28.39 28.43 28.49 27.48 28.13 27.35 27.52 27.59 28.37 30.27 31.81 32.34 32.79 32.76 32.43 33.08 33.68 34.77 36.15 36.95 38.83 40.82 42.70 43.75 45.75 49.82 50.49
36.57 28.60 31.36 37.89 35.35 33.86 33.79 31.76 34.41 34.13 29.50 23.26 17.98 22.49 31.39 28.03 23.24 24.89 28.78 29.46 23.55 24.57 25.60 27.41 27.76 28.39 30.13 31.13 31.56 31.88 31.79 31.64 32.21 33.41 34.25 34.82 35.24 36.79 38.23 39.12 39.35 40.57 41.72 43.47
37.65 33.07 27.02 31.80 38.75 40.56 37.80 35.27 35.69 27.51 27.79 26.73 22.48 21.04 30.67 29.09 28.94 30.20 29.88 27.36 22.86 25.23 25.33 27.06 26.36 28.92 28.99 30.06 30.58 30.55 31.15 31.41 31.74 32.55 33.05 33.36 33.90 34.33 35.40 36.97 37.69 37.59 36.84 37.88
36.98 31.38 23.69 28.13 34.60 38.13 35.91 36.52 35.88 33.50 29.00 23.22 17.46 17.53 31.51 30.72 29.96 30.36 30.28 21.60 21.22 21.66 22.85 23.29 26.24 27.72 28.84 29.74 30.54 30.86 31.03 31.26 32.10 32.04 32.10 32.84 32.68 32.94 33.50 34.62 35.51 37.33 36.58 35.88
40.46 33.05 28.78 24.72 29.36 34.31 32.49 34.81 35.05 31.75 21.29 22.03 23.51 20.66 28.36 28.78 28.85 29.43 29.82 23.51 21.17 19.59 21.00 21.53 25.45 26.74 28.90 29.92 30.47 30.44 30.12 31.43 31.93 32.23 32.13 31.89 32.19 32.31 32.38 33.48 34.17 34.61 33.30 33.11
34.66 26.00 31.74 32.31 33.90 34.24 32.57 32.09 33.95 31.52 30.72 25.95 21.75 26.12 26.98 28.44 28.97 29.41 29.93 26.78 26.56 25.87 26.00 24.96 25.07 26.79 27.27 30.08 30.61 30.96 30.65 30.91 31.57 31.26 31.58 31.65 32.11 32.55 32.76 32.53 32.25 32.26 31.61 31.62
33.86 22.85 28.44 26.96 32.76 32.57 29.29 31.00 32.12 33.23 31.42 28.36 29.36 27.41 30.16 30.85 30.77 28.81 27.66 27.36 25.91 26.89 26.49 27.11 28.10 28.27 27.46 28.65 30.26 30.99 29.99 30.16 31.07 29.98 29.71 30.79 31.65 31.79 31.80 32.19 30.82 30.46 30.16 29.78
30.56 27.28 26.64 23.33 30.98 30.74 25.47 28.89 30.96 30.92 32.90 31.08 26.41 29.25 29.57 28.61 28.68 28.00 26.91 26.99 26.61 27.06 26.94 26.42 26.19 28.03 28.23 27.93 29.06 29.58 30.69 30.36 29.94 29.07 28.76 27.88 28.83 29.20 29.84 30.53 31.25 29.15 27.86 27.85
30.23 29.08 28.84 24.88 28.37 16.50 26.74 36.41 35.54 33.50 34.70 31.55 29.57 29.01 29.67 28.88 28.67 28.27 27.26 26.11 27.01 27.81 26.75 26.37 24.46 24.89 27.08 27.64 27.98 29.42 29.46 29.62 28.29 28.37 27.95 26.84 25.73 25.77 27.14 27.17 27.52 28.69 28.13 25.01
35.99 31.88 28.94 24.77 24.22 25.58 29.94 32.74 32.37 32.07 30.26 32.28 29.40 28.11 27.33 27.24 26.88 26.06 28.59 28.68 28.12 28.25 27.14 26.04 26.02 25.49 25.42 25.67 26.31 26.64 28.05 27.72 27.71 27.30 26.93 26.76 25.36 23.91 23.55 23.52 23.47 24.88 24.74 24.32
34.32 34.36 29.32 26.65 22.34 18.04 27.45 32.90 36.02 36.60 25.48 32.73 30.45 27.50 26.04 26.37 24.07 24.83 27.97 28.66 28.91 28.94 27.77 25.53 25.02 24.93 24.34 25.10 25.36 24.40 24.47 25.75 25.58 26.86 27.22 26.33 25.21 23.66 22.70 22.60 22.01 22.30 22.83 22.36
27.50 28.12 25.51 25.58 24.08 26.56 32.05 34.00 35.40 25.97 24.69 33.03 31.47 29.40 27.20 25.42 26.82 28.53 29.36 28.90 29.29 28.39 27.08 26.65 24.50 22.31 21.98 23.18 23.80 21.84 22.70 23.44 25.95 26.94 27.25 26.71 25.58 24.41 23.34 23.00 22.84 20.99 20.37 19.85
26.35 24.38 24.78 25.96 23.64 20.80 33.86 31.92 28.09 29.44 30.11 29.76 29.88 30.78 28.55 27.09 28.10 28.28 28.34 27.15 27.87 26.71 25.75 24.90 22.56 21.25 21.37 21.22 21.03 19.67 19.45 24.18 26.43 26.13 26.02 25.63 25.37 26.10 24.81 22.57 22.03 21.16 19.97 18.39
27.23 31.02 28.62 28.07 25.59 31.02 35.19 33.02 33.61 32.76 29.60 29.06 27.60 28.48 28.40 27.56 27.49 27.65 27.08 26.48 26.14 25.38 24.23 24.01 21.57 19.96 19.43 19.58 19.28 17.73 19.97 23.10 24.80 24.46 24.55 24.63 24.52 24.52 24.66 22.15 21.17 19.59 18.94 18.10
35.75 35.68 28.16 27.36 28.56 30.94 34.51 34.99 34.39 34.37 31.57 31.12 30.68 29.59 29.21 26.99 27.73 27.29 27.20 25.21 24.52 24.17 23.09 22.94 20.87 18.22 17.25 18.27 18.83 19.12 20.94 22.96 24.23 22.74 23.07 24.19 23.03 22.89 23.47 23.31 22.32 20.10 18.38 18.09
32.57 33.06 28.72 28.08 30.20 31.47 32.98 34.69 34.50 32.96 31.90 31.04 30.79 29.86 28.66 28.03 27.72 28.41 26.53 25.22 24.42 23.66 23.05 22.05 20.05 17.94 16.49 17.33 17.31 18.19 19.83 21.67 23.23 21.83 22.35 21.86 22.88 22.40 21.91 22.78 21.10 21.85 20.82 21.05
33.61 30.20 25.48 24.58 30.17 28.65 31.39 33.57 34.96 33.42 32.15 31.28 30.35 29.64 30.28 30.29 28.92 27.04 25.08 25.00 23.87 22.34 21.78 20.34 19.49 17.88 16.51 16.30 16.16 17.15 18.75 20.19 21.17 20.80 20.73 20.75 20.75 21.13 21.51 20.75 20.07 24.52 23.27 25.93

GFSCGP_sfc_wetblb_135.txt.gz
Wetbulb
37.87 32.21 30.75 32.82 33.73 34.72 32.96 30.63 29.12 31.76 35.89 33.24 33.03 30.81 30.68 32.70 32.45 31.09 30.80 30.85 31.11 31.85 34.44 35.58 35.48 34.70 33.96 33.64 33.66 33.96 33.99 34.66 35.09 34.57 34.28 34.88 35.22 37.09 39.73 42.37 45.70 48.37 49.27 55.49
33.89 30.31 37.09 38.50 37.77 34.98 33.50 31.21 30.61 32.87 36.23 35.16 32.35 28.70 31.42 33.27 32.50 31.26 30.40 30.11 30.31 30.95 32.18 33.69 33.49 32.92 32.35 32.13 32.58 32.87 33.63 34.41 35.35 35.46 35.83 36.24 36.43 37.64 39.40 41.55 43.75 46.25 50.14 56.42
31.84 35.60 40.46 38.17 36.05 34.65 34.12 31.65 30.77 32.15 33.83 35.03 32.11 28.39 30.10 33.01 33.59 33.82 32.67 31.49 30.81 30.13 30.12 31.13 31.35 31.27 31.16 30.86 31.45 32.58 34.04 34.66 35.45 36.23 37.04 37.17 37.65 38.19 38.44 40.62 43.15 47.35 51.81 52.47
33.78 38.46 37.31 35.58 34.70 35.65 29.91 36.72 35.64 33.37 30.69 24.87 32.49 21.82 29.33 31.06 30.94 31.45 30.92 29.79 29.27 29.66 30.44 30.39 29.85 29.68 30.02 30.82 32.25 33.90 34.30 34.35 35.65 36.60 35.74 35.77 34.90 34.39 37.33 39.12 42.32 45.65 49.21 50.53
32.77 34.89 34.26 33.37 34.80 37.57 33.83 37.86 35.52 34.19 30.08 27.22 28.50 22.17 25.26 31.77 30.19 30.04 29.54 29.94 29.13 29.59 29.72 29.21 28.85 29.44 30.37 31.37 32.64 33.63 33.71 34.37 34.74 35.12 35.86 35.83 35.98 37.73 39.15 40.03 41.48 43.01 45.33 47.72
34.92 38.75 37.45 36.14 38.44 37.47 38.88 35.33 34.12 32.54 29.15 21.43 29.06 26.50 24.19 26.40 27.97 29.34 30.06 29.41 29.38 29.29 29.34 29.48 29.93 30.09 30.23 32.35 32.82 32.82 33.10 33.47 34.29 35.00 35.86 36.32 36.27 37.22 38.93 40.43 41.00 42.69 45.03 47.38
33.36 33.85 37.17 38.73 33.82 36.37 35.18 30.60 22.45 21.33 20.51 22.03 30.98 26.00 24.87 28.70 29.41 29.35 27.83 27.80 29.23 29.20 28.86 27.91 27.89 28.08 30.36 31.09 32.12 32.67 32.93 31.65 33.43 34.61 35.33 35.98 36.79 38.54 39.74 41.85 43.54 44.78 45.54 47.51
25.61 24.38 34.89 38.79 35.32 32.47 32.67 32.80 24.37 19.30 17.71 21.27 31.50 25.11 25.84 31.05 31.50 31.08 30.54 31.42 29.91 27.85 28.18 27.76 27.25 27.99 30.18 31.39 31.82 32.52 32.69 31.36 33.42 33.68 34.05 35.98 37.25 37.57 38.95 41.73 43.97 46.01 47.93 48.74
27.50 27.93 37.54 38.47 38.27 36.75 33.20 29.47 35.96 29.57 27.72 21.42 25.07 27.94 29.27 30.71 29.92 29.68 29.19 29.34 26.16 26.12 26.68 26.29 26.59 28.13 30.14 30.87 31.51 31.98 31.96 31.68 33.22 33.87 34.59 35.31 36.21 36.13 36.89 38.94 42.64 46.65 50.52 50.91
33.36 24.97 34.73 37.64 38.47 38.19 37.48 38.48 29.75 29.46 19.96 20.13 23.64 23.11 22.82 28.04 28.17 26.98 22.70 27.84 23.55 25.25 25.47 25.85 26.14 27.03 29.35 29.54 31.59 32.16 31.79 31.67 32.57 33.56 34.08 34.58 34.61 35.24 35.80 37.43 38.39 41.79 45.01 47.76
34.27 27.40 29.92 35.49 33.41 31.84 32.61 32.00 33.58 32.17 27.59 19.26 14.45 21.50 30.02 27.12 23.87 22.16 24.26 27.96 20.68 21.88 21.85 23.93 25.32 26.18 28.47 29.51 29.89 30.30 30.93 31.26 31.82 32.93 33.59 33.59 33.53 33.83 34.39 34.42 35.97 37.57 40.11 41.39
35.01 30.39 25.96 29.82 37.39 38.71 35.88 33.57 34.57 28.15 26.83 26.75 20.74 22.39 31.38 28.65 27.78 28.18 26.83 22.24 20.32 21.36 19.94 21.26 23.21 24.45 27.09 28.60 29.21 29.40 29.51 30.07 31.47 32.20 32.64 32.73 32.64 32.48 32.46 32.56 33.48 35.64 37.19 38.27
34.93 28.82 22.80 26.50 32.68 36.75 34.23 35.85 35.02 33.41 30.54 25.95 22.45 21.73 31.34 30.05 28.62 29.26 23.92 20.54 18.01 17.93 21.20 20.73 21.96 23.88 25.71 27.76 28.94 29.38 29.53 29.22 30.13 31.29 31.37 31.66 31.65 31.78 31.03 31.29 32.13 33.17 34.54 35.26
39.53 30.89 27.87 23.03 26.64 32.95 30.18 32.75 34.99 32.20 24.60 24.36 25.03 26.86 28.96 28.36 27.24 27.52 26.10 23.18 19.40 17.73 19.50 19.35 21.30 22.50 24.91 26.65 28.70 29.05 29.23 29.84 29.43 29.30 29.54 29.61 30.44 30.76 31.50 30.68 30.44 30.66 32.06 33.27
33.86 25.00 29.35 30.62 32.99 32.71 31.25 30.51 31.38 30.10 30.56 25.31 25.50 27.62 28.71 29.28 27.46 27.19 25.83 26.06 26.08 25.29 25.60 24.33 22.92 23.23 23.95 26.07 27.59 29.25 29.32 29.64 29.08 27.44 26.49 27.57 29.27 29.77 30.20 30.37 28.22 28.76 28.86 30.56
32.42 22.14 24.38 21.60 29.83 29.60 27.15 29.36 30.26 30.44 30.36 31.23 31.06 29.10 29.92 30.18 28.74 26.60 26.96 26.31 25.53 25.93 25.76 26.47 27.09 26.57 25.77 25.98 26.35 27.75 28.71 28.36 28.26 26.60 25.29 25.81 26.75 27.18 27.14 28.05 27.47 25.40 26.06 26.78
29.74 26.04 24.20 22.43 28.31 27.75 23.23 27.47 28.36 30.54 32.65 32.37 27.43 30.66 28.83 27.19 27.42 26.50 26.06 26.20 26.09 26.10 25.43 24.36 23.55 24.74 25.34 24.73 26.03 26.32 27.26 28.75 27.57 25.99 25.42 25.06 24.83 24.21 24.54 24.78 24.83 23.67 22.49 23.87
28.55 27.21 26.31 24.36 26.34 18.20 25.61 34.44 34.30 32.45 34.52 33.38 30.03 28.37 28.83 28.19 27.57 27.38 26.74 25.94 26.30 26.27 25.13 24.54 22.37 23.00 23.79 24.51 24.78 25.82 27.33 27.27 27.07 26.64 24.90 24.80 24.52 23.74 23.28 22.63 22.28 22.63 21.95 20.79
33.26 28.12 25.40 23.26 22.58 24.93 28.15 31.56 31.94 30.50 30.87 32.71 28.93 27.76 26.34 26.06 25.64 23.50 27.65 27.47 26.37 25.37 24.79 23.28 24.08 24.08 23.44 23.91 24.54 24.43 24.38 25.34 25.99 25.41 25.56 24.92 24.26 23.19 22.81 21.26 20.84 20.98 20.49 20.12
32.57 32.55 28.01 26.78 22.79 19.60 25.72 31.73 35.14 34.75 25.75 31.88 29.28 26.28 25.30 25.57 21.91 21.86 27.06 27.70 27.10 25.92 23.92 22.44 22.17 21.91 21.40 22.03 23.50 22.80 22.14 23.56 23.53 24.93 25.17 25.37 24.70 23.07 22.04 22.08 21.05 20.94 20.44 20.06
26.12 28.64 26.20 26.00 24.18 26.09 31.47 33.37 34.30 24.71 24.51 31.25 30.61 28.34 26.35 25.12 25.19 26.04 27.32 26.91 26.91 25.08 23.34 23.57 21.74 19.76 19.43 20.71 22.10 20.39 21.01 21.47 24.13 25.90 25.58 25.14 24.87 23.87 22.58 21.40 22.05 20.62 19.88 19.77
26.51 25.58 24.66 25.69 23.69 20.10 33.67 31.59 27.72 28.61 28.36 29.68 30.35 29.76 27.83 27.00 26.95 26.84 26.32 26.35 26.34 24.09 22.32 22.16 19.88 18.41 19.16 19.84 20.13 19.23 19.09 22.47 24.21 24.83 24.53 24.06 24.46 24.96 24.27 21.87 20.86 20.60 19.64 17.96
25.61 28.68 27.37 28.29 26.32 31.26 34.32 31.21 32.41 31.71 29.67 28.76 28.33 29.47 28.57 27.53 26.51 25.42 24.47 24.59 25.22 23.68 21.86 21.77 19.75 18.44 18.47 19.20 19.24 18.18 20.20 22.70 23.34 23.34 23.16 23.37 23.87 24.00 24.16 22.88 21.64 19.54 19.54 18.66
34.49 36.81 31.03 30.51 30.41 31.15 34.32 33.87 33.36 32.16 29.99 29.30 30.21 29.89 28.96 27.01 26.16 23.85 23.07 23.35 23.23 22.71 21.44 21.21 19.31 17.42 16.87 18.26 19.62 19.82 21.02 22.44 22.42 21.83 21.98 22.43 21.88 21.77 22.06 22.98 23.13 21.97 21.65 19.88
32.71 34.11 30.39 28.80 29.16 31.82 33.75 34.66 31.49 30.63 30.70 30.17 30.47 29.85 29.01 27.88 25.65 24.51 24.36 23.95 23.31 22.44 21.75 20.50 18.57 17.33 16.23 17.53 18.01 18.74 20.13 21.64 21.65 21.46 21.42 20.68 21.26 20.58 19.64 20.10 20.34 21.70 21.70 23.39
33.73 31.65 27.59 25.93 29.93 28.92 29.27 34.21 32.43 30.39 29.61 29.99 28.90 27.93 29.59 28.33 26.80 25.76 24.56 24.16 22.73 21.17 20.74 19.17 18.38 17.29 16.30 16.48 16.66 17.60 19.24 20.92 20.56 20.28 19.77 19.33 19.66 18.96 18.17 17.12 17.44 21.98 23.17 24.93